Wetterdaten: Mittwoch, 01.02.2017
Datum Zeit Temp. A. Feuchte A. Luftdruck Regen Wind Richtung Richtung Sonnenschein ET UV Solar Taupunkt Windchill Windben Empfang
01.02.2017 00:00 -1,6 C 97 % 1018,8 hPa 0,0 l/m 0,6 km/h (0 Bft) N-NO 26 0 min 0,000 mm 0,0 UV-I 0 W/m -2,0 C -1,6 C 1,6 km/h (1 Bft) 97,92 %
01.02.2017 00:02 -1,6 C 97 % 1018,8 hPa 0,0 l/m 0,0 km/h (0 Bft) N-NO 26 0 min 0,000 mm 0,0 UV-I 0 W/m -2,0 C -1,6 C 0,0 km/h (0 Bft) 97,44 %
01.02.2017 00:04 -1,6 C 97 % 1018,8 hPa 0,0 l/m 0,0 km/h (0 Bft) N-NO 26 0 min 0,000 mm 0,0 UV-I 0 W/m -2,0 C -1,6 C 0,0 km/h (0 Bft) 100,00 %
01.02.2017 00:06 -1,6 C 97 % 1018,8 hPa 0,0 l/m 0,0 km/h (0 Bft) N-NO 26 0 min 0,000 mm 0,0 UV-I 0 W/m -2,0 C -1,6 C 0,0 km/h (0 Bft) 98,00 %
01.02.2017 00:08 -1,6 C 97 % 1018,8 hPa 0,0 l/m 0,0 km/h (0 Bft) N-NO 26 0 min 0,000 mm 0,0 UV-I 0 W/m -2,0 C -1,6 C 0,0 km/h (0 Bft) 100,00 %
01.02.2017 00:10 -1,6 C 97 % 1018,9 hPa 0,0 l/m 0,0 km/h (0 Bft) N-NO 26 0 min 0,000 mm 0,0 UV-I 0 W/m -2,0 C -1,6 C 0,0 km/h (0 Bft) 96,00 %
01.02.2017 00:12 -1,6 C 97 % 1018,9 hPa 0,0 l/m 0,0 km/h (0 Bft) N-NO 26 0 min 0,000 mm 0,0 UV-I 0 W/m -2,0 C -1,6 C 0,0 km/h (0 Bft) 100,00 %
01.02.2017 00:14 -1,6 C 97 % 1018,9 hPa 0,0 l/m 0,0 km/h (0 Bft) N-NO 26 0 min 0,000 mm 0,0 UV-I 0 W/m -2,0 C -1,6 C 0,0 km/h (0 Bft) 97,87 %
01.02.2017 00:16 -1,6 C 97 % 1018,9 hPa 0,0 l/m 0,0 km/h (0 Bft) N-NO 26 0 min 0,000 mm 0,0 UV-I 0 W/m -2,0 C -1,6 C 0,0 km/h (0 Bft) 100,00 %
01.02.2017 00:18 -1,6 C 97 % 1018,9 hPa 0,0 l/m 0,0 km/h (0 Bft) N-NO 26 0 min 0,000 mm 0,0 UV-I 0 W/m -2,0 C -1,6 C 0,0 km/h (0 Bft) 95,74 %
01.02.2017 00:20 -1,6 C 97 % 1019,0 hPa 0,0 l/m 0,0 km/h (0 Bft) N-NO 26 0 min 0,000 mm 0,0 UV-I 0 W/m -2,0 C -1,6 C 0,0 km/h (0 Bft) 100,00 %
01.02.2017 00:22 -1,6 C 97 % 1019,0 hPa 0,0 l/m 0,0 km/h (0 Bft) N-NO 26 0 min 0,000 mm 0,0 UV-I 0 W/m -2,0 C -1,6 C 0,0 km/h (0 Bft) 98,00 %
01.02.2017 00:24 -1,6 C 97 % 1019,0 hPa 0,0 l/m 0,0 km/h (0 Bft) N-NO 26 0 min 0,000 mm 0,0 UV-I 0 W/m -2,0 C -1,6 C 0,0 km/h (0 Bft) 100,00 %
01.02.2017 00:26 -1,6 C 97 % 1018,9 hPa 0,0 l/m 0,3 km/h (0 Bft) N-NO 26 0 min 0,000 mm 0,0 UV-I 0 W/m -2,0 C -1,6 C 1,6 km/h (1 Bft) 93,62 %
01.02.2017 00:28 -1,6 C 97 % 1018,9 hPa 0,0 l/m 2,7 km/h (1 Bft) N-NO 26 0 min 0,000 mm 0,0 UV-I 0 W/m -2,0 C -1,6 C 3,2 km/h (1 Bft) 100,00 %
01.02.2017 00:30 -1,6 C 97 % 1018,9 hPa 0,0 l/m 3,3 km/h (1 Bft) NO 55 0 min 0,000 mm 0,0 UV-I 0 W/m -2,0 C -1,6 C 4,8 km/h (1 Bft) 100,00 %
01.02.2017 00:32 -1,6 C 97 % 1019,0 hPa 0,0 l/m 2,2 km/h (1 Bft) O-NO 61 0 min 0,000 mm 0,0 UV-I 0 W/m -2,0 C -1,6 C 3,2 km/h (1 Bft) 94,29 %
01.02.2017 00:34 -1,6 C 97 % 1019,0 hPa 0,0 l/m 0,0 km/h (0 Bft) O-NO 61 0 min 0,000 mm 0,0 UV-I 0 W/m -2,0 C -1,6 C 0,0 km/h (0 Bft) 100,00 %
01.02.2017 00:36 -1,6 C 97 % 1019,1 hPa 0,0 l/m 0,0 km/h (0 Bft) O-NO 61 0 min 0,000 mm 0,0 UV-I 0 W/m -2,0 C -1,6 C 0,0 km/h (0 Bft) 98,11 %
01.02.2017 00:38 -1,6 C 97 % 1019,0 hPa 0,0 l/m 0,0 km/h (0 Bft) O-NO 61 0 min 0,000 mm 0,0 UV-I 0 W/m -2,0 C -1,6 C 0,0 km/h (0 Bft) 97,87 %
01.02.2017 00:40 -1,6 C 97 % 1019,0 hPa 0,0 l/m 0,0 km/h (0 Bft) O-NO 61 0 min 0,000 mm 0,0 UV-I 0 W/m -2,0 C -1,6 C 0,0 km/h (0 Bft) 97,37 %
01.02.2017 00:42 -1,6 C 97 % 1019,0 hPa 0,0 l/m 0,0 km/h (0 Bft) O-NO 61 0 min 0,000 mm 0,0 UV-I 0 W/m -2,0 C -1,6 C 0,0 km/h (0 Bft) 96,00 %
01.02.2017 00:44 -1,6 C 97 % 1019,0 hPa 0,0 l/m 0,1 km/h (0 Bft) O-NO 61 0 min 0,000 mm 0,0 UV-I 0 W/m -2,0 C -1,6 C 1,6 km/h (1 Bft) 94,00 %
01.02.2017 00:46 -1,6 C 97 % 1019,0 hPa 0,0 l/m 0,0 km/h (0 Bft) O-NO 61 0 min 0,000 mm 0,0 UV-I 0 W/m -2,0 C -1,6 C 0,0 km/h (0 Bft) 100,00 %
01.02.2017 00:48 -1,6 C 97 % 1019,0 hPa 0,0 l/m 0,0 km/h (0 Bft) O-NO 61 0 min 0,000 mm 0,0 UV-I 0 W/m -2,0 C -1,6 C 0,0 km/h (0 Bft) 97,22 %
01.02.2017 00:50 -1,6 C 97 % 1019,0 hPa 0,0 l/m 0,1 km/h (0 Bft) O-NO 61 0 min 0,000 mm 0,0 UV-I 0 W/m -2,0 C -1,6 C 1,6 km/h (1 Bft) 100,00 %
01.02.2017 00:52 -1,6 C 97 % 1019,0 hPa 0,0 l/m 0,5 km/h (0 Bft) O-NO 61 0 min 0,000 mm 0,0 UV-I 0 W/m -2,0 C -1,6 C 1,6 km/h (1 Bft) 98,00 %
01.02.2017 00:54 -1,6 C 97 % 1019,1 hPa 0,0 l/m 0,0 km/h (0 Bft) O-NO 61 0 min 0,000 mm 0,0 UV-I 0 W/m -2,0 C -1,6 C 0,0 km/h (0 Bft) 97,87 %
01.02.2017 00:56 -1,6 C 97 % 1019,1 hPa 0,0 l/m 0,0 km/h (0 Bft) O-NO 61 0 min 0,000 mm 0,0 UV-I 0 W/m -2,0 C -1,6 C 0,0 km/h (0 Bft) 97,62 %
01.02.2017 00:58 -1,6 C 97 % 1019,2 hPa 0,0 l/m 0,0 km/h (0 Bft) O-NO 61 0 min 0,000 mm 0,0 UV-I 0 W/m -2,0 C -1,6 C 0,0 km/h (0 Bft) 97,87 %
01.02.2017 01:00 -1,6 C 97 % 1019,2 hPa 0,0 l/m 0,0 km/h (0 Bft) O-NO 59 0 min 0,000 mm 0,0 UV-I 0 W/m -2,0 C -1,6 C 0,0 km/h (0 Bft) 98,00 %
01.02.2017 01:02 -1,6 C 97 % 1019,2 hPa 0,0 l/m 0,0 km/h (0 Bft) O-NO 59 0 min 0,000 mm 0,0 UV-I 0 W/m -2,0 C -1,6 C 0,0 km/h (0 Bft) 100,00 %
01.02.2017 01:04 -1,5 C 97 % 1019,2 hPa 0,0 l/m 0,0 km/h (0 Bft) O-NO 59 0 min 0,000 mm 0,0 UV-I 0 W/m -1,9 C -1,5 C 0,0 km/h (0 Bft) 94,74 %
01.02.2017 01:06 -1,5 C 97 % 1019,2 hPa 0,0 l/m 0,0 km/h (0 Bft) NO 49 0 min 0,000 mm 0,0 UV-I 0 W/m -1,9 C -1,5 C 1,6 km/h (1 Bft) 98,31 %
01.02.2017 01:08 -1,6 C 97 % 1019,2 hPa 0,0 l/m 0,0 km/h (0 Bft) NO 47 0 min 0,000 mm 0,0 UV-I 0 W/m -2,0 C -1,6 C 1,6 km/h (1 Bft) 97,56 %
01.02.2017 01:10 -1,6 C 97 % 1019,2 hPa 0,0 l/m 0,0 km/h (0 Bft) NO 47 0 min 0,000 mm 0,0 UV-I 0 W/m -2,0 C -1,6 C 0,0 km/h (0 Bft) 100,00 %
01.02.2017 01:12 -1,6 C 97 % 1019,2 hPa 0,0 l/m 0,0 km/h (0 Bft) NO 47 0 min 0,000 mm 0,0 UV-I 0 W/m -2,0 C -1,6 C 0,0 km/h (0 Bft) 93,62 %
01.02.2017 01:14 -1,6 C 97 % 1019,1 hPa 0,0 l/m 1,6 km/h (1 Bft) NO 47 0 min 0,000 mm 0,0 UV-I 0 W/m -2,0 C -1,6 C 3,2 km/h (1 Bft) 100,00 %
01.02.2017 01:16 -1,6 C 97 % 1019,2 hPa 0,0 l/m 2,0 km/h (1 Bft) NO 47 0 min 0,000 mm 0,0 UV-I 0 W/m -2,0 C -1,6 C 3,2 km/h (1 Bft) 95,12 %
01.02.2017 01:18 -1,6 C 97 % 1019,2 hPa 0,0 l/m 1,6 km/h (1 Bft) NO 47 0 min 0,000 mm 0,0 UV-I 0 W/m -2,0 C -1,6 C 3,2 km/h (1 Bft) 96,00 %
01.02.2017 01:20 -1,7 C 97 % 1019,3 hPa 0,0 l/m 0,3 km/h (0 Bft) NO 47 0 min 0,000 mm 0,0 UV-I 0 W/m -2,1 C -1,7 C 1,6 km/h (1 Bft) 96,23 %
01.02.2017 01:22 -1,7 C 97 % 1019,5 hPa 0,0 l/m 0,0 km/h (0 Bft) NO 35 0 min 0,000 mm 0,0 UV-I 0 W/m -2,1 C -1,7 C 0,0 km/h (0 Bft) 94,74 %
01.02.2017 01:24 -1,7 C 97 % 1019,5 hPa 0,0 l/m 0,0 km/h (0 Bft) N-NO 18 0 min 0,000 mm 0,0 UV-I 0 W/m -2,1 C -1,7 C 0,0 km/h (0 Bft) 96,00 %
01.02.2017 01:26 -1,7 C 97 % 1019,5 hPa 0,0 l/m 0,7 km/h (0 Bft) N-NO 15 0 min 0,000 mm 0,0 UV-I 0 W/m -2,1 C -1,7 C 3,2 km/h (1 Bft) 97,87 %
01.02.2017 01:28 -1,7 C 97 % 1019,5 hPa 0,0 l/m 1,7 km/h (1 Bft) N 360 0 min 0,000 mm 0,0 UV-I 0 W/m -2,1 C -1,7 C 3,2 km/h (1 Bft) 95,74 %
01.02.2017 01:30 -1,7 C 97 % 1019,4 hPa 0,0 l/m 3,4 km/h (1 Bft) N-NO 20 0 min 0,000 mm 0,0 UV-I 0 W/m -2,1 C -1,7 C 4,8 km/h (1 Bft) 97,62 %
01.02.2017 01:32 -1,7 C 97 % 1019,4 hPa 0,0 l/m 2,3 km/h (1 Bft) N-NO 20 0 min 0,000 mm 0,0 UV-I 0 W/m -2,1 C -1,7 C 4,8 km/h (1 Bft) 94,23 %
01.02.2017 01:34 -1,7 C 97 % 1019,4 hPa 0,0 l/m 1,2 km/h (1 Bft) N-NO 20 0 min 0,000 mm 0,0 UV-I 0 W/m -2,1 C -1,7 C 3,2 km/h (1 Bft) 94,87 %
01.02.2017 01:36 -1,7 C 97 % 1019,4 hPa 0,0 l/m 2,6 km/h (1 Bft) N-NO 20 0 min 0,000 mm 0,0 UV-I 0 W/m -2,1 C -1,7 C 3,2 km/h (1 Bft) 96,23 %
01.02.2017 01:38 -1,7 C 97 % 1019,4 hPa 0,0 l/m 2,5 km/h (1 Bft) N-NO 20 0 min 0,000 mm 0,0 UV-I 0 W/m -2,1 C -1,7 C 4,8 km/h (1 Bft) 93,62 %
01.02.2017 01:40 -1,7 C 97 % 1019,5 hPa 0,0 l/m 1,4 km/h (1 Bft) N-NO 20 0 min 0,000 mm 0,0 UV-I 0 W/m -2,1 C -1,7 C 3,2 km/h (1 Bft) 95,74 %
01.02.2017 01:42 -1,7 C 97 % 1019,6 hPa 0,0 l/m 0,2 km/h (0 Bft) N 360 0 min 0,000 mm 0,0 UV-I 0 W/m -2,1 C -1,7 C 1,6 km/h (1 Bft) 97,37 %
01.02.2017 01:44 -1,7 C 97 % 1019,6 hPa 0,0 l/m 0,5 km/h (0 Bft) N 360 0 min 0,000 mm 0,0 UV-I 0 W/m -2,1 C -1,7 C 1,6 km/h (1 Bft) 96,77 %
01.02.2017 01:46 -1,7 C 97 % 1019,6 hPa 0,0 l/m 1,8 km/h (1 Bft) N 360 0 min 0,000 mm 0,0 UV-I 0 W/m -2,1 C -1,7 C 3,2 km/h (1 Bft) 95,74 %
01.02.2017 01:48 -1,8 C 97 % 1019,6 hPa 0,0 l/m 0,3 km/h (0 Bft) N 355 0 min 0,000 mm 0,0 UV-I 0 W/m -2,2 C -1,8 C 1,6 km/h (1 Bft) 97,37 %
01.02.2017 01:50 -1,8 C 97 % 1019,6 hPa 0,0 l/m 2,1 km/h (1 Bft) N-NO 19 0 min 0,000 mm 0,0 UV-I 0 W/m -2,2 C -1,8 C 4,8 km/h (1 Bft) 94,34 %
01.02.2017 01:52 -1,8 C 97 % 1019,6 hPa 0,0 l/m 2,1 km/h (1 Bft) N-NO 16 0 min 0,000 mm 0,0 UV-I 0 W/m -2,2 C -1,8 C 4,8 km/h (1 Bft) 93,18 %
01.02.2017 01:54 -1,8 C 97 % 1019,5 hPa 0,0 l/m 2,3 km/h (1 Bft) N-NO 16 0 min 0,000 mm 0,0 UV-I 0 W/m -2,2 C -1,8 C 4,8 km/h (1 Bft) 100,00 %
01.02.2017 01:56 -1,9 C 97 % 1019,5 hPa 0,0 l/m 3,3 km/h (1 Bft) N-NO 16 0 min 0,000 mm 0,0 UV-I 0 W/m -2,3 C -1,9 C 4,8 km/h (1 Bft) 95,74 %
01.02.2017 01:58 -1,9 C 97 % 1019,5 hPa 0,0 l/m 2,8 km/h (1 Bft) N-NO 23 0 min 0,000 mm 0,0 UV-I 0 W/m -2,3 C -1,9 C 4,8 km/h (1 Bft) 97,14 %
01.02.2017 02:00 -1,9 C 97 % 1019,6 hPa 0,0 l/m 2,4 km/h (1 Bft) N-NO 23 0 min 0,000 mm 0,0 UV-I 0 W/m -2,3 C -1,9 C 4,8 km/h (1 Bft) 98,00 %
01.02.2017 02:02 -1,9 C 97 % 1019,7 hPa 0,0 l/m 2,4 km/h (1 Bft) N-NO 23 0 min 0,000 mm 0,0 UV-I 0 W/m -2,3 C -1,9 C 3,2 km/h (1 Bft) 97,56 %
01.02.2017 02:04 -1,9 C 97 % 1019,7 hPa 0,0 l/m 2,1 km/h (1 Bft) N-NO 23 0 min 0,000 mm 0,0 UV-I 0 W/m -2,3 C -1,9 C 3,2 km/h (1 Bft) 100,00 %
01.02.2017 02:06 -1,9 C 97 % 1019,7 hPa 0,0 l/m 1,3 km/h (1 Bft) N-NO 23 0 min 0,000 mm 0,0 UV-I 0 W/m -2,3 C -1,9 C 1,6 km/h (1 Bft) 97,44 %
01.02.2017 02:08 -1,9 C 97 % 1019,7 hPa 0,0 l/m 1,1 km/h (1 Bft) N-NO 23 0 min 0,000 mm 0,0 UV-I 0 W/m -2,3 C -1,9 C 1,6 km/h (1 Bft) 98,18 %
01.02.2017 02:10 -1,9 C 97 % 1019,7 hPa 0,0 l/m 1,8 km/h (1 Bft) N-NO 23 0 min 0,000 mm 0,0 UV-I 0 W/m -2,3 C -1,9 C 3,2 km/h (1 Bft) 100,00 %
01.02.2017 02:12 -1,9 C 97 % 1019,7 hPa 0,0 l/m 2,2 km/h (1 Bft) N-NO 23 0 min 0,000 mm 0,0 UV-I 0 W/m -2,3 C -1,9 C 3,2 km/h (1 Bft) 98,00 %
01.02.2017 02:14 -1,9 C 97 % 1019,8 hPa 0,0 l/m 2,3 km/h (1 Bft) N-NO 23 0 min 0,000 mm 0,0 UV-I 0 W/m -2,3 C -1,9 C 3,2 km/h (1 Bft) 100,00 %
01.02.2017 02:16 -1,9 C 97 % 1019,8 hPa 0,0 l/m 1,8 km/h (1 Bft) N-NO 23 0 min 0,000 mm 0,0 UV-I 0 W/m -2,3 C -1,9 C 3,2 km/h (1 Bft) 100,00 %
01.02.2017 02:18 -1,9 C 97 % 1019,7 hPa 0,0 l/m 1,3 km/h (1 Bft) N-NO 23 0 min 0,000 mm 0,0 UV-I 0 W/m -2,3 C -1,9 C 3,2 km/h (1 Bft) 96,23 %
01.02.2017 02:20 -1,9 C 97 % 1019,7 hPa 0,0 l/m 2,4 km/h (1 Bft) N-NO 23 0 min 0,000 mm 0,0 UV-I 0 W/m -2,3 C -1,9 C 3,2 km/h (1 Bft) 98,00 %
01.02.2017 02:22 -1,9 C 97 % 1019,7 hPa 0,0 l/m 1,4 km/h (1 Bft) N-NO 23 0 min 0,000 mm 0,0 UV-I 0 W/m -2,3 C -1,9 C 3,2 km/h (1 Bft) 97,87 %
01.02.2017 02:24 -1,9 C 97 % 1019,7 hPa 0,0 l/m 0,0 km/h (0 Bft) N-NO 23 0 min 0,000 mm 0,0 UV-I 0 W/m -2,3 C -1,9 C 0,0 km/h (0 Bft) 97,87 %
01.02.2017 02:26 -1,9 C 97 % 1019,8 hPa 0,0 l/m 0,0 km/h (0 Bft) N-NO 23 0 min 0,000 mm 0,0 UV-I 0 W/m -2,3 C -1,9 C 0,0 km/h (0 Bft) 97,14 %
01.02.2017 02:28 -1,9 C 97 % 1019,8 hPa 0,0 l/m 0,0 km/h (0 Bft) N-NO 23 0 min 0,000 mm 0,0 UV-I 0 W/m -2,3 C -1,9 C 0,0 km/h (0 Bft) 100,00 %
01.02.2017 02:30 -1,8 C 97 % 1019,8 hPa 0,0 l/m 0,0 km/h (0 Bft) N-NO 23 0 min 0,000 mm 0,0 UV-I 0 W/m -2,2 C -1,8 C 0,0 km/h (0 Bft) 98,00 %
01.02.2017 02:32 -1,8 C 97 % 1019,8 hPa 0,0 l/m 0,0 km/h (0 Bft) N-NO 23 0 min 0,000 mm 0,0 UV-I 0 W/m -2,2 C -1,8 C 0,0 km/h (0 Bft) 100,00 %
01.02.2017 02:34 -1,8 C 97 % 1019,8 hPa 0,0 l/m 0,0 km/h (0 Bft) N-NO 23 0 min 0,000 mm 0,0 UV-I 0 W/m -2,2 C -1,8 C 0,0 km/h (0 Bft) 97,87 %
01.02.2017 02:36 -1,8 C 97 % 1019,9 hPa 0,0 l/m 0,0 km/h (0 Bft) N-NO 23 0 min 0,000 mm 0,0 UV-I 0 W/m -2,2 C -1,8 C 0,0 km/h (0 Bft) 100,00 %
01.02.2017 02:38 -1,8 C 97 % 1019,9 hPa 0,0 l/m 0,8 km/h (0 Bft) N-NO 23 0 min 0,000 mm 0,0 UV-I 0 W/m -2,2 C -1,8 C 1,6 km/h (1 Bft) 95,74 %
01.02.2017 02:40 -1,8 C 97 % 1019,9 hPa 0,0 l/m 0,1 km/h (0 Bft) N-NO 23 0 min 0,000 mm 0,0 UV-I 0 W/m -2,2 C -1,8 C 1,6 km/h (1 Bft) 97,87 %
01.02.2017 02:42 -1,9 C 97 % 1019,9 hPa 0,0 l/m 1,0 km/h (0 Bft) N-NO 23 0 min 0,000 mm 0,0 UV-I 0 W/m -2,3 C -1,9 C 1,6 km/h (1 Bft) 100,00 %
01.02.2017 02:44 -1,9 C 97 % 1019,9 hPa 0,0 l/m 0,6 km/h (0 Bft) N-NO 23 0 min 0,000 mm 0,0 UV-I 0 W/m -2,3 C -1,9 C 1,6 km/h (1 Bft) 100,00 %
01.02.2017 02:46 -1,9 C 97 % 1019,8 hPa 0,0 l/m 0,0 km/h (0 Bft) N-NO 23 0 min 0,000 mm 0,0 UV-I 0 W/m -2,3 C -1,9 C 0,0 km/h (0 Bft) 100,00 %
01.02.2017 02:48 -1,9 C 97 % 1019,8 hPa 0,0 l/m 0,0 km/h (0 Bft) N-NO 23 0 min 0,000 mm 0,0 UV-I 0 W/m -2,3 C -1,9 C 0,0 km/h (0 Bft) 100,00 %
01.02.2017 02:50 -1,9 C 97 % 1019,9 hPa 0,0 l/m 0,0 km/h (0 Bft) N-NO 23 0 min 0,000 mm 0,0 UV-I 0 W/m -2,3 C -1,9 C 0,0 km/h (0 Bft) 96,72 %
01.02.2017 02:52 -1,8 C 97 % 1019,8 hPa 0,0 l/m 0,0 km/h (0 Bft) N-NO 23 0 min 0,000 mm 0,0 UV-I 0 W/m -2,2 C -1,8 C 0,0 km/h (0 Bft) 98,00 %
01.02.2017 02:54 -1,9 C 97 % 1019,8 hPa 0,0 l/m 0,0 km/h (0 Bft) N-NO 23 0 min 0,000 mm 0,0 UV-I 0 W/m -2,3 C -1,9 C 0,0 km/h (0 Bft) 100,00 %
01.02.2017 02:56 -1,8 C 97 % 1019,9 hPa 0,0 l/m 0,5 km/h (0 Bft) N-NO 23 0 min 0,000 mm 0,0 UV-I 0 W/m -2,2 C -1,8 C 1,6 km/h (1 Bft) 94,34 %
01.02.2017 02:58 -1,8 C 97 % 1019,9 hPa 0,0 l/m 0,0 km/h (0 Bft) N-NO 23 0 min 0,000 mm 0,0 UV-I 0 W/m -2,2 C -1,8 C 0,0 km/h (0 Bft) 100,00 %
01.02.2017 03:00 -1,8 C 97 % 1019,9 hPa 0,0 l/m 0,0 km/h (0 Bft) N-NO 23 0 min 0,000 mm 0,0 UV-I 0 W/m -2,2 C -1,8 C 0,0 km/h (0 Bft) 95,74 %
01.02.2017 03:02 -1,8 C 97 % 1019,9 hPa 0,0 l/m 0,0 km/h (0 Bft) N-NO 23 0 min 0,000 mm 0,0 UV-I 0 W/m -2,2 C -1,8 C 0,0 km/h (0 Bft) 100,00 %
01.02.2017 03:04 -1,8 C 97 % 1019,9 hPa 0,0 l/m 0,6 km/h (0 Bft) N-NO 23 0 min 0,000 mm 0,0 UV-I 0 W/m -2,2 C -1,8 C 1,6 km/h (1 Bft) 97,37 %
01.02.2017 03:06 -1,8 C 97 % 1019,9 hPa 0,0 l/m 0,3 km/h (0 Bft) N-NO 23 0 min 0,000 mm 0,0 UV-I 0 W/m -2,2 C -1,8 C 1,6 km/h (1 Bft) 96,00 %
01.02.2017 03:08 -1,8 C 97 % 1019,9 hPa 0,0 l/m 0,0 km/h (0 Bft) N-NO 23 0 min 0,000 mm 0,0 UV-I 0 W/m -2,2 C -1,8 C 0,0 km/h (0 Bft) 98,11 %
01.02.2017 03:10 -1,8 C 97 % 1019,9 hPa 0,0 l/m 0,0 km/h (0 Bft) N-NO 23 0 min 0,000 mm 0,0 UV-I 0 W/m -2,2 C -1,8 C 0,0 km/h (0 Bft) 100,00 %
01.02.2017 03:12 -1,8 C 97 % 1019,9 hPa 0,0 l/m 2,0 km/h (1 Bft) O-NO 67 0 min 0,000 mm 0,0 UV-I 0 W/m -2,2 C -1,8 C 3,2 km/h (1 Bft) 97,37 %
01.02.2017 03:14 -1,8 C 97 % 1019,9 hPa 0,0 l/m 1,4 km/h (1 Bft) O-NO 67 0 min 0,000 mm 0,0 UV-I 0 W/m -2,2 C -1,8 C 3,2 km/h (1 Bft) 100,00 %
01.02.2017 03:16 -1,8 C 97 % 1019,9 hPa 0,0 l/m 0,0 km/h (0 Bft) O-NO 67 0 min 0,000 mm 0,0 UV-I 0 W/m -2,2 C -1,8 C 0,0 km/h (0 Bft) 98,00 %
01.02.2017 03:18 -1,8 C 97 % 1019,8 hPa 0,0 l/m 1,0 km/h (0 Bft) O-NO 67 0 min 0,000 mm 0,0 UV-I 0 W/m -2,2 C -1,8 C 3,2 km/h (1 Bft) 97,87 %
01.02.2017 03:20 -1,8 C 97 % 1019,9 hPa 0,0 l/m 1,7 km/h (1 Bft) O-NO 67 0 min 0,000 mm 0,0 UV-I 0 W/m -2,2 C -1,8 C 3,2 km/h (1 Bft) 97,87 %
01.02.2017 03:22 -1,8 C 97 % 1019,9 hPa 0,0 l/m 0,1 km/h (0 Bft) O-NO 67 0 min 0,000 mm 0,0 UV-I 0 W/m -2,2 C -1,8 C 1,6 km/h (1 Bft) 97,37 %
01.02.2017 03:24 -1,8 C 97 % 1019,9 hPa 0,0 l/m 1,0 km/h (0 Bft) O-NO 67 0 min 0,000 mm 0,0 UV-I 0 W/m -2,2 C -1,8 C 1,6 km/h (1 Bft) 95,74 %
01.02.2017 03:26 -1,8 C 97 % 1019,9 hPa 0,0 l/m 0,3 km/h (0 Bft) O-NO 67 0 min 0,000 mm 0,0 UV-I 0 W/m -2,2 C -1,8 C 1,6 km/h (1 Bft) 98,11 %
01.02.2017 03:28 -1,8 C 97 % 1019,9 hPa 0,0 l/m 0,0 km/h (0 Bft) O-NO 67 0 min 0,000 mm 0,0 UV-I 0 W/m -2,2 C -1,8 C 0,0 km/h (0 Bft) 93,62 %
01.02.2017 03:30 -1,8 C 97 % 1019,9 hPa 0,0 l/m 0,0 km/h (0 Bft) O-NO 67 0 min 0,000 mm 0,0 UV-I 0 W/m -2,2 C -1,8 C 0,0 km/h (0 Bft) 94,00 %
01.02.2017 03:32 -1,8 C 97 % 1019,9 hPa 0,0 l/m 0,4 km/h (0 Bft) O-NO 67 0 min 0,000 mm 0,0 UV-I 0 W/m -2,2 C -1,8 C 1,6 km/h (1 Bft) 97,44 %
01.02.2017 03:34 -1,8 C 97 % 1019,9 hPa 0,0 l/m 0,1 km/h (0 Bft) O-NO 66 0 min 0,000 mm 0,0 UV-I 0 W/m -2,2 C -1,8 C 1,6 km/h (1 Bft) 96,00 %
01.02.2017 03:36 -1,8 C 97 % 1019,9 hPa 0,0 l/m 0,2 km/h (0 Bft) O-NO 67 0 min 0,000 mm 0,0 UV-I 0 W/m -2,2 C -1,8 C 1,6 km/h (1 Bft) 96,15 %
01.02.2017 03:38 -1,9 C 97 % 1019,9 hPa 0,0 l/m 2,5 km/h (1 Bft) O-NO 67 0 min 0,000 mm 0,0 UV-I 0 W/m -2,3 C -1,9 C 4,8 km/h (1 Bft) 92,31 %
01.02.2017 03:40 -1,9 C 97 % 1019,9 hPa 0,0 l/m 2,8 km/h (1 Bft) O-NO 66 0 min 0,000 mm 0,0 UV-I 0 W/m -2,3 C -1,9 C 3,2 km/h (1 Bft) 95,74 %
01.02.2017 03:42 -1,9 C 97 % 1020,0 hPa 0,0 l/m 1,9 km/h (1 Bft) O-NO 67 0 min 0,000 mm 0,0 UV-I 0 W/m -2,3 C -1,9 C 3,2 km/h (1 Bft) 96,00 %
01.02.2017 03:44 -1,9 C 97 % 1020,0 hPa 0,0 l/m 2,7 km/h (1 Bft) O-NO 66 0 min 0,000 mm 0,0 UV-I 0 W/m -2,3 C -1,9 C 4,8 km/h (1 Bft) 96,23 %
01.02.2017 03:46 -2,0 C 97 % 1020,0 hPa 0,0 l/m 1,7 km/h (1 Bft) O-NO 66 0 min 0,000 mm 0,0 UV-I 0 W/m -2,4 C -2,0 C 3,2 km/h (1 Bft) 95,12 %
01.02.2017 03:48 -2,0 C 97 % 1020,1 hPa 0,0 l/m 1,1 km/h (1 Bft) O-NO 66 0 min 0,000 mm 0,0 UV-I 0 W/m -2,4 C -2,0 C 1,6 km/h (1 Bft) 96,00 %
01.02.2017 03:50 -2,0 C 97 % 1020,1 hPa 0,0 l/m 1,5 km/h (1 Bft) O-NO 66 0 min 0,000 mm 0,0 UV-I 0 W/m -2,4 C -2,0 C 3,2 km/h (1 Bft) 97,37 %
01.02.2017 03:52 -2,1 C 97 % 1020,1 hPa 0,0 l/m 1,6 km/h (1 Bft) O-NO 67 0 min 0,000 mm 0,0 UV-I 0 W/m -2,5 C -2,1 C 3,2 km/h (1 Bft) 92,45 %
01.02.2017 03:54 -2,1 C 97 % 1020,1 hPa 0,0 l/m 2,0 km/h (1 Bft) O-NO 67 0 min 0,000 mm 0,0 UV-I 0 W/m -2,5 C -2,1 C 3,2 km/h (1 Bft) 96,00 %
01.02.2017 03:56 -2,1 C 97 % 1020,1 hPa 0,0 l/m 1,3 km/h (1 Bft) O-NO 67 0 min 0,000 mm 0,0 UV-I 0 W/m -2,5 C -2,1 C 3,2 km/h (1 Bft) 97,87 %
01.02.2017 03:58 -2,1 C 97 % 1020,1 hPa 0,0 l/m 0,7 km/h (0 Bft) O-NO 66 0 min 0,000 mm 0,0 UV-I 0 W/m -2,5 C -2,1 C 1,6 km/h (1 Bft) 94,74 %
01.02.2017 04:00 -2,1 C 97 % 1020,1 hPa 0,0 l/m 0,0 km/h (0 Bft) O-NO 67 0 min 0,000 mm 0,0 UV-I 0 W/m -2,5 C -2,1 C 0,0 km/h (0 Bft) 100,00 %
01.02.2017 04:02 -2,1 C 97 % 1020,2 hPa 0,0 l/m 0,0 km/h (0 Bft) O-NO 66 0 min 0,000 mm 0,0 UV-I 0 W/m -2,5 C -2,1 C 0,0 km/h (0 Bft) 100,00 %
01.02.2017 04:04 -2,1 C 97 % 1020,1 hPa 0,0 l/m 0,1 km/h (0 Bft) O-NO 67 0 min 0,000 mm 0,0 UV-I 0 W/m -2,5 C -2,1 C 1,6 km/h (1 Bft) 94,29 %
01.02.2017 04:06 -2,1 C 97 % 1020,1 hPa 0,0 l/m 1,7 km/h (1 Bft) O-NO 66 0 min 0,000 mm 0,0 UV-I 0 W/m -2,5 C -2,1 C 3,2 km/h (1 Bft) 98,31 %
01.02.2017 04:08 -2,1 C 97 % 1020,2 hPa 0,0 l/m 1,5 km/h (1 Bft) O-NO 66 0 min 0,000 mm 0,0 UV-I 0 W/m -2,5 C -2,1 C 3,2 km/h (1 Bft) 97,87 %
01.02.2017 04:10 -2,1 C 97 % 1020,3 hPa 0,0 l/m 0,8 km/h (0 Bft) O-NO 66 0 min 0,000 mm 0,0 UV-I 0 W/m -2,5 C -2,1 C 1,6 km/h (1 Bft) 100,00 %
01.02.2017 04:12 -2,1 C 97 % 1020,3 hPa 0,0 l/m 0,4 km/h (0 Bft) O-NO 66 0 min 0,000 mm 0,0 UV-I 0 W/m -2,5 C -2,1 C 1,6 km/h (1 Bft) 97,87 %
01.02.2017 04:14 -2,1 C 97 % 1020,3 hPa 0,0 l/m 1,3 km/h (1 Bft) O-NO 66 0 min 0,000 mm 0,0 UV-I 0 W/m -2,5 C -2,1 C 3,2 km/h (1 Bft) 100,00 %
01.02.2017 04:16 -2,1 C 97 % 1020,3 hPa 0,0 l/m 1,1 km/h (1 Bft) O-NO 66 0 min 0,000 mm 0,0 UV-I 0 W/m -2,5 C -2,1 C 3,2 km/h (1 Bft) 98,11 %
01.02.2017 04:18 -2,1 C 97 % 1020,3 hPa 0,0 l/m 1,0 km/h (0 Bft) O-NO 66 0 min 0,000 mm 0,0 UV-I 0 W/m -2,5 C -2,1 C 1,6 km/h (1 Bft) 98,11 %
01.02.2017 04:20 -2,1 C 97 % 1020,3 hPa 0,0 l/m 0,2 km/h (0 Bft) O-NO 66 0 min 0,000 mm 0,0 UV-I 0 W/m -2,5 C -2,1 C 1,6 km/h (1 Bft) 100,00 %
01.02.2017 04:22 -2,1 C 97 % 1020,3 hPa 0,0 l/m 0,4 km/h (0 Bft) O-NO 66 0 min 0,000 mm 0,0 UV-I 0 W/m -2,5 C -2,1 C 1,6 km/h (1 Bft) 94,44 %
01.02.2017 04:24 -2,1 C 97 % 1020,3 hPa 0,0 l/m 0,9 km/h (0 Bft) O-NO 66 0 min 0,000 mm 0,0 UV-I 0 W/m -2,5 C -2,1 C 1,6 km/h (1 Bft) 95,74 %
01.02.2017 04:26 -2,1 C 97 % 1020,3 hPa 0,0 l/m 2,0 km/h (1 Bft) O-NO 66 0 min 0,000 mm 0,0 UV-I 0 W/m -2,5 C -2,1 C 3,2 km/h (1 Bft) 100,00 %
01.02.2017 04:28 -2,1 C 97 % 1020,3 hPa 0,0 l/m 3,0 km/h (1 Bft) O-NO 66 0 min 0,000 mm 0,0 UV-I 0 W/m -2,5 C -2,1 C 4,8 km/h (1 Bft) 97,37 %
01.02.2017 04:30 -2,1 C 97 % 1020,3 hPa 0,0 l/m 2,4 km/h (1 Bft) O-NO 58 0 min 0,000 mm 0,0 UV-I 0 W/m -2,5 C -2,1 C 4,8 km/h (1 Bft) 100,00 %
01.02.2017 04:32 -2,1 C 97 % 1020,2 hPa 0,0 l/m 2,9 km/h (1 Bft) O-NO 58 0 min 0,000 mm 0,0 UV-I 0 W/m -2,5 C -2,1 C 3,2 km/h (1 Bft) 98,11 %
01.02.2017 04:34 -2,1 C 97 % 1020,2 hPa 0,0 l/m 3,7 km/h (1 Bft) NO 55 0 min 0,000 mm 0,0 UV-I 0 W/m -2,5 C -2,1 C 4,8 km/h (1 Bft) 100,00 %
01.02.2017 04:36 -2,1 C 97 % 1020,2 hPa 0,0 l/m 3,5 km/h (1 Bft) NO 55 0 min 0,000 mm 0,0 UV-I 0 W/m -2,5 C -2,1 C 4,8 km/h (1 Bft) 98,11 %
01.02.2017 04:38 -2,1 C 97 % 1020,2 hPa 0,0 l/m 3,1 km/h (1 Bft) NO 55 0 min 0,000 mm 0,0 UV-I 0 W/m -2,5 C -2,1 C 4,8 km/h (1 Bft) 98,00 %
01.02.2017 04:40 -2,1 C 97 % 1020,3 hPa 0,0 l/m 3,0 km/h (1 Bft) NO 34 0 min 0,000 mm 0,0 UV-I 0 W/m -2,5 C -2,1 C 4,8 km/h (1 Bft) 100,00 %
01.02.2017 04:42 -2,2 C 97 % 1020,3 hPa 0,0 l/m 5,3 km/h (1 Bft) NO 39 0 min 0,000 mm 0,0 UV-I 0 W/m -2,6 C -2,2 C 6,4 km/h (2 Bft) 100,00 %
01.02.2017 04:44 -2,2 C 97 % 1020,3 hPa 0,0 l/m 4,3 km/h (1 Bft) N-NO 27 0 min 0,000 mm 0,0 UV-I 0 W/m -2,6 C -2,2 C 4,8 km/h (1 Bft) 97,73 %
01.02.2017 04:46 -2,2 C 97 % 1020,3 hPa 0,0 l/m 3,9 km/h (1 Bft) N-NO 32 0 min 0,000 mm 0,0 UV-I 0 W/m -2,6 C -2,2 C 4,8 km/h (1 Bft) 100,00 %
01.02.2017 04:48 -2,2 C 97 % 1020,2 hPa 0,0 l/m 3,9 km/h (1 Bft) NO 50 0 min 0,000 mm 0,0 UV-I 0 W/m -2,6 C -2,2 C 4,8 km/h (1 Bft) 94,00 %
01.02.2017 04:50 -2,2 C 97 % 1020,2 hPa 0,0 l/m 3,0 km/h (1 Bft) NO 50 0 min 0,000 mm 0,0 UV-I 0 W/m -2,6 C -2,2 C 4,8 km/h (1 Bft) 95,12 %
01.02.2017 04:52 -2,3 C 97 % 1020,2 hPa 0,0 l/m 2,6 km/h (1 Bft) NO 50 0 min 0,000 mm 0,0 UV-I 0 W/m -2,7 C -2,3 C 4,8 km/h (1 Bft) 100,00 %
01.02.2017 04:54 -2,3 C 97 % 1020,3 hPa 0,0 l/m 3,5 km/h (1 Bft) NO 50 0 min 0,000 mm 0,0 UV-I 0 W/m -2,7 C -2,3 C 4,8 km/h (1 Bft) 98,18 %
01.02.2017 04:56 -2,3 C 97 % 1020,3 hPa 0,0 l/m 3,6 km/h (1 Bft) NO 50 0 min 0,000 mm 0,0 UV-I 0 W/m -2,7 C -2,3 C 4,8 km/h (1 Bft) 100,00 %
01.02.2017 04:58 -2,3 C 97 % 1020,3 hPa 0,0 l/m 2,5 km/h (1 Bft) NO 50 0 min 0,000 mm 0,0 UV-I 0 W/m -2,7 C -2,3 C 3,2 km/h (1 Bft) 97,87 %
01.02.2017 05:00 -2,3 C 97 % 1020,3 hPa 0,0 l/m 2,4 km/h (1 Bft) NO 50 0 min 0,000 mm 0,0 UV-I 0 W/m -2,7 C -2,3 C 3,2 km/h (1 Bft) 97,87 %
01.02.2017 05:02 -2,3 C 97 % 1020,3 hPa 0,0 l/m 3,7 km/h (1 Bft) NO 50 0 min 0,000 mm 0,0 UV-I 0 W/m -2,7 C -2,3 C 4,8 km/h (1 Bft) 100,00 %
01.02.2017 05:04 -2,3 C 97 % 1020,3 hPa 0,0 l/m 3,6 km/h (1 Bft) NO 50 0 min 0,000 mm 0,0 UV-I 0 W/m -2,7 C -2,3 C 4,8 km/h (1 Bft) 98,11 %
01.02.2017 05:06 -2,3 C 97 % 1020,3 hPa 0,0 l/m 2,5 km/h (1 Bft) NO 50 0 min 0,000 mm 0,0 UV-I 0 W/m -2,7 C -2,3 C 4,8 km/h (1 Bft) 100,00 %
01.02.2017 05:08 -2,3 C 97 % 1020,3 hPa 0,0 l/m 2,1 km/h (1 Bft) NO 50 0 min 0,000 mm 0,0 UV-I 0 W/m -2,7 C -2,3 C 4,8 km/h (1 Bft) 95,74 %
01.02.2017 05:10 -2,3 C 97 % 1020,3 hPa 0,0 l/m 2,5 km/h (1 Bft) NO 50 0 min 0,000 mm 0,0 UV-I 0 W/m -2,7 C -2,3 C 3,2 km/h (1 Bft) 97,87 %
01.02.2017 05:12 -2,3 C 97 % 1020,3 hPa 0,0 l/m 3,1 km/h (1 Bft) NO 50 0 min 0,000 mm 0,0 UV-I 0 W/m -2,7 C -2,3 C 4,8 km/h (1 Bft) 95,74 %
01.02.2017 05:14 -2,3 C 97 % 1020,3 hPa 0,0 l/m 3,0 km/h (1 Bft) NO 50 0 min 0,000 mm 0,0 UV-I 0 W/m -2,7 C -2,3 C 4,8 km/h (1 Bft) 97,87 %
01.02.2017 05:16 -2,3 C 97 % 1020,3 hPa 0,0 l/m 2,7 km/h (1 Bft) NO 50 0 min 0,000 mm 0,0 UV-I 0 W/m -2,7 C -2,3 C 4,8 km/h (1 Bft) 100,00 %
01.02.2017 05:18 -2,3 C 97 % 1020,3 hPa 0,0 l/m 3,6 km/h (1 Bft) NO 50 0 min 0,000 mm 0,0 UV-I 0 W/m -2,7 C -2,3 C 4,8 km/h (1 Bft) 97,37 %
01.02.2017 05:20 -2,3 C 97 % 1020,3 hPa 0,0 l/m 2,8 km/h (1 Bft) NO 50 0 min 0,000 mm 0,0 UV-I 0 W/m -2,7 C -2,3 C 4,8 km/h (1 Bft) 100,00 %
01.02.2017 05:22 -2,4 C 97 % 1020,3 hPa 0,0 l/m 3,5 km/h (1 Bft) O-NO 59 0 min 0,000 mm 0,0 UV-I 0 W/m -2,8 C -2,4 C 4,8 km/h (1 Bft) 98,00 %
01.02.2017 05:24 -2,4 C 97 % 1020,3 hPa 0,0 l/m 4,0 km/h (1 Bft) O-NO 57 0 min 0,000 mm 0,0 UV-I 0 W/m -2,8 C -2,4 C 4,8 km/h (1 Bft) 94,74 %
01.02.2017 05:26 -2,4 C 97 % 1020,3 hPa 0,0 l/m 4,6 km/h (1 Bft) O-NO 58 0 min 0,000 mm 0,0 UV-I 0 W/m -2,8 C -2,4 C 6,4 km/h (2 Bft) 100,00 %
01.02.2017 05:28 -2,4 C 96 % 1020,3 hPa 0,0 l/m 5,5 km/h (1 Bft) O-NO 62 0 min 0,000 mm 0,0 UV-I 0 W/m -2,9 C -2,4 C 6,4 km/h (2 Bft) 97,56 %
01.02.2017 05:30 -2,5 C 96 % 1020,2 hPa 0,0 l/m 5,6 km/h (1 Bft) O-NO 58 0 min 0,000 mm 0,0 UV-I 0 W/m -3,0 C -2,5 C 8,0 km/h (2 Bft) 100,00 %
01.02.2017 05:32 -2,5 C 96 % 1020,3 hPa 0,0 l/m 4,9 km/h (1 Bft) NO 50 0 min 0,000 mm 0,0 UV-I 0 W/m -3,0 C -2,5 C 6,4 km/h (2 Bft) 95,24 %
01.02.2017 05:34 -2,5 C 96 % 1020,4 hPa 0,0 l/m 4,4 km/h (1 Bft) N-NO 32 0 min 0,000 mm 0,0 UV-I 0 W/m -3,0 C -2,5 C 6,4 km/h (2 Bft) 95,45 %
01.02.2017 05:36 -2,5 C 97 % 1020,3 hPa 0,0 l/m 5,2 km/h (1 Bft) NO 49 0 min 0,000 mm 0,0 UV-I 0 W/m -2,9 C -2,5 C 6,4 km/h (2 Bft) 96,43 %
01.02.2017 05:38 -2,5 C 97 % 1020,3 hPa 0,0 l/m 5,0 km/h (1 Bft) O-NO 57 0 min 0,000 mm 0,0 UV-I 0 W/m -2,9 C -2,5 C 6,4 km/h (2 Bft) 97,87 %
01.02.2017 05:40 -2,6 C 97 % 1020,3 hPa 0,0 l/m 4,1 km/h (1 Bft) O-NO 62 0 min 0,000 mm 0,0 UV-I 0 W/m -3,0 C -2,6 C 6,4 km/h (2 Bft) 98,00 %
01.02.2017 05:42 -2,6 C 97 % 1020,3 hPa 0,0 l/m 3,8 km/h (1 Bft) NO 55 0 min 0,000 mm 0,0 UV-I 0 W/m -3,0 C -2,6 C 4,8 km/h (1 Bft) 97,73 %
01.02.2017 05:44 -2,6 C 97 % 1020,4 hPa 0,0 l/m 4,2 km/h (1 Bft) NO 49 0 min 0,000 mm 0,0 UV-I 0 W/m -3,0 C -2,6 C 6,4 km/h (2 Bft) 96,00 %
01.02.2017 05:46 -2,6 C 97 % 1020,4 hPa 0,0 l/m 3,6 km/h (1 Bft) NO 49 0 min 0,000 mm 0,0 UV-I 0 W/m -3,0 C -2,6 C 4,8 km/h (1 Bft) 97,87 %
01.02.2017 05:48 -2,6 C 97 % 1020,4 hPa 0,0 l/m 3,7 km/h (1 Bft) O-NO 61 0 min 0,000 mm 0,0 UV-I 0 W/m -3,0 C -2,6 C 6,4 km/h (2 Bft) 96,00 %
01.02.2017 05:50 -2,6 C 97 % 1020,3 hPa 0,0 l/m 4,8 km/h (1 Bft) O-NO 59 0 min 0,000 mm 0,0 UV-I 0 W/m -3,0 C -2,6 C 6,4 km/h (2 Bft) 95,12 %
01.02.2017 05:52 -2,6 C 97 % 1020,4 hPa 0,0 l/m 3,9 km/h (1 Bft) O-NO 60 0 min 0,000 mm 0,0 UV-I 0 W/m -3,0 C -2,6 C 4,8 km/h (1 Bft) 94,00 %
01.02.2017 05:54 -2,6 C 97 % 1020,3 hPa 0,0 l/m 3,4 km/h (1 Bft) NO 53 0 min 0,000 mm 0,0 UV-I 0 W/m -3,0 C -2,6 C 4,8 km/h (1 Bft) 97,37 %
01.02.2017 05:56 -2,6 C 97 % 1020,3 hPa 0,0 l/m 3,7 km/h (1 Bft) NO 55 0 min 0,000 mm 0,0 UV-I 0 W/m -3,0 C -2,6 C 4,8 km/h (1 Bft) 95,74 %
01.02.2017 05:58 -2,6 C 97 % 1020,3 hPa 0,0 l/m 4,2 km/h (1 Bft) NO 51 0 min 0,000 mm 0,0 UV-I 0 W/m -3,0 C -2,6 C 4,8 km/h (1 Bft) 96,00 %
01.02.2017 06:00 -2,6 C 97 % 1020,3 hPa 0,0 l/m 3,7 km/h (1 Bft) NO 51 0 min 0,000 mm 0,0 UV-I 0 W/m -3,0 C -2,6 C 4,8 km/h (1 Bft) 95,74 %
01.02.2017 06:02 -2,6 C 97 % 1020,3 hPa 0,0 l/m 4,7 km/h (1 Bft) NO 51 0 min 0,000 mm 0,0 UV-I 0 W/m -3,0 C -2,6 C 6,4 km/h (2 Bft) 98,00 %
01.02.2017 06:04 -2,6 C 97 % 1020,3 hPa 0,0 l/m 4,9 km/h (1 Bft) NO 49 0 min 0,000 mm 0,0 UV-I 0 W/m -3,0 C -2,6 C 6,4 km/h (2 Bft) 96,00 %
01.02.2017 06:06 -2,6 C 97 % 1020,3 hPa 0,0 l/m 5,2 km/h (1 Bft) NO 54 0 min 0,000 mm 0,0 UV-I 0 W/m -3,0 C -2,6 C 6,4 km/h (2 Bft) 100,00 %
01.02.2017 06:08 -2,6 C 97 % 1020,3 hPa 0,0 l/m 5,3 km/h (1 Bft) NO 54 0 min 0,000 mm 0,0 UV-I 0 W/m -3,0 C -2,6 C 6,4 km/h (2 Bft) 98,00 %
01.02.2017 06:10 -2,7 C 97 % 1020,3 hPa 0,0 l/m 4,3 km/h (1 Bft) NO 51 0 min 0,000 mm 0,0 UV-I 0 W/m -3,1 C -2,7 C 6,4 km/h (2 Bft) 98,11 %
01.02.2017 06:12 -2,7 C 97 % 1020,3 hPa 0,0 l/m 3,5 km/h (1 Bft) NO 51 0 min 0,000 mm 0,0 UV-I 0 W/m -3,1 C -2,7 C 4,8 km/h (1 Bft) 100,00 %
01.02.2017 06:14 -2,7 C 97 % 1020,3 hPa 0,0 l/m 4,3 km/h (1 Bft) O-NO 62 0 min 0,000 mm 0,0 UV-I 0 W/m -3,1 C -2,7 C 6,4 km/h (2 Bft) 98,00 %
01.02.2017 06:16 -2,7 C 97 % 1020,2 hPa 0,0 l/m 5,5 km/h (1 Bft) O-NO 67 0 min 0,000 mm 0,0 UV-I 0 W/m -3,1 C -2,7 C 6,4 km/h (2 Bft) 100,00 %
01.02.2017 06:18 -2,7 C 97 % 1020,3 hPa 0,0 l/m 4,7 km/h (1 Bft) O-NO 61 0 min 0,000 mm 0,0 UV-I 0 W/m -3,1 C -2,7 C 6,4 km/h (2 Bft) 97,44 %
01.02.2017 06:20 -2,7 C 97 % 1020,2 hPa 0,0 l/m 4,4 km/h (1 Bft) NO 50 0 min 0,000 mm 0,0 UV-I 0 W/m -3,1 C -2,7 C 6,4 km/h (2 Bft) 98,00 %
01.02.2017 06:22 -2,7 C 97 % 1020,3 hPa 0,0 l/m 5,3 km/h (1 Bft) NO 46 0 min 0,000 mm 0,0 UV-I 0 W/m -3,1 C -2,7 C 6,4 km/h (2 Bft) 100,00 %
01.02.2017 06:24 -2,7 C 97 % 1020,3 hPa 0,0 l/m 5,2 km/h (1 Bft) NO 54 0 min 0,000 mm 0,0 UV-I 0 W/m -3,1 C -2,7 C 6,4 km/h (2 Bft) 97,87 %
01.02.2017 06:26 -2,7 C 97 % 1020,2 hPa 0,0 l/m 6,5 km/h (2 Bft) O-NO 60 0 min 0,000 mm 0,0 UV-I 0 W/m -3,1 C -2,8 C 8,0 km/h (2 Bft) 100,00 %
01.02.2017 06:28 -2,7 C 97 % 1020,2 hPa 0,0 l/m 6,3 km/h (2 Bft) O-NO 64 0 min 0,000 mm 0,0 UV-I 0 W/m -3,1 C -2,7 C 9,7 km/h (2 Bft) 96,00 %
01.02.2017 06:30 -2,7 C 97 % 1020,2 hPa 0,0 l/m 5,7 km/h (1 Bft) NO 49 0 min 0,000 mm 0,0 UV-I 0 W/m -3,1 C -2,7 C 8,0 km/h (2 Bft) 98,00 %
01.02.2017 06:32 -2,8 C 97 % 1020,3 hPa 0,0 l/m 5,0 km/h (1 Bft) NO 50 0 min 0,000 mm 0,0 UV-I 0 W/m -3,2 C -2,8 C 6,4 km/h (2 Bft) 100,00 %
01.02.2017 06:34 -2,8 C 97 % 1020,3 hPa 0,0 l/m 5,0 km/h (1 Bft) NO 56 0 min 0,000 mm 0,0 UV-I 0 W/m -3,2 C -2,8 C 6,4 km/h (2 Bft) 98,00 %
01.02.2017 06:36 -2,8 C 97 % 1020,3 hPa 0,0 l/m 4,9 km/h (1 Bft) NO 55 0 min 0,000 mm 0,0 UV-I 0 W/m -3,2 C -2,8 C 6,4 km/h (2 Bft) 92,00 %
01.02.2017 06:38 -2,8 C 97 % 1020,3 hPa 0,0 l/m 4,7 km/h (1 Bft) NO 54 0 min 0,000 mm 0,0 UV-I 0 W/m -3,2 C -2,8 C 6,4 km/h (2 Bft) 100,00 %
01.02.2017 06:40 -2,8 C 97 % 1020,3 hPa 0,0 l/m 4,3 km/h (1 Bft) O-NO 61 0 min 0,000 mm 0,0 UV-I 0 W/m -3,2 C -2,8 C 6,4 km/h (2 Bft) 94,34 %
01.02.2017 06:42 -2,8 C 97 % 1020,4 hPa 0,0 l/m 3,4 km/h (1 Bft) NO 55 0 min 0,000 mm 0,0 UV-I 0 W/m -3,2 C -2,8 C 4,8 km/h (1 Bft) 97,56 %
01.02.2017 06:44 -2,8 C 97 % 1020,4 hPa 0,0 l/m 3,6 km/h (1 Bft) O-NO 59 0 min 0,000 mm 0,0 UV-I 0 W/m -3,2 C -2,8 C 6,4 km/h (2 Bft) 94,34 %
01.02.2017 06:46 -2,8 C 97 % 1020,4 hPa 0,0 l/m 3,4 km/h (1 Bft) NO 54 0 min 0,000 mm 0,0 UV-I 0 W/m -3,2 C -2,8 C 6,4 km/h (2 Bft) 92,68 %
01.02.2017 06:48 -2,8 C 97 % 1020,4 hPa 0,0 l/m 5,2 km/h (1 Bft) NO 49 0 min 0,000 mm 0,0 UV-I 0 W/m -3,2 C -2,8 C 8,0 km/h (2 Bft) 100,00 %
01.02.2017 06:50 -2,7 C 97 % 1020,4 hPa 0,0 l/m 4,6 km/h (1 Bft) NO 38 0 min 0,000 mm 0,0 UV-I 0 W/m -3,1 C -2,7 C 6,4 km/h (2 Bft) 96,00 %
01.02.2017 06:52 -2,8 C 97 % 1020,5 hPa 0,0 l/m 3,8 km/h (1 Bft) NO 34 0 min 0,000 mm 0,0 UV-I 0 W/m -3,2 C -2,8 C 4,8 km/h (1 Bft) 94,44 %
01.02.2017 06:54 -2,7 C 97 % 1020,5 hPa 0,0 l/m 4,1 km/h (1 Bft) NO 43 0 min 0,000 mm 0,0 UV-I 0 W/m -3,1 C -2,7 C 6,4 km/h (2 Bft) 100,00 %
01.02.2017 06:56 -2,8 C 97 % 1020,5 hPa 0,0 l/m 4,0 km/h (1 Bft) NO 42 0 min 0,000 mm 0,0 UV-I 0 W/m -3,2 C -2,8 C 6,4 km/h (2 Bft) 95,12 %
01.02.2017 06:58 -2,7 C 97 % 1020,5 hPa 0,0 l/m 3,5 km/h (1 Bft) NO 40 0 min 0,000 mm 0,0 UV-I 0 W/m -3,1 C -2,7 C 4,8 km/h (1 Bft) 96,00 %
01.02.2017 07:00 -2,8 C 97 % 1020,5 hPa 0,0 l/m 5,6 km/h (1 Bft) N-NO 28 0 min 0,000 mm 0,0 UV-I 0 W/m -3,2 C -2,8 C 8,0 km/h (2 Bft) 96,00 %
01.02.2017 07:02 -2,8 C 97 % 1020,5 hPa 0,0 l/m 5,4 km/h (1 Bft) O-NO 60 0 min 0,000 mm 0,0 UV-I 0 W/m -3,2 C -2,8 C 6,4 km/h (2 Bft) 95,12 %
01.02.2017 07:04 -2,8 C 97 % 1020,5 hPa 0,0 l/m 5,2 km/h (1 Bft) NO 51 0 min 0,000 mm 0,0 UV-I 0 W/m -3,2 C -2,8 C 6,4 km/h (2 Bft) 95,74 %
01.02.2017 07:06 -2,8 C 96 % 1020,6 hPa 0,0 l/m 5,9 km/h (2 Bft) NO 51 0 min 0,000 mm 0,0 UV-I 0 W/m -3,3 C -2,8 C 8,0 km/h (2 Bft) 96,00 %
01.02.2017 07:08 -2,8 C 96 % 1020,7 hPa 0,0 l/m 5,7 km/h (1 Bft) O-NO 59 0 min 0,000 mm 0,0 UV-I 0 W/m -3,3 C -2,8 C 8,0 km/h (2 Bft) 100,00 %
01.02.2017 07:10 -2,8 C 96 % 1020,6 hPa 0,0 l/m 5,7 km/h (1 Bft) O-NO 57 0 min 0,000 mm 0,0 UV-I 0 W/m -3,3 C -2,8 C 6,4 km/h (2 Bft) 100,00 %
01.02.2017 07:12 -2,8 C 96 % 1020,7 hPa 0,0 l/m 4,8 km/h (1 Bft) NO 39 0 min 0,000 mm 0,0 UV-I 0 W/m -3,3 C -2,8 C 6,4 km/h (2 Bft) 94,29 %
01.02.2017 07:14 -2,8 C 96 % 1020,7 hPa 0,0 l/m 4,3 km/h (1 Bft) NO 51 0 min 0,000 mm 0,0 UV-I 0 W/m -3,3 C -2,8 C 6,4 km/h (2 Bft) 94,64 %
01.02.2017 07:16 -2,9 C 96 % 1020,7 hPa 0,0 l/m 5,5 km/h (1 Bft) NO 48 0 min 0,000 mm 0,0 UV-I 0 W/m -3,4 C -2,9 C 6,4 km/h (2 Bft) 95,45 %
01.02.2017 07:18 -2,9 C 96 % 1020,7 hPa 0,0 l/m 5,3 km/h (1 Bft) NO 54 0 min 0,000 mm 0,0 UV-I 0 W/m -3,4 C -2,9 C 8,0 km/h (2 Bft) 94,64 %
01.02.2017 07:20 -2,9 C 96 % 1020,8 hPa 0,0 l/m 6,3 km/h (2 Bft) NO 52 0 min 0,000 mm 0,0 UV-I 0 W/m -3,4 C -2,9 C 9,7 km/h (2 Bft) 95,83 %
01.02.2017 07:22 -2,9 C 96 % 1020,7 hPa 0,0 l/m 6,6 km/h (2 Bft) NO 51 0 min 0,000 mm 0,0 UV-I 0 W/m -3,4 C -3,1 C 8,0 km/h (2 Bft) 97,01 %
01.02.2017 07:24 -2,9 C 96 % 1020,8 hPa 0,0 l/m 6,8 km/h (2 Bft) O-NO 57 0 min 0,000 mm 0,0 UV-I 0 W/m -3,4 C -3,3 C 9,7 km/h (2 Bft) 100,00 %
01.02.2017 07:26 -2,9 C 96 % 1020,7 hPa 0,0 l/m 4,8 km/h (1 Bft) NO 47 0 min 0,000 mm 0,0 UV-I 0 W/m -3,4 C -2,9 C 6,4 km/h (2 Bft) 97,87 %
01.02.2017 07:28 -2,9 C 97 % 1020,7 hPa 0,0 l/m 5,2 km/h (1 Bft) NO 53 0 min 0,000 mm 0,0 UV-I 2 W/m -3,3 C -2,9 C 8,0 km/h (2 Bft) 96,00 %
01.02.2017 07:30 -2,9 C 97 % 1020,8 hPa 0,0 l/m 4,7 km/h (1 Bft) NO 46 0 min 0,000 mm 0,0 UV-I 5 W/m -3,3 C -2,9 C 6,4 km/h (2 Bft) 97,62 %
01.02.2017 07:32 -2,9 C 97 % 1020,8 hPa 0,0 l/m 3,9 km/h (1 Bft) NO 46 0 min 0,000 mm 0,0 UV-I 5 W/m -3,3 C -2,9 C 4,8 km/h (1 Bft) 98,00 %
01.02.2017 07:34 -2,9 C 97 % 1020,7 hPa 0,0 l/m 4,0 km/h (1 Bft) NO 46 0 min 0,000 mm 0,0 UV-I 5 W/m -3,3 C -2,9 C 4,8 km/h (1 Bft) 87,23 %
01.02.2017 07:36 -2,9 C 97 % 1020,7 hPa 0,0 l/m 4,2 km/h (1 Bft) N-NO 32 0 min 0,000 mm 0,0 UV-I 5 W/m -3,3 C -2,9 C 6,4 km/h (2 Bft) 95,12 %
01.02.2017 07:38 -2,9 C 97 % 1020,7 hPa 0,0 l/m 5,3 km/h (1 Bft) N-NO 32 0 min 0,000 mm 0,0 UV-I 6 W/m -3,3 C -2,9 C 8,0 km/h (2 Bft) 96,23 %
01.02.2017 07:40 -2,9 C 97 % 1020,7 hPa 0,0 l/m 6,2 km/h (2 Bft) NO 40 0 min 0,000 mm 0,0 UV-I 7 W/m -3,3 C -2,9 C 8,0 km/h (2 Bft) 96,23 %
01.02.2017 07:42 -2,9 C 97 % 1020,7 hPa 0,0 l/m 5,2 km/h (1 Bft) N-NO 28 0 min 0,000 mm 0,0 UV-I 7 W/m -3,3 C -2,9 C 6,4 km/h (2 Bft) 92,68 %
01.02.2017 07:44 -2,9 C 97 % 1020,7 hPa 0,0 l/m 5,2 km/h (1 Bft) NO 37 0 min 0,000 mm 0,0 UV-I 7 W/m -3,3 C -2,9 C 6,4 km/h (2 Bft) 94,74 %
01.02.2017 07:46 -2,9 C 97 % 1020,8 hPa 0,0 l/m 5,6 km/h (1 Bft) NO 34 0 min 0,000 mm 0,0 UV-I 9 W/m -3,3 C -2,9 C 6,4 km/h (2 Bft) 94,74 %
01.02.2017 07:48 -2,9 C 97 % 1020,8 hPa 0,0 l/m 4,3 km/h (1 Bft) NO 48 0 min 0,000 mm 0,0 UV-I 9 W/m -3,3 C -2,9 C 6,4 km/h (2 Bft) 95,16 %
01.02.2017 07:50 -2,9 C 97 % 1020,8 hPa 0,0 l/m 4,7 km/h (1 Bft) NO 41 0 min 0,000 mm 0,0 UV-I 9 W/m -3,3 C -2,9 C 6,4 km/h (2 Bft) 95,74 %
01.02.2017 07:52 -2,9 C 97 % 1020,8 hPa 0,0 l/m 4,2 km/h (1 Bft) NO 53 0 min 0,000 mm 0,0 UV-I 11 W/m -3,3 C -2,9 C 4,8 km/h (1 Bft) 95,74 %
01.02.2017 07:54 -2,9 C 97 % 1021,0 hPa 0,0 l/m 1,9 km/h (1 Bft) NO 53 0 min 0,000 mm 0,0 UV-I 11 W/m -3,3 C -2,9 C 4,8 km/h (1 Bft) 92,00 %
01.02.2017 07:56 -2,9 C 97 % 1020,9 hPa 0,0 l/m 2,7 km/h (1 Bft) NO 53 0 min 0,000 mm 0,0 UV-I 11 W/m -3,3 C -2,9 C 4,8 km/h (1 Bft) 95,74 %
01.02.2017 07:58 -2,9 C 97 % 1021,0 hPa 0,0 l/m 4,2 km/h (1 Bft) O-NO 67 0 min 0,000 mm 0,0 UV-I 11 W/m -3,3 C -2,9 C 6,4 km/h (2 Bft) 97,56 %
01.02.2017 08:00 -2,9 C 97 % 1020,9 hPa 0,0 l/m 4,9 km/h (1 Bft) O-NO 63 0 min 0,000 mm 0,0 UV-I 12 W/m -3,3 C -2,9 C 6,4 km/h (2 Bft) 96,00 %
01.02.2017 08:02 -2,9 C 97 % 1020,8 hPa 0,0 l/m 4,4 km/h (1 Bft) NO 49 0 min 0,000 mm 0,0 UV-I 12 W/m -3,3 C -2,9 C 6,4 km/h (2 Bft) 96,23 %
01.02.2017 08:04 -2,9 C 97 % 1020,8 hPa 0,0 l/m 4,3 km/h (1 Bft) NO 54 0 min 0,000 mm 0,0 UV-I 14 W/m -3,3 C -2,9 C 6,4 km/h (2 Bft) 95,74 %
01.02.2017 08:06 -2,9 C 97 % 1020,8 hPa 0,0 l/m 4,8 km/h (1 Bft) NO 45 0 min 0,000 mm 0,0 UV-I 14 W/m -3,3 C -2,9 C 6,4 km/h (2 Bft) 97,37 %
01.02.2017 08:08 -3,0 C 97 % 1020,9 hPa 0,0 l/m 5,4 km/h (1 Bft) O-NO 68 0 min 0,000 mm 0,0 UV-I 16 W/m -3,4 C -3,0 C 8,0 km/h (2 Bft) 95,74 %
01.02.2017 08:10 -3,0 C 97 % 1020,9 hPa 0,0 l/m 6,1 km/h (2 Bft) O-NO 63 0 min 0,000 mm 0,0 UV-I 18 W/m -3,4 C -3,0 C 6,4 km/h (2 Bft) 93,62 %
01.02.2017 08:12 -3,0 C 97 % 1020,8 hPa 0,0 l/m 4,1 km/h (1 Bft) NO 47 0 min 0,000 mm 0,0 UV-I 18 W/m -3,4 C -3,0 C 4,8 km/h (1 Bft) 100,00 %
01.02.2017 08:14 -3,0 C 97 % 1020,8 hPa 0,0 l/m 4,8 km/h (1 Bft) N-NO 30 0 min 0,000 mm 0,0 UV-I 20 W/m -3,4 C -3,0 C 6,4 km/h (2 Bft) 100,00 %
01.02.2017 08:16 -3,0 C 97 % 1020,9 hPa 0,0 l/m 3,1 km/h (1 Bft) N-NO 30 0 min 0,000 mm 0,0 UV-I 20 W/m -3,4 C -3,0 C 4,8 km/h (1 Bft) 97,14 %
01.02.2017 08:18 -2,9 C 97 % 1020,9 hPa 0,0 l/m 2,4 km/h (1 Bft) N-NO 33 0 min 0,000 mm 0,0 UV-I 19 W/m -3,3 C -2,9 C 4,8 km/h (1 Bft) 100,00 %
01.02.2017 08:20 -2,9 C 97 % 1021,0 hPa 0,0 l/m 3,1 km/h (1 Bft) O-NO 63 0 min 0,000 mm 0,0 UV-I 18 W/m -3,3 C -2,9 C 4,8 km/h (1 Bft) 96,00 %
01.02.2017 08:22 -2,9 C 97 % 1021,0 hPa 0,0 l/m 2,7 km/h (1 Bft) O-NO 63 0 min 0,000 mm 0,0 UV-I 19 W/m -3,3 C -2,9 C 4,8 km/h (1 Bft) 92,00 %
01.02.2017 08:24 -2,9 C 97 % 1021,1 hPa 0,0 l/m 0,4 km/h (0 Bft) O-NO 63 0 min 0,000 mm 0,0 UV-I 19 W/m -3,3 C -2,9 C 1,6 km/h (1 Bft) 95,74 %
01.02.2017 08:26 -2,9 C 97 % 1021,1 hPa 0,0 l/m 2,9 km/h (1 Bft) O-NO 58 0 min 0,000 mm 0,0 UV-I 20 W/m -3,3 C -2,9 C 4,8 km/h (1 Bft) 96,00 %
01.02.2017 08:28 -2,9 C 97 % 1021,0 hPa 0,0 l/m 4,7 km/h (1 Bft) NO 55 0 min 0,000 mm 0,0 UV-I 21 W/m -3,3 C -2,9 C 6,4 km/h (2 Bft) 97,73 %
01.02.2017 08:30 -2,9 C 97 % 1021,0 hPa 0,0 l/m 4,1 km/h (1 Bft) NO 55 0 min 0,000 mm 0,0 UV-I 21 W/m -3,3 C -2,9 C 4,8 km/h (1 Bft) 96,00 %
01.02.2017 08:32 -3,0 C 97 % 1021,1 hPa 0,0 l/m 5,0 km/h (1 Bft) NO 47 0 min 0,000 mm 0,0 UV-I 19 W/m -3,4 C -3,0 C 6,4 km/h (2 Bft) 95,12 %
01.02.2017 08:34 -3,0 C 97 % 1021,1 hPa 0,0 l/m 4,4 km/h (1 Bft) O-NO 62 0 min 0,000 mm 0,0 UV-I 19 W/m -3,4 C -3,0 C 6,4 km/h (2 Bft) 100,00 %
01.02.2017 08:36 -3,1 C 97 % 1021,1 hPa 0,0 l/m 4,4 km/h (1 Bft) O-NO 63 0 min 0,000 mm 0,0 UV-I 20 W/m -3,5 C -3,1 C 6,4 km/h (2 Bft) 95,74 %
01.02.2017 08:38 -3,0 C 97 % 1021,1 hPa 0,0 l/m 4,0 km/h (1 Bft) O-NO 63 0 min 0,000 mm 0,0 UV-I 23 W/m -3,4 C -3,0 C 6,4 km/h (2 Bft) 93,62 %
01.02.2017 08:40 -3,1 C 97 % 1021,1 hPa 0,0 l/m 4,1 km/h (1 Bft) O-NO 61 0 min 0,000 mm 0,0 UV-I 24 W/m -3,5 C -3,1 C 4,8 km/h (1 Bft) 100,00 %
01.02.2017 08:42 -3,1 C 97 % 1021,1 hPa 0,0 l/m 3,2 km/h (1 Bft) O-NO 61 0 min 0,000 mm 0,0 UV-I 26 W/m -3,5 C -3,1 C 4,8 km/h (1 Bft) 100,00 %
01.02.2017 08:44 -3,0 C 97 % 1021,1 hPa 0,0 l/m 2,5 km/h (1 Bft) O-NO 61 0 min 0,000 mm 0,0 UV-I 28 W/m -3,4 C -3,0 C 3,2 km/h (1 Bft) 100,00 %
01.02.2017 08:46 -2,9 C 97 % 1021,1 hPa 0,0 l/m 2,1 km/h (1 Bft) O-NO 58 0 min 0,000 mm 0,0 UV-I 35 W/m -3,3 C -2,9 C 4,8 km/h (1 Bft) 94,34 %
01.02.2017 08:48 -2,9 C 97 % 1021,1 hPa 0,0 l/m 3,5 km/h (1 Bft) NO 55 0 min 0,000 mm 0,0 UV-I 40 W/m -3,3 C -2,9 C 4,8 km/h (1 Bft) 93,62 %
01.02.2017 08:50 -2,9 C 97 % 1021,1 hPa 0,0 l/m 3,7 km/h (1 Bft) NO 53 0 min 0,000 mm 0,0 UV-I 38 W/m -3,3 C -2,9 C 4,8 km/h (1 Bft) 95,74 %
01.02.2017 08:52 -2,9 C 97 % 1021,1 hPa 0,0 l/m 4,1 km/h (1 Bft) NO 49 0 min 0,000 mm 0,0 UV-I 35 W/m -3,3 C -2,9 C 6,4 km/h (2 Bft) 95,74 %
01.02.2017 08:54 -2,9 C 97 % 1021,1 hPa 0,0 l/m 4,3 km/h (1 Bft) NO 52 0 min 0,000 mm 0,0 UV-I 37 W/m -3,3 C -2,9 C 6,4 km/h (2 Bft) 100,00 %
01.02.2017 08:56 -2,9 C 97 % 1021,1 hPa 0,0 l/m 4,0 km/h (1 Bft) NO 54 0 min 0,000 mm 0,0 UV-I 38 W/m -3,3 C -2,9 C 4,8 km/h (1 Bft) 93,22 %
01.02.2017 08:58 -2,9 C 97 % 1021,1 hPa 0,0 l/m 4,8 km/h (1 Bft) NO 51 0 min 0,000 mm 0,0 UV-I 41 W/m -3,3 C -2,9 C 6,4 km/h (2 Bft) 97,73 %
01.02.2017 09:00 -2,9 C 97 % 1021,1 hPa 0,0 l/m 4,6 km/h (1 Bft) NO 42 0 min 0,000 mm 0,0 UV-I 46 W/m -3,3 C -2,9 C 6,4 km/h (2 Bft) 95,74 %
01.02.2017 09:02 -2,9 C 97 % 1021,1 hPa 0,0 l/m 4,9 km/h (1 Bft) NO 50 0 min 0,000 mm 0,0 UV-I 45 W/m -3,3 C -2,9 C 6,4 km/h (2 Bft) 100,00 %
01.02.2017 09:04 -2,9 C 97 % 1021,0 hPa 0,0 l/m 4,6 km/h (1 Bft) NO 53 0 min 0,000 mm 0,0 UV-I 41 W/m -3,3 C -2,9 C 6,4 km/h (2 Bft) 100,00 %
01.02.2017 09:06 -2,9 C 97 % 1021,0 hPa 0,0 l/m 4,2 km/h (1 Bft) NO 55 0 min 0,000 mm 0,0 UV-I 44 W/m -3,3 C -2,9 C 6,4 km/h (2 Bft) 100,00 %
01.02.2017 09:08 -2,9 C 97 % 1021,0 hPa 0,0 l/m 4,3 km/h (1 Bft) NO 50 0 min 0,000 mm 0,0 UV-I 50 W/m -3,3 C -2,9 C 6,4 km/h (2 Bft) 100,00 %
01.02.2017 09:10 -2,9 C 97 % 1020,9 hPa 0,0 l/m 4,8 km/h (1 Bft) NO 49 0 min 0,000 mm 0,0 UV-I 55 W/m -3,3 C -2,9 C 6,4 km/h (2 Bft) 100,00 %
01.02.2017 09:12 -2,9 C 97 % 1020,9 hPa 0,0 l/m 4,9 km/h (1 Bft) O-NO 64 0 min 0,000 mm 0,0 UV-I 57 W/m -3,3 C -2,9 C 6,4 km/h (2 Bft) 98,11 %
01.02.2017 09:14 -2,9 C 97 % 1020,9 hPa 0,0 l/m 5,3 km/h (1 Bft) NO 52 0 min 0,000 mm 0,0 UV-I 63 W/m -3,3 C -2,9 C 6,4 km/h (2 Bft) 100,00 %
01.02.2017 09:16 -2,9 C 97 % 1020,9 hPa 0,0 l/m 4,5 km/h (1 Bft) NO 47 0 min 0,000 mm 0,0 UV-I 74 W/m -3,3 C -2,9 C 6,4 km/h (2 Bft) 97,87 %
01.02.2017 09:18 -2,9 C 97 % 1021,0 hPa 0,0 l/m 4,6 km/h (1 Bft) NO 43 0 min 0,000 mm 0,0 UV-I 82 W/m -3,3 C -2,9 C 6,4 km/h (2 Bft) 98,00 %
01.02.2017 09:20 -2,8 C 97 % 1021,1 hPa 0,0 l/m 5,3 km/h (1 Bft) NO 36 0 min 0,000 mm 0,0 UV-I 68 W/m -3,2 C -2,8 C 6,4 km/h (2 Bft) 100,00 %
01.02.2017 09:22 -2,8 C 97 % 1021,1 hPa 0,0 l/m 4,4 km/h (1 Bft) NO 44 0 min 0,000 mm 0,0 UV-I 62 W/m -3,2 C -2,8 C 6,4 km/h (2 Bft) 98,11 %
01.02.2017 09:24 -2,8 C 97 % 1021,0 hPa 0,0 l/m 4,6 km/h (1 Bft) NO 48 0 min 0,000 mm 0,0 UV-I 62 W/m -3,2 C -2,8 C 6,4 km/h (2 Bft) 100,00 %
01.02.2017 09:26 -2,8 C 97 % 1021,0 hPa 0,0 l/m 3,8 km/h (1 Bft) NO 54 0 min 0,000 mm 0,0 UV-I 64 W/m -3,2 C -2,8 C 4,8 km/h (1 Bft) 98,11 %
01.02.2017 09:28 -2,8 C 97 % 1021,0 hPa 0,0 l/m 5,0 km/h (1 Bft) O-NO 63 0 min 0,000 mm 0,0 UV-I 71 W/m -3,2 C -2,8 C 6,4 km/h (2 Bft) 100,00 %
01.02.2017 09:30 -2,8 C 97 % 1020,9 hPa 0,0 l/m 4,9 km/h (1 Bft) O-NO 68 0 min 0,000 mm 0,0 UV-I 81 W/m -3,2 C -2,8 C 6,4 km/h (2 Bft) 96,15 %
01.02.2017 09:32 -2,8 C 96 % 1021,0 hPa 0,0 l/m 3,3 km/h (1 Bft) NO 55 0 min 0,000 mm 0,0 UV-I 82 W/m -3,3 C -2,8 C 4,8 km/h (1 Bft) 98,59 %
01.02.2017 09:34 -2,8 C 96 % 1021,0 hPa 0,0 l/m 3,5 km/h (1 Bft) NO 49 0 min 0,000 mm 0,0 UV-I 82 W/m -3,3 C -2,8 C 4,8 km/h (1 Bft) 98,00 %
01.02.2017 09:36 -2,8 C 96 % 1020,9 hPa 0,0 l/m 3,7 km/h (1 Bft) NO 49 0 min 0,000 mm 0,0 UV-I 88 W/m -3,3 C -2,8 C 4,8 km/h (1 Bft) 97,87 %
01.02.2017 09:38 -2,8 C 97 % 1021,0 hPa 0,0 l/m 3,4 km/h (1 Bft) NO 56 0 min 0,000 mm 0,0 UV-I 97 W/m -3,2 C -2,8 C 4,8 km/h (1 Bft) 97,37 %
01.02.2017 09:40 -2,7 C 97 % 1021,0 hPa 0,0 l/m 3,2 km/h (1 Bft) NO 56 0 min 0,000 mm 0,0 UV-I 97 W/m -3,1 C -2,7 C 4,8 km/h (1 Bft) 94,34 %
01.02.2017 09:42 -2,7 C 97 % 1021,1 hPa 0,0 l/m 3,1 km/h (1 Bft) NO 55 0 min 0,000 mm 0,0 UV-I 97 W/m -3,1 C -2,7 C 4,8 km/h (1 Bft) 93,18 %
01.02.2017 09:44 -2,7 C 96 % 1021,1 hPa 0,0 l/m 2,8 km/h (1 Bft) N-NO 33 0 min 0,000 mm 0,0 UV-I 98 W/m -3,2 C -2,7 C 3,2 km/h (1 Bft) 98,15 %
01.02.2017 09:46 -2,6 C 96 % 1021,2 hPa 0,0 l/m 3,1 km/h (1 Bft) NO 45 0 min 0,000 mm 0,0 UV-I 93 W/m -3,1 C -2,6 C 4,8 km/h (1 Bft) 92,11 %
01.02.2017 09:48 -2,6 C 96 % 1021,2 hPa 0,0 l/m 2,5 km/h (1 Bft) NO 45 0 min 0,000 mm 0,0 UV-I 83 W/m -3,1 C -2,6 C 3,2 km/h (1 Bft) 98,11 %
01.02.2017 09:50 -2,6 C 96 % 1021,2 hPa 0,0 l/m 3,2 km/h (1 Bft) NO 51 0 min 0,000 mm 0,0 UV-I 84 W/m -3,1 C -2,6 C 4,8 km/h (1 Bft) 95,74 %
01.02.2017 09:52 -2,6 C 96 % 1021,1 hPa 0,0 l/m 4,1 km/h (1 Bft) O-NO 59 0 min 0,000 mm 0,0 UV-I 101 W/m -3,1 C -2,6 C 4,8 km/h (1 Bft) 96,00 %
01.02.2017 09:54 -2,6 C 96 % 1021,1 hPa 0,0 l/m 3,5 km/h (1 Bft) NO 56 0 min 0,000 mm 0,0 UV-I 105 W/m -3,1 C -2,6 C 4,8 km/h (1 Bft) 97,44 %
01.02.2017 09:56 -2,6 C 96 % 1021,2 hPa 0,0 l/m 4,0 km/h (1 Bft) O-NO 57 0 min 0,000 mm 0,0 UV-I 107 W/m -3,1 C -2,6 C 4,8 km/h (1 Bft) 94,34 %
01.02.2017 09:58 -2,6 C 96 % 1021,1 hPa 0,0 l/m 5,4 km/h (1 Bft) O-NO 59 0 min 0,000 mm 0,0 UV-I 117 W/m -3,1 C -2,6 C 8,0 km/h (2 Bft) 96,00 %
01.02.2017 10:00 -2,6 C 96 % 1021,1 hPa 0,0 l/m 5,1 km/h (1 Bft) NO 52 0 min 0,025 mm 0,0 UV-I 128 W/m -3,1 C -2,6 C 6,4 km/h (2 Bft) 95,45 %
01.02.2017 10:02 -2,5 C 96 % 1021,2 hPa 0,0 l/m 4,2 km/h (1 Bft) NO 55 0 min 0,000 mm 0,0 UV-I 131 W/m -3,0 C -2,5 C 6,4 km/h (2 Bft) 98,00 %
01.02.2017 10:04 -2,5 C 96 % 1021,1 hPa 0,0 l/m 5,4 km/h (1 Bft) O-NO 58 0 min 0,000 mm 0,0 UV-I 126 W/m -3,0 C -2,5 C 6,4 km/h (2 Bft) 97,14 %
01.02.2017 10:06 -2,4 C 96 % 1021,2 hPa 0,0 l/m 5,4 km/h (1 Bft) NO 56 0 min 0,000 mm 0,0 UV-I 121 W/m -2,9 C -2,4 C 8,0 km/h (2 Bft) 98,00 %
01.02.2017 10:08 -2,4 C 96 % 1021,2 hPa 0,0 l/m 4,7 km/h (1 Bft) O-NO 64 0 min 0,000 mm 0,0 UV-I 115 W/m -2,9 C -2,4 C 6,4 km/h (2 Bft) 95,74 %
01.02.2017 10:10 -2,4 C 96 % 1021,2 hPa 0,0 l/m 4,9 km/h (1 Bft) NO 55 0 min 0,000 mm 0,0 UV-I 118 W/m -2,9 C -2,4 C 6,4 km/h (2 Bft) 97,62 %
01.02.2017 10:12 -2,4 C 96 % 1021,2 hPa 0,0 l/m 5,1 km/h (1 Bft) O-NO 59 0 min 0,000 mm 0,0 UV-I 130 W/m -2,9 C -2,4 C 6,4 km/h (2 Bft) 96,36 %
01.02.2017 10:14 -2,3 C 96 % 1021,2 hPa 0,0 l/m 5,7 km/h (1 Bft) O-NO 64 0 min 0,000 mm 0,0 UV-I 134 W/m -2,8 C -2,3 C 6,4 km/h (2 Bft) 97,44 %
01.02.2017 10:16 -2,3 C 96 % 1021,3 hPa 0,0 l/m 4,2 km/h (1 Bft) NO 54 0 min 0,000 mm 0,0 UV-I 138 W/m -2,8 C -2,3 C 6,4 km/h (2 Bft) 96,23 %
01.02.2017 10:18 -2,3 C 96 % 1021,3 hPa 0,0 l/m 4,4 km/h (1 Bft) O-NO 57 0 min 0,000 mm 0,0 UV-I 148 W/m -2,8 C -2,3 C 6,4 km/h (2 Bft) 98,00 %
01.02.2017 10:20 -2,3 C 95 % 1021,3 hPa 0,0 l/m 4,8 km/h (1 Bft) NO 49 0 min 0,000 mm 0,4 UV-I 164 W/m -3,0 C -2,3 C 6,4 km/h (2 Bft) 100,00 %
01.02.2017 10:22 -2,3 C 95 % 1021,3 hPa 0,0 l/m 3,8 km/h (1 Bft) O-NO 61 0 min 0,000 mm 0,5 UV-I 172 W/m -3,0 C -2,3 C 4,8 km/h (1 Bft) 98,00 %
01.02.2017 10:24 -2,3 C 95 % 1021,3 hPa 0,0 l/m 4,0 km/h (1 Bft) NO 47 0 min 0,000 mm 0,1 UV-I 168 W/m -3,0 C -2,3 C 6,4 km/h (2 Bft) 100,00 %
01.02.2017 10:26 -2,3 C 95 % 1021,3 hPa 0,0 l/m 4,8 km/h (1 Bft) O-NO 59 0 min 0,000 mm 0,4 UV-I 176 W/m -3,0 C -2,3 C 6,4 km/h (2 Bft) 98,00 %
01.02.2017 10:28 -2,3 C 95 % 1021,1 hPa 0,0 l/m 6,3 km/h (2 Bft) NO 42 2 min 0,000 mm 0,5 UV-I 206 W/m -3,0 C -2,3 C 8,0 km/h (2 Bft) 100,00 %
01.02.2017 10:30 -2,3 C 95 % 1021,1 hPa 0,0 l/m 5,2 km/h (1 Bft) O-NO 62 2 min 0,000 mm 0,6 UV-I 213 W/m -3,0 C -2,3 C 8,0 km/h (2 Bft) 98,00 %
01.02.2017 10:32 -2,3 C 95 % 1021,2 hPa 0,0 l/m 5,3 km/h (1 Bft) O-NO 57 0 min 0,000 mm 0,5 UV-I 199 W/m -3,0 C -2,3 C 8,0 km/h (2 Bft) 97,37 %
01.02.2017 10:34 -2,3 C 95 % 1021,2 hPa 0,0 l/m 5,6 km/h (1 Bft) NO 53 0 min 0,000 mm 0,5 UV-I 180 W/m -3,0 C -2,3 C 8,0 km/h (2 Bft) 100,00 %
01.02.2017 10:36 -2,3 C 95 % 1021,2 hPa 0,0 l/m 5,2 km/h (1 Bft) NO 49 0 min 0,000 mm 0,5 UV-I 166 W/m -3,0 C -2,3 C 6,4 km/h (2 Bft) 97,87 %
01.02.2017 10:38 -2,3 C 95 % 1021,2 hPa 0,0 l/m 5,1 km/h (1 Bft) NO 55 0 min 0,000 mm 0,5 UV-I 157 W/m -3,0 C -2,3 C 6,4 km/h (2 Bft) 100,00 %
01.02.2017 10:40 -2,2 C 95 % 1021,2 hPa 0,0 l/m 4,7 km/h (1 Bft) NO 46 0 min 0,000 mm 0,5 UV-I 156 W/m -2,9 C -2,2 C 6,4 km/h (2 Bft) 100,00 %
01.02.2017 10:42 -2,2 C 95 % 1021,2 hPa 0,0 l/m 4,2 km/h (1 Bft) NO 47 0 min 0,000 mm 0,5 UV-I 154 W/m -2,9 C -2,2 C 4,8 km/h (1 Bft) 97,37 %
01.02.2017 10:44 -2,2 C 95 % 1021,2 hPa 0,0 l/m 2,6 km/h (1 Bft) NO 47 0 min 0,000 mm 0,5 UV-I 155 W/m -2,9 C -2,2 C 4,8 km/h (1 Bft) 98,00 %
01.02.2017 10:46 -2,1 C 95 % 1021,1 hPa 0,0 l/m 3,8 km/h (1 Bft) O-NO 65 0 min 0,000 mm 0,5 UV-I 152 W/m -2,8 C -2,1 C 6,4 km/h (2 Bft) 100,00 %
01.02.2017 10:48 -2,1 C 95 % 1021,1 hPa 0,0 l/m 5,5 km/h (1 Bft) O-NO 64 0 min 0,000 mm 0,6 UV-I 159 W/m -2,8 C -2,1 C 6,4 km/h (2 Bft) 95,74 %
01.02.2017 10:50 -2,1 C 95 % 1021,1 hPa 0,0 l/m 4,8 km/h (1 Bft) O-NO 59 0 min 0,000 mm 0,6 UV-I 165 W/m -2,8 C -2,1 C 6,4 km/h (2 Bft) 100,00 %
01.02.2017 10:52 -2,1 C 95 % 1021,1 hPa 0,0 l/m 3,5 km/h (1 Bft) O-NO 67 0 min 0,000 mm 0,6 UV-I 166 W/m -2,8 C -2,1 C 4,8 km/h (1 Bft) 97,92 %
01.02.2017 10:54 -2,0 C 95 % 1021,1 hPa 0,0 l/m 4,4 km/h (1 Bft) NO 55 0 min 0,000 mm 0,6 UV-I 164 W/m -2,7 C -2,0 C 4,8 km/h (1 Bft) 95,74 %
01.02.2017 10:56 -1,9 C 95 % 1021,1 hPa 0,0 l/m 3,9 km/h (1 Bft) O-NO 57 0 min 0,000 mm 0,5 UV-I 161 W/m -2,6 C -1,9 C 4,8 km/h (1 Bft) 100,00 %
01.02.2017 10:58 -1,9 C 95 % 1021,2 hPa 0,0 l/m 3,9 km/h (1 Bft) O-NO 57 0 min 0,000 mm 0,5 UV-I 160 W/m -2,6 C -1,9 C 6,4 km/h (2 Bft) 97,56 %
01.02.2017 11:00 -1,8 C 95 % 1021,3 hPa 0,0 l/m 3,3 km/h (1 Bft) O-NO 57 0 min 0,051 mm 0,5 UV-I 157 W/m -2,5 C -1,8 C 4,8 km/h (1 Bft) 100,00 %
01.02.2017 11:02 -1,8 C 95 % 1021,3 hPa 0,0 l/m 2,7 km/h (1 Bft) NO 55 0 min 0,000 mm 0,2 UV-I 138 W/m -2,5 C -1,8 C 4,8 km/h (1 Bft) 95,12 %
01.02.2017 11:04 -1,8 C 95 % 1021,3 hPa 0,0 l/m 3,3 km/h (1 Bft) NO 55 0 min 0,000 mm 0,0 UV-I 108 W/m -2,5 C -1,8 C 4,8 km/h (1 Bft) 96,00 %
01.02.2017 11:06 -1,8 C 95 % 1021,2 hPa 0,0 l/m 2,9 km/h (1 Bft) NO 55 0 min 0,000 mm 0,0 UV-I 104 W/m -2,5 C -1,8 C 4,8 km/h (1 Bft) 98,11 %
01.02.2017 11:08 -1,8 C 95 % 1021,2 hPa 0,0 l/m 2,9 km/h (1 Bft) NO 55 0 min 0,000 mm 0,0 UV-I 106 W/m -2,5 C -1,8 C 4,8 km/h (1 Bft) 97,37 %
01.02.2017 11:10 -1,7 C 95 % 1021,2 hPa 0,0 l/m 1,6 km/h (1 Bft) NO 55 0 min 0,000 mm 0,0 UV-I 106 W/m -2,4 C -1,7 C 3,2 km/h (1 Bft) 97,87 %
01.02.2017 11:12 -1,7 C 95 % 1021,2 hPa 0,0 l/m 1,2 km/h (1 Bft) NO 55 0 min 0,000 mm 0,4 UV-I 115 W/m -2,4 C -1,7 C 3,2 km/h (1 Bft) 100,00 %
01.02.2017 11:14 -1,7 C 95 % 1021,2 hPa 0,0 l/m 1,6 km/h (1 Bft) NO 55 0 min 0,000 mm 0,2 UV-I 116 W/m -2,4 C -1,7 C 3,2 km/h (1 Bft) 97,56 %
01.02.2017 11:16 -1,7 C 95 % 1021,2 hPa 0,0 l/m 2,1 km/h (1 Bft) NO 55 0 min 0,000 mm 0,0 UV-I 113 W/m -2,4 C -1,7 C 4,8 km/h (1 Bft) 100,00 %
01.02.2017 11:18 -1,6 C 96 % 1021,2 hPa 0,0 l/m 3,5 km/h (1 Bft) NO 42 0 min 0,000 mm 0,2 UV-I 116 W/m -2,2 C -1,6 C 4,8 km/h (1 Bft) 98,11 %
01.02.2017 11:20 -1,6 C 96 % 1021,1 hPa 0,0 l/m 4,0 km/h (1 Bft) NO 51 0 min 0,000 mm 0,5 UV-I 123 W/m -2,2 C -1,6 C 6,4 km/h (2 Bft) 100,00 %
01.02.2017 11:22 -1,6 C 95 % 1021,1 hPa 0,0 l/m 4,7 km/h (1 Bft) NO 38 0 min 0,000 mm 0,5 UV-I 130 W/m -2,3 C -1,6 C 6,4 km/h (2 Bft) 97,44 %
01.02.2017 11:24 -1,5 C 95 % 1021,1 hPa 0,0 l/m 4,6 km/h (1 Bft) NO 42 0 min 0,000 mm 0,5 UV-I 136 W/m -2,2 C -1,5 C 6,4 km/h (2 Bft) 93,44 %
01.02.2017 11:26 -1,5 C 95 % 1021,1 hPa 0,0 l/m 5,4 km/h (1 Bft) NO 38 0 min 0,000 mm 0,5 UV-I 139 W/m -2,2 C -1,5 C 6,4 km/h (2 Bft) 100,00 %
01.02.2017 11:28 -1,5 C 95 % 1021,0 hPa 0,0 l/m 4,0 km/h (1 Bft) NO 56 0 min 0,000 mm 0,5 UV-I 141 W/m -2,2 C -1,5 C 4,8 km/h (1 Bft) 98,00 %
01.02.2017 11:30 -1,4 C 95 % 1021,0 hPa 0,0 l/m 4,0 km/h (1 Bft) NO 52 0 min 0,000 mm 0,6 UV-I 147 W/m -2,1 C -1,4 C 4,8 km/h (1 Bft) 100,00 %
01.02.2017 11:32 -1,5 C 95 % 1020,9 hPa 0,0 l/m 4,7 km/h (1 Bft) NO 48 0 min 0,000 mm 0,6 UV-I 165 W/m -2,2 C -1,5 C 6,4 km/h (2 Bft) 98,00 %
01.02.2017 11:34 -1,4 C 95 % 1020,9 hPa 0,0 l/m 5,2 km/h (1 Bft) NO 51 0 min 0,000 mm 0,6 UV-I 172 W/m -2,1 C -1,4 C 8,0 km/h (2 Bft) 98,00 %
01.02.2017 11:36 -1,5 C 95 % 1020,8 hPa 0,0 l/m 5,0 km/h (1 Bft) NO 55 0 min 0,000 mm 0,7 UV-I 176 W/m -2,2 C -1,5 C 8,0 km/h (2 Bft) 97,56 %
01.02.2017 11:38 -1,4 C 95 % 1020,8 hPa 0,0 l/m 5,9 km/h (2 Bft) NO 54 0 min 0,000 mm 0,7 UV-I 175 W/m -2,1 C -1,4 C 8,0 km/h (2 Bft) 95,74 %
01.02.2017 11:40 -1,5 C 95 % 1020,8 hPa 0,0 l/m 6,9 km/h (2 Bft) NO 53 0 min 0,000 mm 0,6 UV-I 166 W/m -2,2 C -2,0 C 8,0 km/h (2 Bft) 96,23 %
01.02.2017 11:42 -1,4 C 95 % 1020,8 hPa 0,0 l/m 5,7 km/h (1 Bft) NO 53 0 min 0,000 mm 0,6 UV-I 154 W/m -2,1 C -1,4 C 8,0 km/h (2 Bft) 97,73 %
01.02.2017 11:44 -1,4 C 95 % 1020,9 hPa 0,0 l/m 5,2 km/h (1 Bft) NO 52 0 min 0,000 mm 0,5 UV-I 143 W/m -2,1 C -1,4 C 6,4 km/h (2 Bft) 98,11 %
01.02.2017 11:46 -1,4 C 95 % 1020,9 hPa 0,0 l/m 4,6 km/h (1 Bft) NO 52 0 min 0,000 mm 0,5 UV-I 135 W/m -2,1 C -1,4 C 6,4 km/h (2 Bft) 97,37 %
01.02.2017 11:48 -1,4 C 95 % 1020,9 hPa 0,0 l/m 4,8 km/h (1 Bft) O-NO 68 0 min 0,000 mm 0,5 UV-I 132 W/m -2,1 C -1,4 C 6,4 km/h (2 Bft) 97,87 %
01.02.2017 11:50 -1,4 C 95 % 1020,8 hPa 0,0 l/m 4,9 km/h (1 Bft) O-NO 66 0 min 0,000 mm 0,5 UV-I 131 W/m -2,1 C -1,4 C 6,4 km/h (2 Bft) 96,23 %
01.02.2017 11:52 -1,4 C 95 % 1020,8 hPa 0,0 l/m 5,9 km/h (2 Bft) O-NO 59 0 min 0,000 mm 0,5 UV-I 130 W/m -2,1 C -1,4 C 6,4 km/h (2 Bft) 98,00 %
01.02.2017 11:54 -1,4 C 95 % 1020,8 hPa 0,0 l/m 5,2 km/h (1 Bft) NO 53 0 min 0,000 mm 0,5 UV-I 131 W/m -2,1 C -1,4 C 6,4 km/h (2 Bft) 95,45 %
01.02.2017 11:56 -1,4 C 95 % 1020,7 hPa 0,0 l/m 5,4 km/h (1 Bft) O-NO 62 0 min 0,000 mm 0,5 UV-I 136 W/m -2,1 C -1,4 C 6,4 km/h (2 Bft) 97,37 %
01.02.2017 11:58 -1,4 C 95 % 1020,6 hPa 0,0 l/m 6,3 km/h (2 Bft) NO 52 0 min 0,000 mm 0,6 UV-I 137 W/m -2,1 C -1,4 C 8,0 km/h (2 Bft) 94,00 %
01.02.2017 12:00 -1,4 C 95 % 1020,7 hPa 0,0 l/m 6,5 km/h (2 Bft) NO 46 0 min 0,051 mm 0,5 UV-I 134 W/m -2,1 C -1,5 C 8,0 km/h (2 Bft) 97,73 %
01.02.2017 12:02 -1,4 C 95 % 1020,6 hPa 0,0 l/m 5,4 km/h (1 Bft) NO 55 0 min 0,000 mm 0,5 UV-I 130 W/m -2,1 C -1,4 C 6,4 km/h (2 Bft) 97,87 %
01.02.2017 12:04 -1,4 C 95 % 1020,7 hPa 0,0 l/m 6,1 km/h (2 Bft) NO 47 0 min 0,000 mm 0,5 UV-I 128 W/m -2,1 C -1,4 C 8,0 km/h (2 Bft) 92,00 %
01.02.2017 12:06 -1,4 C 95 % 1020,6 hPa 0,0 l/m 5,8 km/h (2 Bft) O-NO 61 0 min 0,000 mm 0,5 UV-I 129 W/m -2,1 C -1,4 C 8,0 km/h (2 Bft) 93,18 %
01.02.2017 12:08 -1,4 C 95 % 1020,6 hPa 0,0 l/m 6,1 km/h (2 Bft) O-NO 60 0 min 0,000 mm 0,5 UV-I 132 W/m -2,1 C -1,4 C 8,0 km/h (2 Bft) 96,23 %
01.02.2017 12:10 -1,4 C 95 % 1020,6 hPa 0,0 l/m 5,6 km/h (1 Bft) O-NO 59 0 min 0,000 mm 0,5 UV-I 134 W/m -2,1 C -1,4 C 8,0 km/h (2 Bft) 97,62 %
01.02.2017 12:12 -1,4 C 95 % 1020,5 hPa 0,0 l/m 4,8 km/h (1 Bft) NO 53 0 min 0,000 mm 0,6 UV-I 138 W/m -2,1 C -1,4 C 6,4 km/h (2 Bft) 98,18 %
01.02.2017 12:14 -1,4 C 95 % 1020,5 hPa 0,0 l/m 5,5 km/h (1 Bft) O-NO 60 0 min 0,000 mm 0,5 UV-I 135 W/m -2,1 C -1,4 C 6,4 km/h (2 Bft) 94,87 %
01.02.2017 12:16 -1,4 C 95 % 1020,5 hPa 0,0 l/m 4,4 km/h (1 Bft) NO 48 0 min 0,000 mm 0,5 UV-I 134 W/m -2,1 C -1,4 C 6,4 km/h (2 Bft) 96,00 %
01.02.2017 12:18 -1,4 C 95 % 1020,5 hPa 0,0 l/m 4,8 km/h (1 Bft) NO 41 0 min 0,000 mm 0,6 UV-I 139 W/m -2,1 C -1,4 C 6,4 km/h (2 Bft) 94,00 %
01.02.2017 12:20 -1,4 C 95 % 1020,4 hPa 0,0 l/m 5,8 km/h (2 Bft) NO 49 0 min 0,000 mm 0,6 UV-I 150 W/m -2,1 C -1,4 C 8,0 km/h (2 Bft) 100,00 %
01.02.2017 12:22 -1,3 C 95 % 1020,4 hPa 0,0 l/m 5,1 km/h (1 Bft) NO 40 0 min 0,000 mm 0,6 UV-I 147 W/m -2,0 C -1,3 C 8,0 km/h (2 Bft) 100,00 %
01.02.2017 12:24 -1,3 C 95 % 1020,4 hPa 0,0 l/m 4,9 km/h (1 Bft) NO 51 0 min 0,000 mm 0,6 UV-I 144 W/m -2,0 C -1,3 C 6,4 km/h (2 Bft) 94,64 %
01.02.2017 12:26 -1,3 C 95 % 1020,4 hPa 0,0 l/m 4,4 km/h (1 Bft) NO 37 0 min 0,000 mm 0,6 UV-I 142 W/m -2,0 C -1,3 C 6,4 km/h (2 Bft) 92,31 %
01.02.2017 12:28 -1,3 C 95 % 1020,4 hPa 0,0 l/m 4,3 km/h (1 Bft) NO 51 0 min 0,000 mm 0,6 UV-I 141 W/m -2,0 C -1,3 C 6,4 km/h (2 Bft) 98,46 %
01.02.2017 12:30 -1,3 C 95 % 1020,4 hPa 0,0 l/m 4,7 km/h (1 Bft) NO 48 0 min 0,000 mm 0,5 UV-I 136 W/m -2,0 C -1,3 C 6,4 km/h (2 Bft) 100,00 %
01.02.2017 12:32 -1,3 C 95 % 1020,4 hPa 0,0 l/m 4,5 km/h (1 Bft) NO 53 0 min 0,000 mm 0,5 UV-I 134 W/m -2,0 C -1,3 C 8,0 km/h (2 Bft) 94,29 %
01.02.2017 12:34 -1,3 C 95 % 1020,4 hPa 0,0 l/m 5,0 km/h (1 Bft) O-NO 57 0 min 0,000 mm 0,6 UV-I 137 W/m -2,0 C -1,3 C 6,4 km/h (2 Bft) 92,86 %
01.02.2017 12:36 -1,3 C 95 % 1020,4 hPa 0,0 l/m 5,8 km/h (2 Bft) NO 46 0 min 0,000 mm 0,6 UV-I 141 W/m -2,0 C -1,3 C 8,0 km/h (2 Bft) 100,00 %
01.02.2017 12:38 -1,3 C 95 % 1020,3 hPa 0,0 l/m 4,8 km/h (1 Bft) NO 49 0 min 0,000 mm 0,6 UV-I 141 W/m -2,0 C -1,3 C 6,4 km/h (2 Bft) 98,00 %
01.02.2017 12:40 -1,3 C 95 % 1020,4 hPa 0,0 l/m 5,5 km/h (1 Bft) NO 42 0 min 0,000 mm 0,5 UV-I 136 W/m -2,0 C -1,3 C 8,0 km/h (2 Bft) 97,56 %
01.02.2017 12:42 -1,2 C 95 % 1020,3 hPa 0,0 l/m 4,2 km/h (1 Bft) O-NO 58 0 min 0,000 mm 0,5 UV-I 129 W/m -1,9 C -1,2 C 4,8 km/h (1 Bft) 92,00 %
01.02.2017 12:44 -1,3 C 95 % 1020,3 hPa 0,0 l/m 5,0 km/h (1 Bft) NO 56 0 min 0,000 mm 0,5 UV-I 125 W/m -2,0 C -1,3 C 6,4 km/h (2 Bft) 98,00 %
01.02.2017 12:46 -1,2 C 95 % 1020,3 hPa 0,0 l/m 5,6 km/h (1 Bft) O 80 0 min 0,000 mm 0,5 UV-I 129 W/m -1,9 C -1,2 C 8,0 km/h (2 Bft) 94,34 %
01.02.2017 12:48 -1,2 C 95 % 1020,3 hPa 0,0 l/m 6,5 km/h (2 Bft) O-NO 72 0 min 0,000 mm 0,5 UV-I 140 W/m -1,9 C -1,3 C 8,0 km/h (2 Bft) 97,73 %
01.02.2017 12:50 -1,3 C 95 % 1020,3 hPa 0,0 l/m 7,0 km/h (2 Bft) O-NO 62 0 min 0,000 mm 0,5 UV-I 136 W/m -2,0 C -1,9 C 8,0 km/h (2 Bft) 100,00 %
01.02.2017 12:52 -1,3 C 95 % 1020,3 hPa 0,0 l/m 6,2 km/h (2 Bft) NO 52 0 min 0,000 mm 0,5 UV-I 129 W/m -2,0 C -1,3 C 8,0 km/h (2 Bft) 96,30 %
01.02.2017 12:54 -1,3 C 95 % 1020,3 hPa 0,0 l/m 6,4 km/h (2 Bft) NO 56 0 min 0,000 mm 0,5 UV-I 127 W/m -2,0 C -1,3 C 8,0 km/h (2 Bft) 98,21 %
01.02.2017 12:56 -1,3 C 95 % 1020,3 hPa 0,0 l/m 5,1 km/h (1 Bft) O-NO 62 0 min 0,000 mm 0,5 UV-I 123 W/m -2,0 C -1,3 C 6,4 km/h (2 Bft) 94,34 %
01.02.2017 12:58 -1,3 C 95 % 1020,2 hPa 0,0 l/m 7,1 km/h (2 Bft) O-NO 61 0 min 0,000 mm 0,5 UV-I 127 W/m -2,0 C -2,1 C 8,0 km/h (2 Bft) 100,00 %
01.02.2017 13:00 -1,3 C 95 % 1020,1 hPa 0,0 l/m 6,6 km/h (2 Bft) NO 55 0 min 0,051 mm 0,5 UV-I 121 W/m -2,0 C -1,5 C 8,0 km/h (2 Bft) 98,00 %
01.02.2017 13:02 -1,3 C 95 % 1020,1 hPa 0,0 l/m 5,2 km/h (1 Bft) NO 53 0 min 0,000 mm 0,2 UV-I 108 W/m -2,0 C -1,3 C 6,4 km/h (2 Bft) 96,00 %
01.02.2017 13:04 -1,3 C 95 % 1020,2 hPa 0,0 l/m 4,3 km/h (1 Bft) NO 49 0 min 0,000 mm 0,0 UV-I 105 W/m -2,0 C -1,3 C 6,4 km/h (2 Bft) 100,00 %
01.02.2017 13:06 -1,3 C 95 % 1020,1 hPa 0,0 l/m 5,3 km/h (1 Bft) N-NO 32 0 min 0,000 mm 0,0 UV-I 108 W/m -2,0 C -1,3 C 6,4 km/h (2 Bft) 96,00 %
01.02.2017 13:08 -1,3 C 95 % 1020,1 hPa 0,0 l/m 5,4 km/h (1 Bft) O-NO 57 0 min 0,000 mm 0,2 UV-I 111 W/m -2,0 C -1,3 C 8,0 km/h (2 Bft) 97,73 %
01.02.2017 13:10 -1,3 C 95 % 1020,1 hPa 0,0 l/m 5,0 km/h (1 Bft) N-NO 22 0 min 0,000 mm 0,5 UV-I 114 W/m -2,0 C -1,3 C 8,0 km/h (2 Bft) 96,00 %
01.02.2017 13:12 -1,2 C 95 % 1020,0 hPa 0,0 l/m 5,0 km/h (1 Bft) N-NO 24 0 min 0,000 mm 0,5 UV-I 113 W/m -1,9 C -1,2 C 6,4 km/h (2 Bft) 100,00 %
01.02.2017 13:14 -1,2 C 95 % 1020,0 hPa 0,0 l/m 4,1 km/h (1 Bft) NO 46 0 min 0,000 mm 0,3 UV-I 113 W/m -1,9 C -1,2 C 4,8 km/h (1 Bft) 98,11 %
01.02.2017 13:16 -1,2 C 95 % 1019,9 hPa 0,0 l/m 4,1 km/h (1 Bft) NO 40 0 min 0,000 mm 0,0 UV-I 110 W/m -1,9 C -1,2 C 6,4 km/h (2 Bft) 100,00 %
01.02.2017 13:18 -1,2 C 95 % 1019,9 hPa 0,0 l/m 4,2 km/h (1 Bft) NO 42 0 min 0,000 mm 0,0 UV-I 106 W/m -1,9 C -1,2 C 6,4 km/h (2 Bft) 98,00 %
01.02.2017 13:20 -1,2 C 95 % 1019,9 hPa 0,0 l/m 5,3 km/h (1 Bft) NO 37 0 min 0,000 mm 0,0 UV-I 111 W/m -1,9 C -1,2 C 6,4 km/h (2 Bft) 98,00 %
01.02.2017 13:23 -1,2 C 95 % 1019,8 hPa 0,0 l/m 5,2 km/h (1 Bft) N-NO 16 0 min 0,000 mm 0,0 UV-I 110 W/m -1,9 C -1,2 C 8,0 km/h (2 Bft) 100,00 %
01.02.2017 13:24 -1,2 C 96 % 1019,8 hPa 0,0 l/m 5,0 km/h (1 Bft) N-NO 19 0 min 0,000 mm 0,0 UV-I 111 W/m -1,8 C -1,2 C 6,4 km/h (2 Bft) 97,37 %
01.02.2017 13:25 -1,2 C 96 % 1019,8 hPa 0,0 l/m 4,8 km/h (1 Bft) N-NO 22 0 min 0,000 mm 0,1 UV-I 111 W/m -1,8 C -1,2 C 8,0 km/h (2 Bft) 99,12 %
01.02.2017 13:26 -1,2 C 96 % 1019,7 hPa 0,0 l/m 3,0 km/h (1 Bft) N-NO 22 0 min 0,000 mm 0,4 UV-I 115 W/m -1,8 C -1,2 C 4,8 km/h (1 Bft) 100,00 %
01.02.2017 13:28 -1,2 C 96 % 1019,7 hPa 0,0 l/m 3,1 km/h (1 Bft) NO 35 0 min 0,000 mm 0,5 UV-I 119 W/m -1,8 C -1,2 C 4,8 km/h (1 Bft) 100,00 %
01.02.2017 13:30 -1,2 C 96 % 1019,6 hPa 0,0 l/m 4,3 km/h (1 Bft) NO 50 0 min 0,000 mm 0,5 UV-I 117 W/m -1,8 C -1,2 C 6,4 km/h (2 Bft) 97,14 %
01.02.2017 13:32 -1,2 C 96 % 1019,6 hPa 0,0 l/m 4,2 km/h (1 Bft) O-NO 59 0 min 0,000 mm 0,5 UV-I 128 W/m -1,8 C -1,2 C 4,8 km/h (1 Bft) 96,00 %
01.02.2017 13:34 -1,2 C 96 % 1019,6 hPa 0,0 l/m 3,9 km/h (1 Bft) O-NO 57 0 min 0,000 mm 0,5 UV-I 122 W/m -1,8 C -1,2 C 4,8 km/h (1 Bft) 95,45 %
01.02.2017 13:36 -1,2 C 96 % 1019,6 hPa 0,0 l/m 3,5 km/h (1 Bft) O-NO 57 0 min 0,000 mm 0,5 UV-I 118 W/m -1,8 C -1,2 C 4,8 km/h (1 Bft) 98,00 %
01.02.2017 13:38 -1,2 C 96 % 1019,6 hPa 0,0 l/m 3,7 km/h (1 Bft) O-NO 65 0 min 0,000 mm 0,5 UV-I 130 W/m -1,8 C -1,2 C 4,8 km/h (1 Bft) 96,23 %
01.02.2017 13:40 -1,2 C 96 % 1019,6 hPa 0,0 l/m 2,7 km/h (1 Bft) O-NO 65 0 min 0,000 mm 0,5 UV-I 124 W/m -1,8 C -1,2 C 4,8 km/h (1 Bft) 95,12 %
01.02.2017 13:42 -1,2 C 96 % 1019,7 hPa 0,0 l/m 2,6 km/h (1 Bft) NO 52 0 min 0,000 mm 0,2 UV-I 116 W/m -1,8 C -1,2 C 4,8 km/h (1 Bft) 97,87 %
01.02.2017 13:44 -1,2 C 95 % 1019,7 hPa 0,0 l/m 3,2 km/h (1 Bft) N-NO 33 0 min 0,000 mm 0,0 UV-I 113 W/m -1,9 C -1,2 C 6,4 km/h (2 Bft) 93,62 %
01.02.2017 13:46 -1,1 C 95 % 1019,7 hPa 0,0 l/m 3,7 km/h (1 Bft) NO 34 0 min 0,000 mm 0,0 UV-I 113 W/m -1,8 C -1,1 C 4,8 km/h (1 Bft) 98,11 %
01.02.2017 13:48 -1,2 C 95 % 1019,6 hPa 0,0 l/m 3,7 km/h (1 Bft) NO 40 0 min 0,000 mm 0,0 UV-I 111 W/m -1,9 C -1,2 C 4,8 km/h (1 Bft) 95,24 %
01.02.2017 13:50 -1,2 C 95 % 1019,7 hPa 0,0 l/m 1,5 km/h (1 Bft) NO 40 0 min 0,000 mm 0,0 UV-I 101 W/m -1,9 C -1,2 C 3,2 km/h (1 Bft) 96,00 %
01.02.2017 13:52 -1,2 C 95 % 1019,7 hPa 0,0 l/m 2,8 km/h (1 Bft) NO 40 0 min 0,000 mm 0,0 UV-I 95 W/m -1,9 C -1,2 C 4,8 km/h (1 Bft) 97,37 %
01.02.2017 13:54 -1,2 C 95 % 1019,6 hPa 0,0 l/m 3,7 km/h (1 Bft) NO 46 0 min 0,000 mm 0,0 UV-I 101 W/m -1,9 C -1,2 C 4,8 km/h (1 Bft) 96,00 %
01.02.2017 13:56 -1,2 C 95 % 1019,6 hPa 0,0 l/m 2,3 km/h (1 Bft) NO 46 0 min 0,000 mm 0,0 UV-I 90 W/m -1,9 C -1,2 C 4,8 km/h (1 Bft) 98,00 %
01.02.2017 13:58 -1,2 C 95 % 1019,7 hPa 0,0 l/m 0,2 km/h (0 Bft) NO 46 0 min 0,000 mm 0,0 UV-I 80 W/m -1,9 C -1,2 C 1,6 km/h (1 Bft) 94,00 %
01.02.2017 14:00 -1,2 C 95 % 1019,6 hPa 0,0 l/m 3,3 km/h (1 Bft) NO 47 0 min 0,000 mm 0,0 UV-I 89 W/m -1,9 C -1,2 C 4,8 km/h (1 Bft) 100,00 %
01.02.2017 14:02 -1,2 C 95 % 1019,5 hPa 0,0 l/m 3,4 km/h (1 Bft) NO 47 0 min 0,025 mm 0,0 UV-I 101 W/m -1,9 C -1,2 C 4,8 km/h (1 Bft) 94,34 %
01.02.2017 14:04 -1,2 C 95 % 1019,6 hPa 0,0 l/m 1,1 km/h (1 Bft) NO 47 0 min 0,000 mm 0,0 UV-I 81 W/m -1,9 C -1,2 C 3,2 km/h (1 Bft) 96,00 %
01.02.2017 14:06 -1,1 C 95 % 1019,6 hPa 0,0 l/m 0,0 km/h (0 Bft) NO 38 0 min 0,000 mm 0,0 UV-I 59 W/m -1,8 C -1,1 C 0,0 km/h (0 Bft) 96,00 %
01.02.2017 14:08 -1,1 C 95 % 1019,6 hPa 0,0 l/m 2,6 km/h (1 Bft) NO 38 0 min 0,000 mm 0,0 UV-I 65 W/m -1,8 C -1,1 C 4,8 km/h (1 Bft) 100,00 %
01.02.2017 14:10 -1,1 C 95 % 1019,5 hPa 0,0 l/m 3,9 km/h (1 Bft) NO 41 0 min 0,000 mm 0,0 UV-I 80 W/m -1,8 C -1,1 C 4,8 km/h (1 Bft) 97,37 %
01.02.2017 14:12 -1,1 C 95 % 1019,5 hPa 0,0 l/m 1,6 km/h (1 Bft) NO 46 0 min 0,000 mm 0,0 UV-I 71 W/m -1,8 C -1,1 C 1,6 km/h (1 Bft) 100,00 %
01.02.2017 14:14 -1,2 C 95 % 1019,5 hPa 0,0 l/m 1,9 km/h (1 Bft) NO 40 0 min 0,000 mm 0,0 UV-I 60 W/m -1,9 C -1,2 C 3,2 km/h (1 Bft) 94,74 %
01.02.2017 14:16 -1,1 C 95 % 1019,5 hPa 0,0 l/m 3,2 km/h (1 Bft) NO 40 0 min 0,000 mm 0,0 UV-I 65 W/m -1,8 C -1,1 C 4,8 km/h (1 Bft) 96,23 %
01.02.2017 14:18 -1,1 C 95 % 1019,4 hPa 0,0 l/m 4,0 km/h (1 Bft) NO 46 0 min 0,000 mm 0,0 UV-I 72 W/m -1,8 C -1,1 C 4,8 km/h (1 Bft) 98,00 %
01.02.2017 14:20 -1,1 C 95 % 1019,3 hPa 0,0 l/m 4,2 km/h (1 Bft) NO 43 0 min 0,000 mm 0,0 UV-I 70 W/m -1,8 C -1,1 C 6,4 km/h (2 Bft) 90,24 %
01.02.2017 14:22 -1,1 C 95 % 1019,3 hPa 0,0 l/m 2,5 km/h (1 Bft) NO 38 0 min 0,000 mm 0,0 UV-I 64 W/m -1,8 C -1,1 C 3,2 km/h (1 Bft) 96,00 %
01.02.2017 14:24 -1,1 C 95 % 1019,4 hPa 0,0 l/m 1,4 km/h (1 Bft) N-NO 30 0 min 0,000 mm 0,0 UV-I 57 W/m -1,8 C -1,1 C 3,2 km/h (1 Bft) 91,49 %
01.02.2017 14:26 -1,1 C 95 % 1019,4 hPa 0,0 l/m 2,2 km/h (1 Bft) N-NO 30 0 min 0,000 mm 0,0 UV-I 54 W/m -1,8 C -1,1 C 3,2 km/h (1 Bft) 96,00 %
01.02.2017 14:28 -1,1 C 96 % 1019,4 hPa 0,0 l/m 2,3 km/h (1 Bft) N-NO 30 0 min 0,000 mm 0,0 UV-I 55 W/m -1,7 C -1,1 C 3,2 km/h (1 Bft) 97,87 %
01.02.2017 14:30 -1,1 C 96 % 1019,4 hPa 0,0 l/m 3,3 km/h (1 Bft) N-NO 30 0 min 0,000 mm 0,0 UV-I 58 W/m -1,7 C -1,1 C 4,8 km/h (1 Bft) 97,87 %
01.02.2017 14:32 -1,1 C 96 % 1019,4 hPa 0,0 l/m 1,3 km/h (1 Bft) N-NO 22 0 min 0,000 mm 0,0 UV-I 55 W/m -1,7 C -1,1 C 4,8 km/h (1 Bft) 100,00 %
01.02.2017 14:34 -1,1 C 96 % 1019,5 hPa 0,0 l/m 0,0 km/h (0 Bft) N-NO 20 0 min 0,000 mm 0,0 UV-I 50 W/m -1,7 C -1,1 C 0,0 km/h (0 Bft) 97,87 %
01.02.2017 14:36 -1,1 C 96 % 1019,5 hPa 0,0 l/m 2,4 km/h (1 Bft) N-NO 19 0 min 0,000 mm 0,0 UV-I 50 W/m -1,7 C -1,1 C 4,8 km/h (1 Bft) 94,87 %
01.02.2017 14:38 -1,1 C 96 % 1019,4 hPa 0,0 l/m 1,1 km/h (1 Bft) N-NO 19 0 min 0,000 mm 0,0 UV-I 53 W/m -1,7 C -1,1 C 3,2 km/h (1 Bft) 95,74 %
01.02.2017 14:40 -1,1 C 96 % 1019,4 hPa 0,0 l/m 0,0 km/h (0 Bft) N-NO 16 0 min 0,000 mm 0,0 UV-I 53 W/m -1,7 C -1,1 C 1,6 km/h (1 Bft) 94,00 %
01.02.2017 14:42 -1,1 C 96 % 1019,5 hPa 0,0 l/m 0,1 km/h (0 Bft) N 360 0 min 0,000 mm 0,0 UV-I 51 W/m -1,7 C -1,1 C 1,6 km/h (1 Bft) 100,00 %
01.02.2017 14:44 -1,1 C 96 % 1019,4 hPa 0,0 l/m 0,1 km/h (0 Bft) N 360 0 min 0,000 mm 0,0 UV-I 51 W/m -1,7 C -1,1 C 1,6 km/h (1 Bft) 96,77 %
01.02.2017 14:46 -1,2 C 96 % 1019,4 hPa 0,0 l/m 0,0 km/h (0 Bft) N 5 0 min 0,000 mm 0,0 UV-I 51 W/m -1,8 C -1,2 C 1,6 km/h (1 Bft) 97,87 %
01.02.2017 14:48 -1,2 C 96 % 1019,5 hPa 0,0 l/m 0,1 km/h (0 Bft) N 9 0 min 0,000 mm 0,0 UV-I 53 W/m -1,8 C -1,2 C 1,6 km/h (1 Bft) 95,74 %
01.02.2017 14:50 -1,2 C 96 % 1019,5 hPa 0,0 l/m 0,0 km/h (0 Bft) N 9 0 min 0,000 mm 0,0 UV-I 50 W/m -1,8 C -1,2 C 0,0 km/h (0 Bft) 100,00 %
01.02.2017 14:52 -1,1 C 96 % 1019,5 hPa 0,0 l/m 1,2 km/h (1 Bft) N 9 0 min 0,000 mm 0,0 UV-I 47 W/m -1,7 C -1,1 C 3,2 km/h (1 Bft) 97,87 %
01.02.2017 14:54 -1,1 C 96 % 1019,4 hPa 0,0 l/m 0,8 km/h (0 Bft) N 5 0 min 0,000 mm 0,0 UV-I 46 W/m -1,7 C -1,1 C 3,2 km/h (1 Bft) 98,11 %
01.02.2017 14:55 -1,1 C 96 % 1019,4 hPa 0,0 l/m 1,6 km/h (1 Bft) N 360 0 min 0,000 mm 0,0 UV-I 45 W/m -1,7 C -1,1 C 3,2 km/h (1 Bft) 99,12 %
01.02.2017 15:00 -1,1 C 96 % 1019,6 hPa 0,0 l/m 0,0 km/h (0 Bft) N-NW 337 0 min 0,025 mm 0,0 UV-I 35 W/m -1,7 C -1,1 C 3,2 km/h (1 Bft) 99,12 %
01.02.2017 15:04 -1,1 C 96 % 1019,5 hPa 0,0 l/m 1,0 km/h (0 Bft) N 11 0 min 0,001 mm 0,0 UV-I 38 W/m -1,7 C -1,1 C 3,2 km/h (1 Bft) 98,70 %
01.02.2017 15:06 -1,1 C 96 % 1019,5 hPa 0,0 l/m 0,2 km/h (0 Bft) N 360 0 min 0,000 mm 0,0 UV-I 32 W/m -1,7 C -1,1 C 1,6 km/h (1 Bft) 100,00 %
01.02.2017 15:08 -1,1 C 96 % 1019,5 hPa 0,0 l/m 1,0 km/h (0 Bft) NW 324 0 min 0,000 mm 0,0 UV-I 33 W/m -1,7 C -1,1 C 3,2 km/h (1 Bft) 100,00 %
01.02.2017 15:10 -1,1 C 96 % 1019,5 hPa 0,0 l/m 1,4 km/h (1 Bft) N-NW 329 0 min 0,000 mm 0,0 UV-I 34 W/m -1,7 C -1,1 C 4,8 km/h (1 Bft) 100,00 %
01.02.2017 15:12 -1,1 C 96 % 1019,6 hPa 0,0 l/m 0,8 km/h (0 Bft) N 360 0 min 0,000 mm 0,0 UV-I 33 W/m -1,7 C -1,1 C 1,6 km/h (1 Bft) 100,00 %
01.02.2017 15:14 -1,1 C 96 % 1019,5 hPa 0,0 l/m 1,3 km/h (1 Bft) N 9 0 min 0,000 mm 0,0 UV-I 35 W/m -1,7 C -1,1 C 3,2 km/h (1 Bft) 100,00 %
01.02.2017 15:16 -1,1 C 96 % 1019,5 hPa 0,0 l/m 2,1 km/h (1 Bft) N-NO 30 0 min 0,000 mm 0,0 UV-I 39 W/m -1,7 C -1,1 C 4,8 km/h (1 Bft) 100,00 %
01.02.2017 15:18 -1,2 C 96 % 1019,5 hPa 0,0 l/m 1,7 km/h (1 Bft) NO 36 0 min 0,000 mm 0,0 UV-I 43 W/m -1,8 C -1,2 C 3,2 km/h (1 Bft) 100,00 %
01.02.2017 15:20 -1,1 C 96 % 1019,5 hPa 0,0 l/m 1,5 km/h (1 Bft) N-NW 333 0 min 0,000 mm 0,0 UV-I 35 W/m -1,7 C -1,1 C 3,2 km/h (1 Bft) 100,00 %
01.02.2017 15:22 -1,2 C 96 % 1019,6 hPa 0,0 l/m 2,0 km/h (1 Bft) N-NO 28 0 min 0,000 mm 0,0 UV-I 30 W/m -1,8 C -1,2 C 4,8 km/h (1 Bft) 100,00 %
01.02.2017 15:24 -1,2 C 96 % 1019,6 hPa 0,0 l/m 0,1 km/h (0 Bft) N-NO 20 0 min 0,000 mm 0,0 UV-I 32 W/m -1,8 C -1,2 C 1,6 km/h (1 Bft) 94,29 %
01.02.2017 15:26 -1,2 C 96 % 1019,6 hPa 0,0 l/m 1,9 km/h (1 Bft) N-NO 20 0 min 0,000 mm 0,0 UV-I 33 W/m -1,8 C -1,2 C 4,8 km/h (1 Bft) 100,00 %
01.02.2017 15:28 -1,2 C 96 % 1019,6 hPa 0,0 l/m 3,3 km/h (1 Bft) N-NO 26 0 min 0,000 mm 0,0 UV-I 34 W/m -1,8 C -1,2 C 4,8 km/h (1 Bft) 100,00 %
01.02.2017 15:30 -1,2 C 96 % 1019,6 hPa 0,0 l/m 1,9 km/h (1 Bft) N-NO 26 0 min 0,000 mm 0,0 UV-I 31 W/m -1,8 C -1,2 C 3,2 km/h (1 Bft) 100,00 %
01.02.2017 15:32 -1,2 C 96 % 1019,6 hPa 0,0 l/m 1,4 km/h (1 Bft) N-NO 26 0 min 0,000 mm 0,0 UV-I 31 W/m -1,8 C -1,2 C 3,2 km/h (1 Bft) 98,08 %
01.02.2017 15:34 -1,2 C 96 % 1019,5 hPa 0,0 l/m 1,3 km/h (1 Bft) N-NO 26 0 min 0,000 mm 0,0 UV-I 32 W/m -1,8 C -1,2 C 3,2 km/h (1 Bft) 100,00 %
01.02.2017 15:36 -1,1 C 96 % 1019,6 hPa 0,0 l/m 1,0 km/h (0 Bft) N-NO 26 0 min 0,000 mm 0,0 UV-I 32 W/m -1,7 C -1,1 C 3,2 km/h (1 Bft) 97,87 %
01.02.2017 15:38 -1,1 C 96 % 1019,5 hPa 0,0 l/m 1,2 km/h (1 Bft) N-NO 22 0 min 0,000 mm 0,0 UV-I 32 W/m -1,7 C -1,1 C 3,2 km/h (1 Bft) 97,56 %
01.02.2017 15:40 -1,1 C 96 % 1019,5 hPa 0,0 l/m 1,7 km/h (1 Bft) N-NO 22 0 min 0,000 mm 0,0 UV-I 35 W/m -1,7 C -1,1 C 3,2 km/h (1 Bft) 98,00 %
01.02.2017 15:42 -1,1 C 96 % 1019,5 hPa 0,0 l/m 0,8 km/h (0 Bft) N-NO 20 0 min 0,000 mm 0,0 UV-I 37 W/m -1,7 C -1,1 C 3,2 km/h (1 Bft) 97,73 %
01.02.2017 15:44 -1,1 C 96 % 1019,5 hPa 0,0 l/m 0,4 km/h (0 Bft) N-NO 20 0 min 0,000 mm 0,0 UV-I 39 W/m -1,7 C -1,1 C 1,6 km/h (1 Bft) 95,74 %
01.02.2017 15:46 -1,1 C 96 % 1019,4 hPa 0,0 l/m 2,7 km/h (1 Bft) N-NO 20 0 min 0,000 mm 0,0 UV-I 42 W/m -1,7 C -1,1 C 4,8 km/h (1 Bft) 96,00 %
01.02.2017 15:48 -1,1 C 96 % 1019,5 hPa 0,0 l/m 3,4 km/h (1 Bft) N-NO 31 0 min 0,000 mm 0,0 UV-I 45 W/m -1,7 C -1,1 C 4,8 km/h (1 Bft) 97,56 %
01.02.2017 15:50 -1,1 C 96 % 1019,4 hPa 0,0 l/m 3,7 km/h (1 Bft) N-NO 32 0 min 0,000 mm 0,0 UV-I 46 W/m -1,7 C -1,1 C 4,8 km/h (1 Bft) 98,00 %
01.02.2017 15:52 -1,1 C 96 % 1019,5 hPa 0,0 l/m 3,2 km/h (1 Bft) N-NO 32 0 min 0,000 mm 0,0 UV-I 45 W/m -1,7 C -1,1 C 4,8 km/h (1 Bft) 95,74 %
01.02.2017 15:54 -1,1 C 96 % 1019,4 hPa 0,0 l/m 3,2 km/h (1 Bft) NO 53 0 min 0,000 mm 0,0 UV-I 42 W/m -1,7 C -1,1 C 4,8 km/h (1 Bft) 98,00 %
01.02.2017 15:56 -1,1 C 96 % 1019,4 hPa 0,0 l/m 3,6 km/h (1 Bft) NO 52 0 min 0,000 mm 0,0 UV-I 39 W/m -1,7 C -1,1 C 4,8 km/h (1 Bft) 97,37 %
01.02.2017 15:58 -1,1 C 96 % 1019,4 hPa 0,0 l/m 3,7 km/h (1 Bft) NO 50 0 min 0,000 mm 0,0 UV-I 39 W/m -1,7 C -1,1 C 4,8 km/h (1 Bft) 98,11 %
01.02.2017 16:00 -1,1 C 96 % 1019,4 hPa 0,0 l/m 3,7 km/h (1 Bft) NO 48 0 min 0,000 mm 0,0 UV-I 37 W/m -1,7 C -1,1 C 4,8 km/h (1 Bft) 96,00 %
01.02.2017 16:02 -1,0 C 96 % 1019,4 hPa 0,0 l/m 3,7 km/h (1 Bft) O-NO 72 0 min 0,000 mm 0,0 UV-I 36 W/m -1,6 C -1,0 C 4,8 km/h (1 Bft) 97,62 %
01.02.2017 16:04 -1,0 C 96 % 1019,5 hPa 0,0 l/m 3,0 km/h (1 Bft) O-NO 72 0 min 0,000 mm 0,0 UV-I 33 W/m -1,6 C -1,0 C 4,8 km/h (1 Bft) 98,00 %
01.02.2017 16:06 -1,0 C 96 % 1019,5 hPa 0,0 l/m 3,0 km/h (1 Bft) O-NO 67 0 min 0,000 mm 0,0 UV-I 31 W/m -1,6 C -1,0 C 4,8 km/h (1 Bft) 97,87 %
01.02.2017 16:08 -1,0 C 96 % 1019,6 hPa 0,0 l/m 2,6 km/h (1 Bft) O-NO 67 0 min 0,000 mm 0,0 UV-I 30 W/m -1,6 C -1,0 C 4,8 km/h (1 Bft) 100,00 %
01.02.2017 16:10 -1,0 C 97 % 1019,5 hPa 0,0 l/m 2,2 km/h (1 Bft) O-NO 67 0 min 0,000 mm 0,0 UV-I 31 W/m -1,4 C -1,0 C 3,2 km/h (1 Bft) 100,00 %
01.02.2017 16:12 -1,0 C 96 % 1019,5 hPa 0,0 l/m 2,7 km/h (1 Bft) O 92 0 min 0,000 mm 0,0 UV-I 29 W/m -1,6 C -1,0 C 4,8 km/h (1 Bft) 100,00 %
01.02.2017 16:14 -1,0 C 97 % 1019,6 hPa 0,0 l/m 3,2 km/h (1 Bft) O-SO 106 0 min 0,000 mm 0,0 UV-I 29 W/m -1,4 C -1,0 C 4,8 km/h (1 Bft) 100,00 %
01.02.2017 16:16 -1,0 C 97 % 1019,6 hPa 0,0 l/m 2,8 km/h (1 Bft) O 88 0 min 0,000 mm 0,0 UV-I 27 W/m -1,4 C -1,0 C 4,8 km/h (1 Bft) 97,56 %
01.02.2017 16:18 -1,0 C 96 % 1019,6 hPa 0,0 l/m 0,5 km/h (0 Bft) O 88 0 min 0,000 mm 0,0 UV-I 24 W/m -1,6 C -1,0 C 3,2 km/h (1 Bft) 100,00 %
01.02.2017 16:20 -1,0 C 97 % 1019,6 hPa 0,0 l/m 0,4 km/h (0 Bft) O 88 0 min 0,000 mm 0,0 UV-I 26 W/m -1,4 C -1,0 C 1,6 km/h (1 Bft) 100,00 %
01.02.2017 16:22 -1,0 C 97 % 1019,5 hPa 0,0 l/m 1,6 km/h (1 Bft) O 88 0 min 0,000 mm 0,0 UV-I 26 W/m -1,4 C -1,0 C 3,2 km/h (1 Bft) 100,00 %
01.02.2017 16:24 -1,0 C 97 % 1019,5 hPa 0,0 l/m 1,8 km/h (1 Bft) O 88 0 min 0,000 mm 0,0 UV-I 22 W/m -1,4 C -1,0 C 3,2 km/h (1 Bft) 98,00 %
01.02.2017 16:26 -0,9 C 97 % 1019,6 hPa 0,0 l/m 2,5 km/h (1 Bft) O-NO 62 0 min 0,000 mm 0,0 UV-I 21 W/m -1,3 C -0,9 C 4,8 km/h (1 Bft) 100,00 %
01.02.2017 16:28 -0,9 C 97 % 1019,6 hPa 0,0 l/m 3,0 km/h (1 Bft) O-NO 61 0 min 0,000 mm 0,0 UV-I 19 W/m -1,3 C -0,9 C 4,8 km/h (1 Bft) 100,00 %
01.02.2017 16:30 -0,9 C 97 % 1019,6 hPa 0,0 l/m 2,4 km/h (1 Bft) O-NO 61 0 min 0,000 mm 0,0 UV-I 18 W/m -1,3 C -0,9 C 3,2 km/h (1 Bft) 100,00 %
01.02.2017 16:32 -0,9 C 97 % 1019,6 hPa 0,0 l/m 1,7 km/h (1 Bft) O-NO 62 0 min 0,000 mm 0,0 UV-I 17 W/m -1,3 C -0,9 C 3,2 km/h (1 Bft) 100,00 %
01.02.2017 16:34 -0,9 C 97 % 1019,6 hPa 0,0 l/m 1,9 km/h (1 Bft) O-NO 62 0 min 0,000 mm 0,0 UV-I 15 W/m -1,3 C -0,9 C 3,2 km/h (1 Bft) 100,00 %
01.02.2017 16:36 -0,9 C 96 % 1019,5 hPa 0,0 l/m 1,5 km/h (1 Bft) O-NO 62 0 min 0,000 mm 0,0 UV-I 14 W/m -1,5 C -0,9 C 3,2 km/h (1 Bft) 100,00 %
01.02.2017 16:38 -0,9 C 96 % 1019,6 hPa 0,0 l/m 1,5 km/h (1 Bft) O-NO 62 0 min 0,000 mm 0,0 UV-I 14 W/m -1,5 C -0,9 C 3,2 km/h (1 Bft) 100,00 %
01.02.2017 16:40 -0,9 C 96 % 1019,6 hPa 0,0 l/m 0,0 km/h (0 Bft) O-NO 62 0 min 0,000 mm 0,0 UV-I 12 W/m -1,5 C -0,9 C 1,6 km/h (1 Bft) 100,00 %
01.02.2017 16:42 -0,9 C 96 % 1019,7 hPa 0,0 l/m 0,8 km/h (0 Bft) O-NO 62 0 min 0,000 mm 0,0 UV-I 12 W/m -1,5 C -0,9 C 1,6 km/h (1 Bft) 97,87 %
01.02.2017 16:44 -0,9 C 96 % 1019,7 hPa 0,0 l/m 0,9 km/h (0 Bft) O-NO 62 0 min 0,000 mm 0,0 UV-I 12 W/m -1,5 C -0,9 C 3,2 km/h (1 Bft) 98,11 %
01.02.2017 16:46 -0,9 C 96 % 1019,7 hPa 0,0 l/m 1,9 km/h (1 Bft) O-NO 62 0 min 0,000 mm 0,0 UV-I 12 W/m -1,5 C -0,9 C 3,2 km/h (1 Bft) 100,00 %
01.02.2017 16:48 -0,9 C 96 % 1019,7 hPa 0,0 l/m 0,3 km/h (0 Bft) O-NO 62 0 min 0,000 mm 0,0 UV-I 13 W/m -1,5 C -0,9 C 1,6 km/h (1 Bft) 98,11 %
01.02.2017 16:50 -0,9 C 97 % 1019,7 hPa 0,0 l/m 0,0 km/h (0 Bft) O-NO 62 2 min 0,000 mm 0,0 UV-I 12 W/m -1,3 C -0,9 C 0,0 km/h (0 Bft) 97,50 %
01.02.2017 16:52 -0,9 C 97 % 1019,7 hPa 0,0 l/m 0,0 km/h (0 Bft) O-NO 62 2 min 0,000 mm 0,0 UV-I 12 W/m -1,3 C -0,9 C 0,0 km/h (0 Bft) 100,00 %
01.02.2017 16:54 -0,9 C 97 % 1019,8 hPa 0,0 l/m 0,0 km/h (0 Bft) O-NO 62 0 min 0,000 mm 0,0 UV-I 9 W/m -1,3 C -0,9 C 0,0 km/h (0 Bft) 100,00 %
01.02.2017 16:56 -0,9 C 97 % 1019,8 hPa 0,0 l/m 0,0 km/h (0 Bft) O-NO 62 0 min 0,000 mm 0,0 UV-I 6 W/m -1,3 C -0,9 C 0,0 km/h (0 Bft) 98,00 %
01.02.2017 16:58 -0,9 C 97 % 1019,8 hPa 0,0 l/m 0,0 km/h (0 Bft) O-NO 62 0 min 0,000 mm 0,0 UV-I 5 W/m -1,3 C -0,9 C 0,0 km/h (0 Bft) 100,00 %
01.02.2017 17:00 -0,9 C 97 % 1019,8 hPa 0,0 l/m 0,5 km/h (0 Bft) O-NO 62 0 min 0,000 mm 0,0 UV-I 5 W/m -1,3 C -0,9 C 1,6 km/h (1 Bft) 96,43 %
01.02.2017 17:02 -0,9 C 97 % 1019,9 hPa 0,0 l/m 1,9 km/h (1 Bft) O-NO 59 0 min 0,000 mm 0,0 UV-I 5 W/m -1,3 C -0,9 C 3,2 km/h (1 Bft) 100,00 %
01.02.2017 17:04 -0,9 C 97 % 1019,8 hPa 0,0 l/m 3,1 km/h (1 Bft) O-NO 59 0 min 0,000 mm 0,0 UV-I 5 W/m -1,3 C -0,9 C 4,8 km/h (1 Bft) 94,74 %
01.02.2017 17:06 -0,9 C 97 % 1019,8 hPa 0,0 l/m 3,0 km/h (1 Bft) O-NO 59 0 min 0,000 mm 0,0 UV-I 5 W/m -1,3 C -0,9 C 4,8 km/h (1 Bft) 94,00 %
01.02.2017 17:08 -0,9 C 97 % 1019,8 hPa 0,0 l/m 2,5 km/h (1 Bft) O-NO 59 0 min 0,000 mm 0,0 UV-I 3 W/m -1,3 C -0,9 C 3,2 km/h (1 Bft) 89,36 %
01.02.2017 17:10 -0,9 C 97 % 1019,8 hPa 0,0 l/m 3,3 km/h (1 Bft) O-NO 59 0 min 0,000 mm 0,0 UV-I 0 W/m -1,3 C -0,9 C 4,8 km/h (1 Bft) 90,00 %
01.02.2017 17:12 -0,9 C 97 % 1019,8 hPa 0,0 l/m 3,4 km/h (1 Bft) NO 55 0 min 0,000 mm 0,0 UV-I 0 W/m -1,3 C -0,9 C 4,8 km/h (1 Bft) 91,49 %
01.02.2017 17:14 -0,9 C 96 % 1019,8 hPa 0,0 l/m 2,1 km/h (1 Bft) NO 55 0 min 0,000 mm 0,0 UV-I 0 W/m -1,5 C -0,9 C 3,2 km/h (1 Bft) 86,84 %
01.02.2017 17:16 -0,9 C 96 % 1019,8 hPa 0,0 l/m 1,7 km/h (1 Bft) NO 55 0 min 0,000 mm 0,0 UV-I 0 W/m -1,5 C -0,9 C 3,2 km/h (1 Bft) 98,11 %
01.02.2017 17:18 -0,9 C 96 % 1019,8 hPa 0,0 l/m 2,1 km/h (1 Bft) NO 55 0 min 0,000 mm 0,0 UV-I 0 W/m -1,5 C -0,9 C 3,2 km/h (1 Bft) 100,00 %
01.02.2017 17:20 -0,9 C 97 % 1019,8 hPa 0,0 l/m 2,2 km/h (1 Bft) NO 55 0 min 0,000 mm 0,0 UV-I 0 W/m -1,3 C -0,9 C 4,8 km/h (1 Bft) 95,74 %
01.02.2017 17:22 -0,9 C 97 % 1019,8 hPa 0,0 l/m 2,3 km/h (1 Bft) NO 55 0 min 0,000 mm 0,0 UV-I 0 W/m -1,3 C -0,9 C 4,8 km/h (1 Bft) 100,00 %
01.02.2017 17:24 -0,9 C 96 % 1019,8 hPa 0,0 l/m 1,3 km/h (1 Bft) NO 55 0 min 0,000 mm 0,0 UV-I 0 W/m -1,5 C -0,9 C 1,6 km/h (1 Bft) 95,83 %
01.02.2017 17:26 -0,9 C 96 % 1019,9 hPa 0,0 l/m 0,3 km/h (0 Bft) NO 55 0 min 0,000 mm 0,0 UV-I 0 W/m -1,5 C -0,9 C 1,6 km/h (1 Bft) 97,87 %
01.02.2017 17:28 -0,9 C 96 % 1019,9 hPa 0,0 l/m 0,0 km/h (0 Bft) NO 55 0 min 0,000 mm 0,0 UV-I 0 W/m -1,5 C -0,9 C 0,0 km/h (0 Bft) 97,14 %
01.02.2017 17:30 -0,9 C 96 % 1019,9 hPa 0,0 l/m 0,4 km/h (0 Bft) NO 55 0 min 0,000 mm 0,0 UV-I 0 W/m -1,5 C -0,9 C 1,6 km/h (1 Bft) 100,00 %
01.02.2017 17:32 -0,9 C 96 % 1019,9 hPa 0,0 l/m 0,3 km/h (0 Bft) NO 55 0 min 0,000 mm 0,0 UV-I 0 W/m -1,5 C -0,9 C 1,6 km/h (1 Bft) 100,00 %
01.02.2017 17:34 -0,9 C 96 % 1019,9 hPa 0,0 l/m 0,0 km/h (0 Bft) NO 55 0 min 0,000 mm 0,0 UV-I 0 W/m -1,5 C -0,9 C 0,0 km/h (0 Bft) 100,00 %
01.02.2017 17:36 -0,9 C 96 % 1019,9 hPa 0,0 l/m 0,0 km/h (0 Bft) NO 55 0 min 0,000 mm 0,0 UV-I 0 W/m -1,5 C -0,9 C 0,0 km/h (0 Bft) 97,87 %
01.02.2017 17:38 -0,9 C 96 % 1020,0 hPa 0,0 l/m 0,0 km/h (0 Bft) NO 55 0 min 0,000 mm 0,0 UV-I 0 W/m -1,5 C -0,9 C 0,0 km/h (0 Bft) 97,87 %
01.02.2017 17:40 -0,9 C 96 % 1020,0 hPa 0,0 l/m 0,0 km/h (0 Bft) NO 55 0 min 0,000 mm 0,0 UV-I 0 W/m -1,5 C -0,9 C 0,0 km/h (0 Bft) 97,37 %
01.02.2017 17:42 -0,9 C 97 % 1020,1 hPa 0,0 l/m 0,0 km/h (0 Bft) NO 55 0 min 0,000 mm 0,0 UV-I 0 W/m -1,3 C -0,9 C 0,0 km/h (0 Bft) 96,49 %
01.02.2017 17:44 -0,9 C 97 % 1020,1 hPa 0,0 l/m 0,0 km/h (0 Bft) NO 55 0 min 0,000 mm 0,0 UV-I 0 W/m -1,3 C -0,9 C 0,0 km/h (0 Bft) 100,00 %
01.02.2017 17:46 -0,9 C 97 % 1020,0 hPa 0,0 l/m 0,0 km/h (0 Bft) NO 55 0 min 0,000 mm 0,0 UV-I 0 W/m -1,3 C -0,9 C 0,0 km/h (0 Bft) 95,74 %
01.02.2017 17:48 -0,9 C 97 % 1020,1 hPa 0,0 l/m 0,0 km/h (0 Bft) NO 55 0 min 0,000 mm 0,0 UV-I 0 W/m -1,3 C -0,9 C 0,0 km/h (0 Bft) 95,74 %
01.02.2017 17:50 -0,9 C 97 % 1020,0 hPa 0,0 l/m 0,0 km/h (0 Bft) NO 55 0 min 0,000 mm 0,0 UV-I 0 W/m -1,3 C -0,9 C 0,0 km/h (0 Bft) 98,00 %
01.02.2017 17:52 -0,9 C 97 % 1020,0 hPa 0,0 l/m 0,0 km/h (0 Bft) NO 55 0 min 0,000 mm 0,0 UV-I 0 W/m -1,3 C -0,9 C 0,0 km/h (0 Bft) 96,00 %
01.02.2017 17:54 -0,9 C 97 % 1020,1 hPa 0,0 l/m 0,0 km/h (0 Bft) NO 55 0 min 0,000 mm 0,0 UV-I 0 W/m -1,3 C -0,9 C 0,0 km/h (0 Bft) 95,74 %
01.02.2017 17:56 -0,9 C 97 % 1020,0 hPa 0,0 l/m 0,0 km/h (0 Bft) NO 55 0 min 0,000 mm 0,0 UV-I 0 W/m -1,3 C -0,9 C 0,0 km/h (0 Bft) 95,74 %
01.02.2017 17:58 -0,9 C 97 % 1020,0 hPa 0,0 l/m 0,0 km/h (0 Bft) NO 55 0 min 0,000 mm 0,0 UV-I 0 W/m -1,3 C -0,9 C 1,6 km/h (1 Bft) 97,44 %
01.02.2017 18:00 -0,9 C 97 % 1020,0 hPa 0,0 l/m 0,4 km/h (0 Bft) NO 55 0 min 0,000 mm 0,0 UV-I 0 W/m -1,3 C -0,9 C 1,6 km/h (1 Bft) 96,23 %
01.02.2017 18:02 -1,0 C 97 % 1020,0 hPa 0,0 l/m 1,1 km/h (1 Bft) NO 55 0 min 0,000 mm 0,0 UV-I 0 W/m -1,4 C -1,0 C 3,2 km/h (1 Bft) 97,14 %
01.02.2017 18:04 -0,9 C 97 % 1020,0 hPa 0,0 l/m 2,6 km/h (1 Bft) NO 55 0 min 0,000 mm 0,0 UV-I 0 W/m -1,3 C -0,9 C 3,2 km/h (1 Bft) 96,23 %
01.02.2017 18:06 -0,9 C 97 % 1020,0 hPa 0,0 l/m 2,3 km/h (1 Bft) NO 55 0 min 0,000 mm 0,0 UV-I 0 W/m -1,3 C -0,9 C 3,2 km/h (1 Bft) 98,00 %
01.02.2017 18:08 -0,9 C 97 % 1020,0 hPa 0,0 l/m 2,0 km/h (1 Bft) NO 55 0 min 0,000 mm 0,0 UV-I 0 W/m -1,3 C -0,9 C 3,2 km/h (1 Bft) 97,87 %
01.02.2017 18:10 -0,9 C 97 % 1020,1 hPa 0,0 l/m 0,6 km/h (0 Bft) NO 55 0 min 0,000 mm 0,0 UV-I 0 W/m -1,3 C -0,9 C 3,2 km/h (1 Bft) 96,00 %
01.02.2017 18:12 -0,9 C 97 % 1020,2 hPa 0,0 l/m 0,7 km/h (0 Bft) NO 55 0 min 0,000 mm 0,0 UV-I 0 W/m -1,3 C -0,9 C 3,2 km/h (1 Bft) 100,00 %
01.02.2017 18:14 -0,9 C 97 % 1020,2 hPa 0,0 l/m 0,0 km/h (0 Bft) NO 55 0 min 0,000 mm 0,0 UV-I 0 W/m -1,3 C -0,9 C 0,0 km/h (0 Bft) 100,00 %
01.02.2017 18:16 -0,9 C 97 % 1020,2 hPa 0,0 l/m 0,0 km/h (0 Bft) NO 55 0 min 0,000 mm 0,0 UV-I 0 W/m -1,3 C -0,9 C 0,0 km/h (0 Bft) 97,87 %
01.02.2017 18:18 -0,9 C 97 % 1020,2 hPa 0,0 l/m 0,0 km/h (0 Bft) NO 55 0 min 0,000 mm 0,0 UV-I 0 W/m -1,3 C -0,9 C 0,0 km/h (0 Bft) 100,00 %
01.02.2017 18:20 -0,9 C 97 % 1020,1 hPa 0,0 l/m 0,1 km/h (0 Bft) NO 55 0 min 0,000 mm 0,0 UV-I 0 W/m -1,3 C -0,9 C 1,6 km/h (1 Bft) 100,00 %
01.02.2017 18:22 -0,9 C 97 % 1020,1 hPa 0,0 l/m 1,4 km/h (1 Bft) NO 55 0 min 0,000 mm 0,0 UV-I 0 W/m -1,3 C -0,9 C 3,2 km/h (1 Bft) 100,00 %
01.02.2017 18:24 -0,9 C 97 % 1020,1 hPa 0,0 l/m 2,6 km/h (1 Bft) NO 55 0 min 0,000 mm 0,0 UV-I 0 W/m -1,3 C -0,9 C 3,2 km/h (1 Bft) 96,00 %
01.02.2017 18:26 -0,9 C 97 % 1020,1 hPa 0,0 l/m 1,9 km/h (1 Bft) NO 39 0 min 0,000 mm 0,0 UV-I 0 W/m -1,3 C -0,9 C 3,2 km/h (1 Bft) 100,00 %
01.02.2017 18:28 -0,9 C 97 % 1020,2 hPa 0,0 l/m 1,6 km/h (1 Bft) N-NO 27 0 min 0,000 mm 0,0 UV-I 0 W/m -1,3 C -0,9 C 3,2 km/h (1 Bft) 100,00 %
01.02.2017 18:30 -0,9 C 97 % 1020,3 hPa 0,0 l/m 0,0 km/h (0 Bft) N-NO 23 0 min 0,000 mm 0,0 UV-I 0 W/m -1,3 C -0,9 C 1,6 km/h (1 Bft) 100,00 %
01.02.2017 18:32 -1,0 C 97 % 1020,4 hPa 0,0 l/m 0,0 km/h (0 Bft) N-NO 23 0 min 0,000 mm 0,0 UV-I 0 W/m -1,4 C -1,0 C 0,0 km/h (0 Bft) 98,11 %
01.02.2017 18:34 -1,0 C 97 % 1020,4 hPa 0,0 l/m 0,0 km/h (0 Bft) N-NO 23 0 min 0,000 mm 0,0 UV-I 0 W/m -1,4 C -1,0 C 1,6 km/h (1 Bft) 100,00 %
01.02.2017 18:36 -1,0 C 97 % 1020,3 hPa 0,0 l/m 0,0 km/h (0 Bft) N-NO 23 0 min 0,000 mm 0,0 UV-I 0 W/m -1,4 C -1,0 C 0,0 km/h (0 Bft) 98,00 %
01.02.2017 18:38 -1,0 C 97 % 1020,3 hPa 0,0 l/m 0,0 km/h (0 Bft) N-NO 23 0 min 0,000 mm 0,0 UV-I 0 W/m -1,4 C -1,0 C 0,0 km/h (0 Bft) 100,00 %
01.02.2017 18:40 -1,0 C 97 % 1020,3 hPa 0,0 l/m 0,3 km/h (0 Bft) N-NO 23 0 min 0,000 mm 0,0 UV-I 0 W/m -1,4 C -1,0 C 1,6 km/h (1 Bft) 100,00 %
01.02.2017 18:42 -1,0 C 97 % 1020,2 hPa 0,0 l/m 1,1 km/h (1 Bft) N-NO 23 0 min 0,000 mm 0,0 UV-I 0 W/m -1,4 C -1,0 C 1,6 km/h (1 Bft) 98,00 %
01.02.2017 18:44 -1,0 C 97 % 1020,2 hPa 0,0 l/m 0,2 km/h (0 Bft) N-NO 23 0 min 0,000 mm 0,0 UV-I 0 W/m -1,4 C -1,0 C 1,6 km/h (1 Bft) 100,00 %
01.02.2017 18:46 -0,9 C 97 % 1020,3 hPa 0,0 l/m 1,0 km/h (0 Bft) N-NO 23 0 min 0,000 mm 0,0 UV-I 0 W/m -1,3 C -0,9 C 3,2 km/h (1 Bft) 98,11 %
01.02.2017 18:48 -0,9 C 97 % 1020,3 hPa 0,0 l/m 2,1 km/h (1 Bft) N-NO 23 0 min 0,000 mm 0,0 UV-I 0 W/m -1,3 C -0,9 C 4,8 km/h (1 Bft) 100,00 %
01.02.2017 18:50 -1,0 C 97 % 1020,2 hPa 0,0 l/m 2,2 km/h (1 Bft) N-NO 28 0 min 0,000 mm 0,0 UV-I 0 W/m -1,4 C -1,0 C 3,2 km/h (1 Bft) 100,00 %
01.02.2017 18:52 -1,0 C 97 % 1020,2 hPa 0,0 l/m 2,5 km/h (1 Bft) N-NO 28 0 min 0,000 mm 0,0 UV-I 0 W/m -1,4 C -1,0 C 3,2 km/h (1 Bft) 96,00 %
01.02.2017 18:54 -1,0 C 97 % 1020,2 hPa 0,0 l/m 3,6 km/h (1 Bft) N-NO 28 0 min 0,000 mm 0,0 UV-I 0 W/m -1,4 C -1,0 C 4,8 km/h (1 Bft) 100,00 %
01.02.2017 18:56 -1,0 C 97 % 1020,3 hPa 0,0 l/m 3,6 km/h (1 Bft) N-NO 28 0 min 0,000 mm 0,0 UV-I 0 W/m -1,4 C -1,0 C 4,8 km/h (1 Bft) 100,00 %
01.02.2017 18:58 -1,1 C 97 % 1020,3 hPa 0,0 l/m 3,5 km/h (1 Bft) N-NO 23 0 min 0,000 mm 0,0 UV-I 0 W/m -1,5 C -1,1 C 4,8 km/h (1 Bft) 100,00 %
01.02.2017 19:00 -1,0 C 97 % 1020,3 hPa 0,0 l/m 5,0 km/h (1 Bft) N-NO 24 0 min 0,000 mm 0,0 UV-I 0 W/m -1,4 C -1,0 C 6,4 km/h (2 Bft) 97,87 %
01.02.2017 19:02 -1,0 C 97 % 1020,3 hPa 0,0 l/m 3,0 km/h (1 Bft) N-NO 25 0 min 0,000 mm 0,0 UV-I 0 W/m -1,4 C -1,0 C 4,8 km/h (1 Bft) 97,56 %
01.02.2017 19:04 -1,0 C 97 % 1020,3 hPa 0,0 l/m 2,1 km/h (1 Bft) N 11 0 min 0,000 mm 0,0 UV-I 0 W/m -1,4 C -1,0 C 4,8 km/h (1 Bft) 97,87 %
01.02.2017 19:06 -1,0 C 97 % 1020,3 hPa 0,0 l/m 3,4 km/h (1 Bft) N-NO 24 0 min 0,000 mm 0,0 UV-I 0 W/m -1,4 C -1,0 C 6,4 km/h (2 Bft) 98,00 %
01.02.2017 19:08 -1,0 C 97 % 1020,3 hPa 0,0 l/m 5,0 km/h (1 Bft) N-NO 21 0 min 0,000 mm 0,0 UV-I 0 W/m -1,4 C -1,0 C 8,0 km/h (2 Bft) 100,00 %
01.02.2017 19:10 -1,0 C 97 % 1020,3 hPa 0,0 l/m 4,4 km/h (1 Bft) N-NO 24 0 min 0,000 mm 0,0 UV-I 0 W/m -1,4 C -1,0 C 6,4 km/h (2 Bft) 97,87 %
01.02.2017 19:12 -1,0 C 97 % 1020,3 hPa 0,0 l/m 5,2 km/h (1 Bft) NO 44 0 min 0,000 mm 0,0 UV-I 0 W/m -1,4 C -1,0 C 6,4 km/h (2 Bft) 100,00 %
01.02.2017 19:14 -1,0 C 97 % 1020,3 hPa 0,0 l/m 6,2 km/h (2 Bft) NO 55 0 min 0,000 mm 0,0 UV-I 0 W/m -1,4 C -1,0 C 8,0 km/h (2 Bft) 100,00 %
01.02.2017 19:16 -1,1 C 97 % 1020,3 hPa 0,0 l/m 4,6 km/h (1 Bft) NO 50 0 min 0,000 mm 0,0 UV-I 0 W/m -1,5 C -1,1 C 6,4 km/h (2 Bft) 100,00 %
01.02.2017 19:18 -1,1 C 97 % 1020,3 hPa 0,0 l/m 4,3 km/h (1 Bft) NO 51 0 min 0,000 mm 0,0 UV-I 0 W/m -1,5 C -1,1 C 6,4 km/h (2 Bft) 100,00 %
01.02.2017 19:20 -1,1 C 97 % 1020,3 hPa 0,0 l/m 4,8 km/h (1 Bft) O-NO 57 0 min 0,000 mm 0,0 UV-I 0 W/m -1,5 C -1,1 C 6,4 km/h (2 Bft) 100,00 %
01.02.2017 19:22 -1,1 C 97 % 1020,2 hPa 0,0 l/m 4,6 km/h (1 Bft) NO 51 0 min 0,000 mm 0,0 UV-I 0 W/m -1,5 C -1,1 C 6,4 km/h (2 Bft) 100,00 %
01.02.2017 19:24 -1,1 C 97 % 1020,2 hPa 0,0 l/m 4,8 km/h (1 Bft) N-NO 32 0 min 0,000 mm 0,0 UV-I 0 W/m -1,5 C -1,1 C 6,4 km/h (2 Bft) 98,00 %
01.02.2017 19:26 -1,1 C 97 % 1020,2 hPa 0,0 l/m 4,8 km/h (1 Bft) NO 49 0 min 0,000 mm 0,0 UV-I 0 W/m -1,5 C -1,1 C 6,4 km/h (2 Bft) 100,00 %
01.02.2017 19:28 -1,1 C 97 % 1020,2 hPa 0,0 l/m 5,6 km/h (1 Bft) NO 56 0 min 0,000 mm 0,0 UV-I 0 W/m -1,5 C -1,1 C 6,4 km/h (2 Bft) 100,00 %
01.02.2017 19:30 -1,1 C 97 % 1020,2 hPa 0,0 l/m 6,1 km/h (2 Bft) O-NO 71 0 min 0,000 mm 0,0 UV-I 0 W/m -1,5 C -1,1 C 9,7 km/h (2 Bft) 100,00 %
01.02.2017 19:32 -1,2 C 97 % 1020,1 hPa 0,0 l/m 7,0 km/h (2 Bft) NO 53 0 min 0,000 mm 0,0 UV-I 0 W/m -1,6 C -1,8 C 9,7 km/h (2 Bft) 100,00 %
01.02.2017 19:34 -1,2 C 97 % 1020,1 hPa 0,0 l/m 6,3 km/h (2 Bft) O-NO 62 0 min 0,000 mm 0,0 UV-I 0 W/m -1,6 C -1,2 C 8,0 km/h (2 Bft) 100,00 %
01.02.2017 19:36 -1,2 C 97 % 1020,1 hPa 0,0 l/m 6,2 km/h (2 Bft) O-NO 70 0 min 0,000 mm 0,0 UV-I 0 W/m -1,6 C -1,2 C 11,3 km/h (2 Bft) 100,00 %
01.02.2017 19:38 -1,2 C 97 % 1020,1 hPa 0,0 l/m 6,1 km/h (2 Bft) O 86 0 min 0,000 mm 0,0 UV-I 0 W/m -1,6 C -1,2 C 8,0 km/h (2 Bft) 100,00 %
01.02.2017 19:40 -1,2 C 97 % 1020,1 hPa 0,0 l/m 6,3 km/h (2 Bft) O-NO 71 0 min 0,000 mm 0,0 UV-I 0 W/m -1,6 C -1,2 C 11,3 km/h (2 Bft) 97,14 %
01.02.2017 19:42 -1,2 C 96 % 1020,0 hPa 0,0 l/m 6,5 km/h (2 Bft) O-SO 105 0 min 0,000 mm 0,0 UV-I 0 W/m -1,8 C -1,3 C 9,7 km/h (2 Bft) 98,21 %
01.02.2017 19:44 -1,2 C 96 % 1020,0 hPa 0,0 l/m 5,2 km/h (1 Bft) O-NO 65 0 min 0,000 mm 0,0 UV-I 0 W/m -1,8 C -1,2 C 6,4 km/h (2 Bft) 94,74 %
01.02.2017 19:46 -1,2 C 96 % 1020,0 hPa 0,0 l/m 7,2 km/h (2 Bft) O-NO 71 0 min 0,000 mm 0,0 UV-I 0 W/m -1,8 C -2,1 C 11,3 km/h (2 Bft) 96,43 %
01.02.2017 19:48 -1,2 C 96 % 1020,0 hPa 0,0 l/m 6,4 km/h (2 Bft) O-NO 76 0 min 0,000 mm 0,0 UV-I 0 W/m -1,8 C -1,2 C 9,7 km/h (2 Bft) 97,87 %
01.02.2017 19:50 -1,3 C 96 % 1020,0 hPa 0,0 l/m 4,6 km/h (1 Bft) O 96 0 min 0,000 mm 0,0 UV-I 0 W/m -1,9 C -1,3 C 6,4 km/h (2 Bft) 97,87 %
01.02.2017 19:52 -1,3 C 96 % 1019,9 hPa 0,0 l/m 6,0 km/h (2 Bft) O-NO 73 0 min 0,000 mm 0,0 UV-I 0 W/m -1,9 C -1,3 C 9,7 km/h (2 Bft) 97,62 %
01.02.2017 19:54 -1,3 C 96 % 1020,0 hPa 0,0 l/m 6,1 km/h (2 Bft) O-NO 77 0 min 0,000 mm 0,0 UV-I 0 W/m -1,9 C -1,3 C 11,3 km/h (2 Bft) 96,15 %
01.02.2017 19:56 -1,3 C 96 % 1019,9 hPa 0,0 l/m 5,5 km/h (1 Bft) O 82 0 min 0,000 mm 0,0 UV-I 0 W/m -1,9 C -1,3 C 8,0 km/h (2 Bft) 97,44 %
01.02.2017 19:58 -1,3 C 96 % 1020,0 hPa 0,0 l/m 5,0 km/h (1 Bft) O-NO 59 0 min 0,000 mm 0,0 UV-I 0 W/m -1,9 C -1,3 C 6,4 km/h (2 Bft) 98,11 %
01.02.2017 20:00 -1,3 C 96 % 1020,0 hPa 0,0 l/m 3,0 km/h (1 Bft) O-NO 71 0 min 0,000 mm 0,0 UV-I 0 W/m -1,9 C -1,3 C 4,8 km/h (1 Bft) 98,00 %
01.02.2017 20:02 -1,3 C 96 % 1020,1 hPa 0,0 l/m 3,1 km/h (1 Bft) O-NO 58 0 min 0,000 mm 0,0 UV-I 0 W/m -1,9 C -1,3 C 6,4 km/h (2 Bft) 96,00 %
01.02.2017 20:04 -1,3 C 96 % 1020,1 hPa 0,0 l/m 2,4 km/h (1 Bft) O-NO 69 0 min 0,000 mm 0,0 UV-I 0 W/m -1,9 C -1,3 C 4,8 km/h (1 Bft) 95,16 %
01.02.2017 20:06 -1,3 C 96 % 1020,0 hPa 0,0 l/m 4,6 km/h (1 Bft) NO 52 0 min 0,000 mm 0,0 UV-I 0 W/m -1,9 C -1,3 C 6,4 km/h (2 Bft) 95,45 %
01.02.2017 20:09 -1,3 C 96 % 1020,0 hPa 0,0 l/m 3,5 km/h (1 Bft) N-NO 29 0 min 0,000 mm 0,0 UV-I 0 W/m -1,9 C -1,3 C 4,8 km/h (1 Bft) 97,37 %
01.02.2017 20:10 -1,3 C 96 % 1020,0 hPa 0,0 l/m 2,6 km/h (1 Bft) NO 36 0 min 0,000 mm 0,0 UV-I 0 W/m -1,9 C -1,3 C 3,2 km/h (1 Bft) 96,30 %
01.02.2017 20:12 -1,3 C 96 % 1020,0 hPa 0,0 l/m 2,5 km/h (1 Bft) O-NO 61 0 min 0,000 mm 0,0 UV-I 0 W/m -1,9 C -1,3 C 3,2 km/h (1 Bft) 97,37 %
01.02.2017 20:14 -1,3 C 96 % 1020,1 hPa 0,0 l/m 3,3 km/h (1 Bft) O-NO 63 0 min 0,000 mm 0,0 UV-I 0 W/m -1,9 C -1,3 C 4,8 km/h (1 Bft) 93,18 %
01.02.2017 20:16 -1,3 C 96 % 1020,1 hPa 0,0 l/m 2,2 km/h (1 Bft) O-NO 63 0 min 0,000 mm 0,0 UV-I 0 W/m -1,9 C -1,3 C 3,2 km/h (1 Bft) 98,11 %
01.02.2017 20:18 -1,3 C 96 % 1020,1 hPa 0,0 l/m 0,2 km/h (0 Bft) O-NO 63 0 min 0,000 mm 0,0 UV-I 0 W/m -1,9 C -1,3 C 1,6 km/h (1 Bft) 100,00 %
01.02.2017 20:20 -1,3 C 96 % 1020,2 hPa 0,0 l/m 1,8 km/h (1 Bft) O-NO 76 0 min 0,000 mm 0,0 UV-I 0 W/m -1,9 C -1,3 C 4,8 km/h (1 Bft) 98,00 %
01.02.2017 20:22 -1,3 C 96 % 1020,2 hPa 0,0 l/m 0,7 km/h (0 Bft) O-NO 76 0 min 0,000 mm 0,0 UV-I 0 W/m -1,9 C -1,3 C 3,2 km/h (1 Bft) 97,37 %
01.02.2017 20:24 -1,3 C 96 % 1020,2 hPa 0,0 l/m 2,0 km/h (1 Bft) O-NO 76 0 min 0,000 mm 0,0 UV-I 0 W/m -1,9 C -1,3 C 3,2 km/h (1 Bft) 100,00 %
01.02.2017 20:26 -1,3 C 96 % 1020,2 hPa 0,0 l/m 1,0 km/h (0 Bft) O-NO 71 0 min 0,000 mm 0,0 UV-I 0 W/m -1,9 C -1,3 C 3,2 km/h (1 Bft) 100,00 %
01.02.2017 20:28 -1,3 C 96 % 1020,2 hPa 0,0 l/m 3,0 km/h (1 Bft) O-NO 59 0 min 0,000 mm 0,0 UV-I 0 W/m -1,9 C -1,3 C 4,8 km/h (1 Bft) 100,00 %
01.02.2017 20:30 -1,3 C 96 % 1020,1 hPa 0,0 l/m 1,9 km/h (1 Bft) O-NO 59 0 min 0,000 mm 0,0 UV-I 0 W/m -1,9 C -1,3 C 3,2 km/h (1 Bft) 95,74 %
01.02.2017 20:32 -1,3 C 96 % 1020,0 hPa 0,0 l/m 2,9 km/h (1 Bft) O-NO 59 0 min 0,000 mm 0,0 UV-I 0 W/m -1,9 C -1,3 C 4,8 km/h (1 Bft) 100,00 %
01.02.2017 20:34 -1,3 C 96 % 1019,9 hPa 0,0 l/m 4,1 km/h (1 Bft) O-NO 62 0 min 0,000 mm 0,0 UV-I 0 W/m -1,9 C -1,3 C 6,4 km/h (2 Bft) 95,74 %
01.02.2017 20:36 -1,3 C 96 % 1019,9 hPa 0,0 l/m 3,0 km/h (1 Bft) NO 51 0 min 0,000 mm 0,0 UV-I 0 W/m -1,9 C -1,3 C 4,8 km/h (1 Bft) 100,00 %
01.02.2017 20:39 -1,3 C 96 % 1020,0 hPa 0,0 l/m 2,6 km/h (1 Bft) NO 51 0 min 0,000 mm 0,0 UV-I 0 W/m -1,9 C -1,3 C 4,8 km/h (1 Bft) 98,68 %
01.02.2017 20:40 -1,3 C 96 % 1020,0 hPa 0,0 l/m 2,2 km/h (1 Bft) NO 51 0 min 0,000 mm 0,0 UV-I 0 W/m -1,9 C -1,3 C 3,2 km/h (1 Bft) 100,00 %
01.02.2017 20:42 -1,3 C 96 % 1020,0 hPa 0,0 l/m 1,3 km/h (1 Bft) NO 51 0 min 0,000 mm 0,0 UV-I 0 W/m -1,9 C -1,3 C 3,2 km/h (1 Bft) 100,00 %
01.02.2017 20:44 -1,3 C 96 % 1020,0 hPa 0,0 l/m 1,6 km/h (1 Bft) NO 51 0 min 0,000 mm 0,0 UV-I 0 W/m -1,9 C -1,3 C 3,2 km/h (1 Bft) 100,00 %
01.02.2017 20:46 -1,3 C 96 % 1020,1 hPa 0,0 l/m 2,5 km/h (1 Bft) NO 51 0 min 0,000 mm 0,0 UV-I 0 W/m -1,9 C -1,3 C 3,2 km/h (1 Bft) 100,00 %
01.02.2017 20:49 -1,3 C 96 % 1020,0 hPa 0,0 l/m 2,4 km/h (1 Bft) NO 51 0 min 0,000 mm 0,0 UV-I 0 W/m -1,9 C -1,3 C 3,2 km/h (1 Bft) 100,00 %
01.02.2017 20:50 -1,3 C 96 % 1020,0 hPa 0,0 l/m 2,3 km/h (1 Bft) NO 51 0 min 0,000 mm 0,0 UV-I 0 W/m -1,9 C -1,3 C 3,2 km/h (1 Bft) 100,00 %
01.02.2017 20:52 -1,3 C 96 % 1020,0 hPa 0,0 l/m 1,7 km/h (1 Bft) NO 51 0 min 0,000 mm 0,0 UV-I 0 W/m -1,9 C -1,3 C 3,2 km/h (1 Bft) 97,87 %
01.02.2017 20:54 -1,3 C 96 % 1020,1 hPa 0,0 l/m 1,3 km/h (1 Bft) NO 51 0 min 0,000 mm 0,0 UV-I 0 W/m -1,9 C -1,3 C 3,2 km/h (1 Bft) 100,00 %
01.02.2017 20:56 -1,3 C 96 % 1020,1 hPa 0,0 l/m 0,9 km/h (0 Bft) NO 51 0 min 0,000 mm 0,0 UV-I 0 W/m -1,9 C -1,3 C 3,2 km/h (1 Bft) 100,00 %
01.02.2017 20:58 -1,3 C 96 % 1020,0 hPa 0,0 l/m 2,5 km/h (1 Bft) NO 51 0 min 0,000 mm 0,0 UV-I 0 W/m -1,9 C -1,3 C 3,2 km/h (1 Bft) 100,00 %
01.02.2017 21:00 -1,3 C 96 % 1020,0 hPa 0,0 l/m 2,4 km/h (1 Bft) NO 51 0 min 0,000 mm 0,0 UV-I 0 W/m -1,9 C -1,3 C 3,2 km/h (1 Bft) 100,00 %
01.02.2017 21:02 -1,3 C 96 % 1019,9 hPa 0,0 l/m 2,3 km/h (1 Bft) NO 51 0 min 0,000 mm 0,0 UV-I 0 W/m -1,9 C -1,3 C 3,2 km/h (1 Bft) 100,00 %
01.02.2017 21:04 -1,3 C 96 % 1019,9 hPa 0,0 l/m 1,6 km/h (1 Bft) NO 51 0 min 0,000 mm 0,0 UV-I 0 W/m -1,9 C -1,3 C 3,2 km/h (1 Bft) 96,00 %
01.02.2017 21:06 -1,3 C 96 % 1020,0 hPa 0,0 l/m 1,0 km/h (0 Bft) NO 51 0 min 0,000 mm 0,0 UV-I 0 W/m -1,9 C -1,3 C 1,6 km/h (1 Bft) 100,00 %
01.02.2017 21:09 -1,3 C 96 % 1020,0 hPa 0,0 l/m 1,5 km/h (1 Bft) NO 51 0 min 0,000 mm 0,0 UV-I 0 W/m -1,9 C -1,3 C 3,2 km/h (1 Bft) 98,70 %
01.02.2017 21:10 -1,3 C 96 % 1020,0 hPa 0,0 l/m 2,1 km/h (1 Bft) NO 51 0 min 0,000 mm 0,0 UV-I 0 W/m -1,9 C -1,3 C 3,2 km/h (1 Bft) 100,00 %
01.02.2017 21:12 -1,3 C 96 % 1020,0 hPa 0,0 l/m 1,9 km/h (1 Bft) NO 51 0 min 0,000 mm 0,0 UV-I 0 W/m -1,9 C -1,3 C 3,2 km/h (1 Bft) 98,18 %
01.02.2017 21:14 -1,3 C 96 % 1019,9 hPa 0,0 l/m 1,8 km/h (1 Bft) NO 51 0 min 0,000 mm 0,0 UV-I 0 W/m -1,9 C -1,3 C 3,2 km/h (1 Bft) 100,00 %
01.02.2017 21:16 -1,3 C 96 % 1020,0 hPa 0,0 l/m 0,8 km/h (0 Bft) NO 51 0 min 0,000 mm 0,0 UV-I 0 W/m -1,9 C -1,3 C 1,6 km/h (1 Bft) 100,00 %
01.02.2017 21:19 -1,3 C 96 % 1019,9 hPa 0,0 l/m 0,5 km/h (0 Bft) NO 51 0 min 0,000 mm 0,0 UV-I 0 W/m -1,9 C -1,3 C 3,2 km/h (1 Bft) 98,63 %
01.02.2017 21:20 -1,3 C 96 % 1019,9 hPa 0,0 l/m 2,7 km/h (1 Bft) NO 51 0 min 0,000 mm 0,0 UV-I 0 W/m -1,9 C -1,3 C 3,2 km/h (1 Bft) 100,00 %
01.02.2017 21:22 -1,3 C 96 % 1019,9 hPa 0,0 l/m 2,7 km/h (1 Bft) NO 51 0 min 0,000 mm 0,0 UV-I 0 W/m -1,9 C -1,3 C 3,2 km/h (1 Bft) 100,00 %
01.02.2017 21:24 -1,3 C 96 % 1019,9 hPa 0,0 l/m 2,7 km/h (1 Bft) NO 51 0 min 0,000 mm 0,0 UV-I 0 W/m -1,9 C -1,3 C 4,8 km/h (1 Bft) 100,00 %
01.02.2017 21:26 -1,3 C 96 % 1019,9 hPa 0,0 l/m 2,1 km/h (1 Bft) NO 51 0 min 0,000 mm 0,0 UV-I 0 W/m -1,9 C -1,3 C 3,2 km/h (1 Bft) 100,00 %
01.02.2017 21:29 -1,3 C 96 % 1019,9 hPa 0,0 l/m 2,2 km/h (1 Bft) NO 51 0 min 0,000 mm 0,0 UV-I 0 W/m -1,9 C -1,3 C 3,2 km/h (1 Bft) 100,00 %
01.02.2017 21:30 -1,3 C 96 % 1019,9 hPa 0,0 l/m 2,7 km/h (1 Bft) NO 51 0 min 0,000 mm 0,0 UV-I 0 W/m -1,9 C -1,3 C 4,8 km/h (1 Bft) 100,00 %
01.02.2017 21:32 -1,3 C 96 % 1019,8 hPa 0,0 l/m 3,3 km/h (1 Bft) NO 51 0 min 0,000 mm 0,0 UV-I 0 W/m -1,9 C -1,3 C 4,8 km/h (1 Bft) 100,00 %
01.02.2017 21:34 -1,3 C 96 % 1019,8 hPa 0,0 l/m 3,4 km/h (1 Bft) NO 51 0 min 0,000 mm 0,0 UV-I 0 W/m -1,9 C -1,3 C 4,8 km/h (1 Bft) 97,87 %
01.02.2017 21:36 -1,3 C 96 % 1019,7 hPa 0,0 l/m 3,3 km/h (1 Bft) NO 51 0 min 0,000 mm 0,0 UV-I 0 W/m -1,9 C -1,3 C 4,8 km/h (1 Bft) 100,00 %
01.02.2017 21:38 -1,3 C 96 % 1019,8 hPa 0,0 l/m 3,1 km/h (1 Bft) NO 56 0 min 0,000 mm 0,0 UV-I 0 W/m -1,9 C -1,3 C 4,8 km/h (1 Bft) 100,00 %
01.02.2017 21:40 -1,3 C 96 % 1019,8 hPa 0,0 l/m 2,4 km/h (1 Bft) NO 56 0 min 0,000 mm 0,0 UV-I 0 W/m -1,9 C -1,3 C 3,2 km/h (1 Bft) 100,00 %
01.02.2017 21:42 -1,3 C 96 % 1019,8 hPa 0,0 l/m 3,4 km/h (1 Bft) NO 56 0 min 0,000 mm 0,0 UV-I 0 W/m -1,9 C -1,3 C 4,8 km/h (1 Bft) 100,00 %
01.02.2017 21:44 -1,3 C 96 % 1019,7 hPa 0,0 l/m 3,3 km/h (1 Bft) O-NO 57 0 min 0,000 mm 0,0 UV-I 0 W/m -1,9 C -1,3 C 4,8 km/h (1 Bft) 98,11 %
01.02.2017 21:46 -1,3 C 96 % 1019,7 hPa 0,0 l/m 4,5 km/h (1 Bft) O-NO 57 0 min 0,000 mm 0,0 UV-I 0 W/m -1,9 C -1,3 C 6,4 km/h (2 Bft) 97,87 %
01.02.2017 21:49 -1,3 C 96 % 1019,7 hPa 0,0 l/m 3,0 km/h (1 Bft) NO 45 0 min 0,000 mm 0,0 UV-I 0 W/m -1,9 C -1,3 C 4,8 km/h (1 Bft) 97,18 %
01.02.2017 21:50 -1,3 C 96 % 1019,7 hPa 0,0 l/m 2,6 km/h (1 Bft) NO 45 0 min 0,000 mm 0,0 UV-I 0 W/m -1,9 C -1,3 C 3,2 km/h (1 Bft) 95,65 %
01.02.2017 21:52 -1,3 C 96 % 1019,8 hPa 0,0 l/m 2,6 km/h (1 Bft) NO 45 0 min 0,000 mm 0,0 UV-I 0 W/m -1,9 C -1,3 C 4,8 km/h (1 Bft) 97,87 %
01.02.2017 21:54 -1,3 C 96 % 1019,8 hPa 0,0 l/m 2,9 km/h (1 Bft) NO 52 0 min 0,000 mm 0,0 UV-I 0 W/m -1,9 C -1,3 C 4,8 km/h (1 Bft) 97,62 %
01.02.2017 21:56 -1,3 C 96 % 1019,8 hPa 0,0 l/m 4,1 km/h (1 Bft) NO 56 0 min 0,000 mm 0,0 UV-I 0 W/m -1,9 C -1,3 C 6,4 km/h (2 Bft) 95,74 %
01.02.2017 21:58 -1,3 C 96 % 1019,7 hPa 0,0 l/m 3,9 km/h (1 Bft) NO 49 0 min 0,000 mm 0,0 UV-I 0 W/m -1,9 C -1,3 C 4,8 km/h (1 Bft) 96,00 %
01.02.2017 22:00 -1,3 C 96 % 1019,7 hPa 0,0 l/m 4,6 km/h (1 Bft) O-NO 65 0 min 0,000 mm 0,0 UV-I 0 W/m -1,9 C -1,3 C 6,4 km/h (2 Bft) 97,87 %
01.02.2017 22:02 -1,4 C 96 % 1019,7 hPa 0,0 l/m 3,4 km/h (1 Bft) NO 54 0 min 0,000 mm 0,0 UV-I 0 W/m -2,0 C -1,4 C 4,8 km/h (1 Bft) 95,74 %
01.02.2017 22:04 -1,4 C 96 % 1019,7 hPa 0,0 l/m 4,9 km/h (1 Bft) NO 54 0 min 0,000 mm 0,0 UV-I 0 W/m -2,0 C -1,4 C 6,4 km/h (2 Bft) 97,56 %
01.02.2017 22:06 -1,4 C 96 % 1019,7 hPa 0,0 l/m 4,9 km/h (1 Bft) O-NO 57 0 min 0,000 mm 0,0 UV-I 0 W/m -2,0 C -1,4 C 6,4 km/h (2 Bft) 96,00 %
01.02.2017 22:08 -1,4 C 96 % 1019,7 hPa 0,0 l/m 4,1 km/h (1 Bft) O-NO 63 0 min 0,000 mm 0,0 UV-I 0 W/m -2,0 C -1,4 C 6,4 km/h (2 Bft) 94,74 %
01.02.2017 22:10 -1,4 C 96 % 1019,6 hPa 0,0 l/m 4,1 km/h (1 Bft) O-NO 65 0 min 0,000 mm 0,0 UV-I 0 W/m -2,0 C -1,4 C 4,8 km/h (1 Bft) 98,00 %
01.02.2017 22:12 -1,4 C 96 % 1019,7 hPa 0,0 l/m 4,4 km/h (1 Bft) O-NO 67 0 min 0,000 mm 0,0 UV-I 0 W/m -2,0 C -1,4 C 4,8 km/h (1 Bft) 98,00 %
01.02.2017 22:14 -1,4 C 96 % 1019,7 hPa 0,0 l/m 3,7 km/h (1 Bft) O-NO 78 0 min 0,000 mm 0,0 UV-I 0 W/m -2,0 C -1,4 C 4,8 km/h (1 Bft) 97,87 %
01.02.2017 22:16 -1,4 C 96 % 1019,6 hPa 0,0 l/m 2,3 km/h (1 Bft) O-NO 78 0 min 0,000 mm 0,0 UV-I 0 W/m -2,0 C -1,4 C 3,2 km/h (1 Bft) 97,87 %
01.02.2017 22:18 -1,4 C 96 % 1019,7 hPa 0,0 l/m 2,7 km/h (1 Bft) O-NO 70 0 min 0,000 mm 0,0 UV-I 0 W/m -2,0 C -1,4 C 4,8 km/h (1 Bft) 96,00 %
01.02.2017 22:20 -1,4 C 96 % 1019,7 hPa 0,0 l/m 1,4 km/h (1 Bft) O-NO 70 0 min 0,000 mm 0,0 UV-I 0 W/m -2,0 C -1,4 C 3,2 km/h (1 Bft) 97,56 %
01.02.2017 22:22 -1,4 C 96 % 1019,7 hPa 0,0 l/m 2,3 km/h (1 Bft) O-NO 70 0 min 0,000 mm 0,0 UV-I 0 W/m -2,0 C -1,4 C 3,2 km/h (1 Bft) 100,00 %
01.02.2017 22:24 -1,4 C 96 % 1019,7 hPa 0,0 l/m 3,0 km/h (1 Bft) O-NO 70 0 min 0,000 mm 0,0 UV-I 0 W/m -2,0 C -1,4 C 6,4 km/h (2 Bft) 100,00 %
01.02.2017 22:26 -1,4 C 96 % 1019,7 hPa 0,0 l/m 3,4 km/h (1 Bft) O-NO 70 0 min 0,000 mm 0,0 UV-I 0 W/m -2,0 C -1,4 C 4,8 km/h (1 Bft) 94,74 %
01.02.2017 22:28 -1,4 C 96 % 1019,6 hPa 0,0 l/m 3,1 km/h (1 Bft) O-NO 70 0 min 0,000 mm 0,0 UV-I 0 W/m -2,0 C -1,4 C 4,8 km/h (1 Bft) 100,00 %
01.02.2017 22:30 -1,4 C 96 % 1019,6 hPa 0,0 l/m 1,8 km/h (1 Bft) O-NO 70 0 min 0,000 mm 0,0 UV-I 0 W/m -2,0 C -1,4 C 3,2 km/h (1 Bft) 97,87 %
01.02.2017 22:32 -1,4 C 96 % 1019,7 hPa 0,0 l/m 2,1 km/h (1 Bft) O-NO 70 0 min 0,000 mm 0,0 UV-I 0 W/m -2,0 C -1,4 C 4,8 km/h (1 Bft) 100,00 %
01.02.2017 22:34 -1,4 C 96 % 1019,7 hPa 0,0 l/m 2,3 km/h (1 Bft) O-NO 70 0 min 0,000 mm 0,0 UV-I 0 W/m -2,0 C -1,4 C 3,2 km/h (1 Bft) 100,00 %
01.02.2017 22:36 -1,4 C 96 % 1019,6 hPa 0,0 l/m 3,4 km/h (1 Bft) NO 51 0 min 0,000 mm 0,0 UV-I 0 W/m -2,0 C -1,4 C 4,8 km/h (1 Bft) 100,00 %
01.02.2017 22:38 -1,4 C 96 % 1019,7 hPa 0,0 l/m 3,1 km/h (1 Bft) NO 51 0 min 0,000 mm 0,0 UV-I 0 W/m -2,0 C -1,4 C 4,8 km/h (1 Bft) 98,00 %
01.02.2017 22:40 -1,4 C 96 % 1019,7 hPa 0,0 l/m 3,1 km/h (1 Bft) NO 51 0 min 0,000 mm 0,0 UV-I 0 W/m -2,0 C -1,4 C 4,8 km/h (1 Bft) 100,00 %
01.02.2017 22:42 -1,4 C 96 % 1019,6 hPa 0,0 l/m 3,2 km/h (1 Bft) NO 51 0 min 0,000 mm 0,0 UV-I 0 W/m -2,0 C -1,4 C 4,8 km/h (1 Bft) 100,00 %
01.02.2017 22:44 -1,4 C 96 % 1019,5 hPa 0,0 l/m 3,3 km/h (1 Bft) NO 51 0 min 0,000 mm 0,0 UV-I 0 W/m -2,0 C -1,4 C 4,8 km/h (1 Bft) 100,00 %
01.02.2017 22:46 -1,4 C 96 % 1019,6 hPa 0,0 l/m 3,1 km/h (1 Bft) NO 51 0 min 0,000 mm 0,0 UV-I 0 W/m -2,0 C -1,4 C 4,8 km/h (1 Bft) 98,11 %
01.02.2017 22:48 -1,4 C 96 % 1019,5 hPa 0,0 l/m 3,4 km/h (1 Bft) NO 50 0 min 0,000 mm 0,0 UV-I 0 W/m -2,0 C -1,4 C 4,8 km/h (1 Bft) 100,00 %
01.02.2017 22:50 -1,4 C 96 % 1019,6 hPa 0,0 l/m 2,6 km/h (1 Bft) NO 50 0 min 0,000 mm 0,0 UV-I 0 W/m -2,0 C -1,4 C 3,2 km/h (1 Bft) 100,00 %
01.02.2017 22:52 -1,4 C 96 % 1019,6 hPa 0,0 l/m 2,9 km/h (1 Bft) NO 50 0 min 0,000 mm 0,0 UV-I 0 W/m -2,0 C -1,4 C 4,8 km/h (1 Bft) 100,00 %
01.02.2017 22:54 -1,4 C 96 % 1019,6 hPa 0,0 l/m 2,1 km/h (1 Bft) NO 50 0 min 0,000 mm 0,0 UV-I 0 W/m -2,0 C -1,4 C 3,2 km/h (1 Bft) 100,00 %
01.02.2017 22:56 -1,4 C 96 % 1019,6 hPa 0,0 l/m 3,0 km/h (1 Bft) NO 50 0 min 0,000 mm 0,0 UV-I 0 W/m -2,0 C -1,4 C 4,8 km/h (1 Bft) 100,00 %
01.02.2017 22:58 -1,4 C 96 % 1019,6 hPa 0,0 l/m 2,0 km/h (1 Bft) NO 50 0 min 0,000 mm 0,0 UV-I 0 W/m -2,0 C -1,4 C 3,2 km/h (1 Bft) 97,87 %
01.02.2017 23:00 -1,4 C 96 % 1019,5 hPa 0,0 l/m 2,3 km/h (1 Bft) NO 50 0 min 0,000 mm 0,0 UV-I 0 W/m -2,0 C -1,4 C 3,2 km/h (1 Bft) 100,00 %
01.02.2017 23:02 -1,4 C 96 % 1019,6 hPa 0,0 l/m 1,9 km/h (1 Bft) NO 50 0 min 0,000 mm 0,0 UV-I 0 W/m -2,0 C -1,4 C 3,2 km/h (1 Bft) 100,00 %
01.02.2017 23:04 -1,4 C 96 % 1019,6 hPa 0,0 l/m 2,5 km/h (1 Bft) NO 50 0 min 0,000 mm 0,0 UV-I 0 W/m -2,0 C -1,4 C 3,2 km/h (1 Bft) 100,00 %
01.02.2017 23:06 -1,4 C 96 % 1019,6 hPa 0,0 l/m 2,2 km/h (1 Bft) NO 50 0 min 0,000 mm 0,0 UV-I 0 W/m -2,0 C -1,4 C 3,2 km/h (1 Bft) 97,87 %
01.02.2017 23:08 -1,4 C 96 % 1019,7 hPa 0,0 l/m 1,3 km/h (1 Bft) NO 50 0 min 0,000 mm 0,0 UV-I 0 W/m -2,0 C -1,4 C 3,2 km/h (1 Bft) 98,00 %
01.02.2017 23:10 -1,4 C 96 % 1019,6 hPa 0,0 l/m 1,4 km/h (1 Bft) O 84 0 min 0,000 mm 0,0 UV-I 0 W/m -2,0 C -1,4 C 3,2 km/h (1 Bft) 100,00 %
01.02.2017 23:12 -1,4 C 96 % 1019,6 hPa 0,0 l/m 3,1 km/h (1 Bft) O 79 0 min 0,000 mm 0,0 UV-I 0 W/m -2,0 C -1,4 C 4,8 km/h (1 Bft) 98,00 %
01.02.2017 23:14 -1,4 C 96 % 1019,6 hPa 0,0 l/m 2,5 km/h (1 Bft) O 79 0 min 0,000 mm 0,0 UV-I 0 W/m -2,0 C -1,4 C 3,2 km/h (1 Bft) 97,87 %
01.02.2017 23:16 -1,4 C 96 % 1019,6 hPa 0,0 l/m 1,7 km/h (1 Bft) O-NO 78 0 min 0,000 mm 0,0 UV-I 0 W/m -2,0 C -1,4 C 3,2 km/h (1 Bft) 97,87 %
01.02.2017 23:18 -1,4 C 97 % 1019,6 hPa 0,0 l/m 2,8 km/h (1 Bft) O-NO 68 0 min 0,000 mm 0,0 UV-I 0 W/m -1,8 C -1,4 C 3,2 km/h (1 Bft) 100,00 %
01.02.2017 23:20 -1,4 C 97 % 1019,6 hPa 0,0 l/m 2,8 km/h (1 Bft) O-NO 59 0 min 0,000 mm 0,0 UV-I 0 W/m -1,8 C -1,4 C 4,8 km/h (1 Bft) 98,11 %
01.02.2017 23:22 -1,4 C 97 % 1019,5 hPa 0,0 l/m 4,2 km/h (1 Bft) NO 53 0 min 0,000 mm 0,0 UV-I 0 W/m -1,8 C -1,4 C 4,8 km/h (1 Bft) 95,12 %
01.02.2017 23:24 -1,4 C 97 % 1019,5 hPa 0,0 l/m 4,9 km/h (1 Bft) NO 53 0 min 0,000 mm 0,0 UV-I 0 W/m -1,8 C -1,4 C 6,4 km/h (2 Bft) 100,00 %
01.02.2017 23:26 -1,4 C 96 % 1019,5 hPa 0,0 l/m 4,4 km/h (1 Bft) O-NO 70 0 min 0,000 mm 0,0 UV-I 0 W/m -2,0 C -1,4 C 6,4 km/h (2 Bft) 97,87 %
01.02.2017 23:28 -1,4 C 96 % 1019,5 hPa 0,0 l/m 4,0 km/h (1 Bft) O-NO 67 0 min 0,000 mm 0,0 UV-I 0 W/m -2,0 C -1,4 C 6,4 km/h (2 Bft) 97,56 %
01.02.2017 23:30 -1,4 C 96 % 1019,6 hPa 0,0 l/m 3,3 km/h (1 Bft) O-NO 63 0 min 0,000 mm 0,0 UV-I 0 W/m -2,0 C -1,4 C 4,8 km/h (1 Bft) 98,00 %
01.02.2017 23:32 -1,4 C 97 % 1019,6 hPa 0,0 l/m 3,5 km/h (1 Bft) O 88 0 min 0,000 mm 0,0 UV-I 0 W/m -1,8 C -1,4 C 4,8 km/h (1 Bft) 100,00 %
01.02.2017 23:34 -1,4 C 97 % 1019,6 hPa 0,0 l/m 2,4 km/h (1 Bft) O-NO 69 0 min 0,000 mm 0,0 UV-I 0 W/m -1,8 C -1,4 C 4,8 km/h (1 Bft) 100,00 %
01.02.2017 23:36 -1,4 C 97 % 1019,6 hPa 0,0 l/m 1,6 km/h (1 Bft) O-NO 69 0 min 0,000 mm 0,0 UV-I 0 W/m -1,8 C -1,4 C 3,2 km/h (1 Bft) 100,00 %
01.02.2017 23:38 -1,4 C 97 % 1019,6 hPa 0,0 l/m 3,0 km/h (1 Bft) O-NO 64 0 min 0,000 mm 0,0 UV-I 0 W/m -1,8 C -1,4 C 4,8 km/h (1 Bft) 98,00 %
01.02.2017 23:40 -1,5 C 96 % 1019,5 hPa 0,0 l/m 2,9 km/h (1 Bft) O-NO 64 0 min 0,000 mm 0,0 UV-I 0 W/m -2,1 C -1,5 C 4,8 km/h (1 Bft) 100,00 %
01.02.2017 23:42 -1,5 C 96 % 1019,5 hPa 0,0 l/m 3,4 km/h (1 Bft) O-NO 63 0 min 0,000 mm 0,0 UV-I 0 W/m -2,1 C -1,5 C 4,8 km/h (1 Bft) 100,00 %
01.02.2017 23:44 -1,4 C 97 % 1019,4 hPa 0,0 l/m 4,9 km/h (1 Bft) O-NO 63 0 min 0,000 mm 0,0 UV-I 0 W/m -1,8 C -1,4 C 8,0 km/h (2 Bft) 100,00 %
01.02.2017 23:46 -1,5 C 96 % 1019,5 hPa 0,0 l/m 4,9 km/h (1 Bft) O-NO 74 0 min 0,000 mm 0,0 UV-I 0 W/m -2,1 C -1,5 C 6,4 km/h (2 Bft) 98,00 %
01.02.2017 23:48 -1,5 C 96 % 1019,5 hPa 0,0 l/m 3,9 km/h (1 Bft) O-NO 74 0 min 0,000 mm 0,0 UV-I 0 W/m -2,1 C -1,5 C 6,4 km/h (2 Bft) 100,00 %
01.02.2017 23:50 -1,5 C 96 % 1019,5 hPa 0,0 l/m 3,1 km/h (1 Bft) O-NO 59 0 min 0,000 mm 0,0 UV-I 0 W/m -2,1 C -1,5 C 4,8 km/h (1 Bft) 96,30 %
01.02.2017 23:52 -1,5 C 97 % 1019,5 hPa 0,0 l/m 2,8 km/h (1 Bft) O-NO 59 0 min 0,000 mm 0,0 UV-I 0 W/m -1,9 C -1,5 C 3,2 km/h (1 Bft) 98,51 %
01.02.2017 23:54 -1,5 C 96 % 1019,6 hPa 0,0 l/m 2,1 km/h (1 Bft) O-NO 58 0 min 0,000 mm 0,0 UV-I 0 W/m -2,1 C -1,5 C 3,2 km/h (1 Bft) 98,00 %
01.02.2017 23:56 -1,5 C 97 % 1019,5 hPa 0,0 l/m 3,5 km/h (1 Bft) O-NO 57 0 min 0,000 mm 0,0 UV-I 0 W/m -1,9 C -1,5 C 4,8 km/h (1 Bft) 97,44 %
01.02.2017 23:58 -1,5 C 96 % 1019,4 hPa 0,0 l/m 4,2 km/h (1 Bft) O-NO 59 0 min 0,000 mm 0,0 UV-I 0 W/m -2,1 C -1,5 C 4,8 km/h (1 Bft) 96,00 %
_ Min-Zeit 08:36 10:20 00:00 - 00:02 - - - - - - 08:36 07:24 00:02 17:14
Minimum _ -3,1 C 95 % 1018,8 hPa - 0,0 km/h (0 Bft) - - - - - - -3,5 C -3,3 C 0,0 km/h (0 Bft) 86,84 %
_ Max-Zeit 16:12 00:00 10:16 00:00 19:46 - - 10:28 11:00 11:36 10:30 16:26 16:26 19:36 00:04
Maximum _ -0,9 C 97 % 1021,3 hPa 0,0 l/m 7,2 km/h
O-NO (2 Bft)
- - 2 min 0,051 mm 0,7 UV-I 213 W/m -1,3 C -0,9 C 11,3 km/h
O-NO (2 Bft)
100,00 %
Durchschnitt _ -1,7 C 96 % 1020,1 hPa #0,0 l/m 2,9 km/h (1 Bft) NO - #8 min. #0,229 mm 0,5 UV-I 78 W/m -2,2 C -1,7 C 4,3 km/h (1 Bft) 97,70 %